[[{"header":{"parameterUnit":"m.s-1","parameterCategory":1,"la1":30.6,"la2":29.2853,"lo1":-89.7004,"lo2":-87.6739,"dy":0.0162,"dx":0.0183,"nx":112,"ny":82,"refTime":"2024-05-22T18:00:00:Z","depth":0,"parameterNumber":2,"parameterNumberName":"U-component_of_WINDS"},"data":[0.0,0.0,0.0,0.0,0.0,0.0,0.0,0.0,0.0,0.0,0.0,0.0,0.0,0.0,0.0,0.0,0.0,0.0,0.0,0.0,0.0,0.0,0.0,0.0,0.0,0.0,0.0,0.0,0.0,0.0,0.0,0.0,0.0,0.0,0.0,0.0,0.0,0.0,0.0,0.0,0.0,0.0,0.0,0.0,0.0,0.0,0.0,0.0,0.0,0.0,0.0,0.0,0.0,0.0,0.0,0.0,0.0,0.0,0.0,0.0,0.0,0.0,0.0,0.0,0.0,0.0,0.0,0.0,0.0,0.0,0.0,0.0,0.0,0.0,0.0,0.0,0.0,0.0,0.0,0.0,0.0,0.0,0.0,0.0,0.0,0.0,0.0,0.0,0.0,0.0,-6.3408,-6.7711,-7.5203,-7.9379,-7.7932,-7.7045,-7.2866,-6.4231,0.0,0.0,0.0,0.0,0.0,0.0,0.0,0.0,0.0,0.0,0.0,0.0,0.0,0.0,0.0,0.0,0.0,0.0,0.0,0.0,0.0,0.0,0.0,0.0,0.0,0.0,0.0,0.0,0.0,0.0,0.0,0.0,0.0,0.0,0.0,0.0,0.0,0.0,0.0,0.0,0.0,0.0,0.0,0.0,0.0,0.0,0.0,0.0,0.0,0.0,0.0,0.0,0.0,0.0,0.0,0.0,0.0,0.0,0.0,0.0,0.0,0.0,0.0,0.0,0.0,0.0,0.0,0.0,0.0,0.0,0.0,0.0,0.0,0.0,0.0,0.0,0.0,0.0,0.0,0.0,0.0,0.0,0.0,0.0,0.0,0.0,0.0,0.0,0.0,0.0,0.0,0.0,0.0,0.0,0.0,0.0,0.0,0.0,0.0,0.0,0.0,0.0,0.0,0.0,-6.3807,-7.3183,-7.7266,-7.9156,-7.8752,-7.5356,-7.1035,-6.5833,0.0,0.0,0.0,0.0,0.0,0.0,0.0,0.0,0.0,0.0,0.0,0.0,0.0,0.0,0.0,0.0,0.0,0.0,0.0,0.0,0.0,0.0,0.0,0.0,0.0,0.0,0.0,0.0,0.0,0.0,0.0,0.0,0.0,0.0,0.0,0.0,0.0,0.0,0.0,0.0,0.0,0.0,0.0,0.0,0.0,0.0,0.0,0.0,0.0,0.0,0.0,0.0,0.0,0.0,0.0,0.0,0.0,0.0,0.0,0.0,0.0,0.0,0.0,0.0,0.0,0.0,0.0,0.0,0.0,0.0,0.0,0.0,0.0,0.0,0.0,0.0,0.0,0.0,0.0,0.0,0.0,0.0,0.0,0.0,0.0,0.0,0.0,0.0,0.0,0.0,0.0,0.0,0.0,0.0,0.0,0.0,0.0,0.0,0.0,0.0,0.0,0.0,0.0,-6.2237,-6.6291,-7.5357,-7.7767,-7.8303,-7.7311,-7.433,-7.0074,-6.4393,-5.9893,0.0,0.0,0.0,0.0,0.0,0.0,0.0,0.0,0.0,0.0,0.0,0.0,0.0,0.0,0.0,0.0,0.0,0.0,0.0,0.0,0.0,0.0,0.0,0.0,0.0,0.0,0.0,0.0,0.0,0.0,0.0,0.0,0.0,0.0,0.0,0.0,0.0,0.0,0.0,0.0,0.0,0.0,0.0,0.0,0.0,0.0,0.0,0.0,0.0,0.0,0.0,0.0,0.0,0.0,0.0,0.0,0.0,0.0,0.0,0.0,0.0,0.0,0.0,0.0,0.0,0.0,0.0,0.0,0.0,0.0,0.0,0.0,0.0,0.0,0.0,0.0,0.0,0.0,0.0,0.0,0.0,0.0,0.0,0.0,0.0,0.0,0.0,0.0,0.0,0.0,0.0,0.0,0.0,0.0,0.0,0.0,0.0,0.0,0.0,0.0,0.0,0.0,-6.6867,-6.9421,-7.606,-7.7404,-7.7281,-7.6105,-7.2741,-6.8405,-6.3032,-5.748,0.0,0.0,0.0,0.0,0.0,0.0,0.0,0.0,0.0,0.0,0.0,0.0,0.0,0.0,0.0,0.0,0.0,0.0,0.0,0.0,0.0,0.0,0.0,0.0,0.0,0.0,0.0,0.0,0.0,0.0,0.0,0.0,0.0,0.0,0.0,0.0,0.0,0.0,0.0,0.0,0.0,0.0,0.0,0.0,0.0,0.0,0.0,0.0,0.0,0.0,0.0,0.0,0.0,0.0,0.0,0.0,0.0,0.0,0.0,0.0,0.0,0.0,0.0,0.0,0.0,0.0,0.0,0.0,0.0,0.0,0.0,0.0,0.0,0.0,0.0,0.0,0.0,0.0,0.0,0.0,0.0,0.0,0.0,0.0,0.0,0.0,0.0,0.0,0.0,0.0,0.0,0.0,0.0,0.0,0.0,0.0,0.0,0.0,0.0,0.0,0.0,0.0,-6.7885,-7.2781,-7.5838,-7.622,-7.6365,-7.6592,-6.9687,-6.4727,-6.3322,-5.5234,0.0,0.0,0.0,0.0,0.0,0.0,0.0,0.0,0.0,0.0,0.0,0.0,0.0,0.0,0.0,0.0,0.0,0.0,0.0,0.0,0.0,0.0,0.0,0.0,0.0,0.0,0.0,0.0,0.0,0.0,0.0,0.0,0.0,0.0,0.0,0.0,0.0,0.0,0.0,0.0,0.0,0.0,0.0,0.0,0.0,0.0,0.0,0.0,0.0,0.0,0.0,0.0,0.0,0.0,0.0,0.0,0.0,0.0,0.0,0.0,0.0,0.0,0.0,0.0,0.0,0.0,0.0,0.0,0.0,0.0,0.0,0.0,0.0,0.0,0.0,0.0,0.0,0.0,0.0,0.0,0.0,0.0,0.0,0.0,0.0,0.0,0.0,0.0,0.0,0.0,0.0,0.0,0.0,0.0,0.0,0.0,0.0,0.0,0.0,0.0,0.0,0.0,-6.6222,-7.1084,0.0,-7.6093,-7.588,-7.5371,-7.0511,-6.5689,-6.1449,0.0,0.0,0.0,0.0,0.0,0.0,0.0,0.0,0.0,0.0,0.0,0.0,0.0,0.0,0.0,0.0,0.0,0.0,0.0,0.0,0.0,0.0,0.0,0.0,0.0,0.0,0.0,0.0,0.0,0.0,0.0,0.0,0.0,0.0,0.0,0.0,0.0,0.0,0.0,0.0,0.0,0.0,0.0,0.0,0.0,0.0,0.0,0.0,0.0,0.0,0.0,0.0,0.0,0.0,0.0,0.0,0.0,0.0,0.0,0.0,0.0,0.0,0.0,0.0,0.0,0.0,0.0,0.0,0.0,0.0,0.0,0.0,0.0,0.0,0.0,0.0,0.0,0.0,0.0,0.0,0.0,0.0,0.0,0.0,0.0,0.0,0.0,0.0,0.0,0.0,0.0,0.0,0.0,0.0,0.0,0.0,0.0,0.0,0.0,0.0,0.0,0.0,-6.075,-6.5852,-7.0624,0.0,-7.5506,-7.5027,-7.422,-6.9723,-6.4933,-6.0228,0.0,0.0,0.0,0.0,0.0,0.0,0.0,0.0,0.0,0.0,0.0,0.0,0.0,0.0,0.0,0.0,0.0,0.0,0.0,0.0,0.0,0.0,0.0,0.0,0.0,0.0,0.0,0.0,0.0,0.0,0.0,0.0,0.0,0.0,0.0,0.0,0.0,0.0,0.0,0.0,0.0,0.0,0.0,0.0,0.0,0.0,0.0,0.0,0.0,0.0,0.0,0.0,0.0,0.0,0.0,0.0,0.0,0.0,0.0,0.0,0.0,0.0,0.0,0.0,0.0,0.0,0.0,0.0,0.0,0.0,0.0,0.0,0.0,0.0,0.0,0.0,0.0,0.0,0.0,0.0,0.0,0.0,0.0,0.0,0.0,0.0,0.0,0.0,0.0,0.0,0.0,0.0,0.0,0.0,0.0,0.0,0.0,0.0,0.0,0.0,0.0,0.0,-6.097,-6.7283,-7.221,-7.4625,-7.4184,-7.3618,-7.3415,-6.6588,-6.1651,0.0,0.0,0.0,0.0,0.0,0.0,0.0,0.0,0.0,0.0,0.0,0.0,0.0,0.0,0.0,0.0,0.0,0.0,0.0,0.0,0.0,0.0,0.0,0.0,0.0,0.0,0.0,0.0,0.0,0.0,0.0,0.0,0.0,0.0,0.0,0.0,0.0,0.0,0.0,0.0,0.0,0.0,0.0,0.0,0.0,0.0,0.0,0.0,0.0,0.0,0.0,0.0,0.0,0.0,0.0,0.0,0.0,0.0,0.0,0.0,0.0,0.0,0.0,0.0,0.0,0.0,0.0,0.0,0.0,0.0,0.0,0.0,0.0,0.0,0.0,0.0,0.0,0.0,0.0,0.0,0.0,0.0,0.0,0.0,0.0,0.0,0.0,0.0,0.0,0.0,0.0,0.0,0.0,0.0,0.0,0.0,0.0,0.0,0.0,0.0,0.0,0.0,0.0,-6.0126,-6.6439,-7.1394,-7.378,-7.3817,-7.3369,-7.2546,-6.7844,-6.2997,-5.8441,0.0,0.0,0.0,0.0,0.0,0.0,0.0,0.0,0.0,0.0,0.0,0.0,0.0,0.0,0.0,0.0,0.0,0.0,0.0,0.0,0.0,0.0,0.0,0.0,0.0,0.0,0.0,0.0,0.0,0.0,0.0,0.0,0.0,0.0,0.0,0.0,0.0,0.0,0.0,0.0,0.0,0.0,0.0,0.0,0.0,0.0,0.0,0.0,0.0,0.0,0.0,0.0,0.0,0.0,0.0,0.0,0.0,0.0,0.0,0.0,0.0,0.0,0.0,0.0,0.0,0.0,0.0,0.0,0.0,0.0,0.0,0.0,0.0,0.0,0.0,0.0,0.0,0.0,0.0,0.0,0.0,0.0,0.0,0.0,0.0,0.0,0.0,0.0,0.0,0.0,0.0,0.0,0.0,0.0,0.0,0.0,0.0,0.0,0.0,0.0,0.0,0.0,-5.9758,-6.5815,-7.055,-7.2973,-7.323,-7.2704,-7.1405,-6.8049,-6.3621,-5.7954,0.0,0.0,0.0,0.0,0.0,0.0,0.0,0.0,0.0,0.0,0.0,0.0,0.0,0.0,0.0,0.0,0.0,0.0,0.0,0.0,0.0,0.0,0.0,0.0,0.0,0.0,0.0,0.0,0.0,0.0,0.0,0.0,0.0,0.0,0.0,0.0,0.0,0.0,0.0,0.0,0.0,0.0,0.0,0.0,0.0,0.0,0.0,0.0,0.0,0.0,0.0,0.0,0.0,0.0,0.0,0.0,0.0,0.0,0.0,0.0,0.0,0.0,0.0,0.0,0.0,0.0,0.0,0.0,0.0,0.0,0.0,0.0,0.0,0.0,0.0,0.0,0.0,0.0,0.0,0.0,0.0,0.0,0.0,0.0,0.0,0.0,0.0,0.0,0.0,0.0,0.0,0.0,0.0,0.0,0.0,0.0,0.0,0.0,0.0,0.0,0.0,0.0,-5.9575,-6.5264,-6.9669,-7.2018,-7.2349,-7.1725,-7.011,-6.7531,-6.3733,-5.8483,0.0,0.0,0.0,0.0,0.0,0.0,0.0,0.0,0.0,0.0,0.0,0.0,0.0,0.0,0.0,0.0,0.0,0.0,0.0,0.0,0.0,0.0,0.0,0.0,0.0,0.0,0.0,0.0,0.0,0.0,0.0,0.0,0.0,0.0,0.0,0.0,0.0,0.0,0.0,0.0,0.0,0.0,0.0,0.0,0.0,0.0,0.0,0.0,0.0,0.0,0.0,0.0,0.0,0.0,0.0,0.0,0.0,0.0,0.0,0.0,-6.1362,0.0,0.0,0.0,0.0,0.0,0.0,0.0,0.0,0.0,0.0,0.0,0.0,0.0,0.0,0.0,0.0,0.0,0.0,0.0,0.0,0.0,0.0,0.0,0.0,0.0,0.0,0.0,0.0,0.0,0.0,0.0,0.0,0.0,0.0,0.0,0.0,0.0,0.0,0.0,0.0,0.0,-5.8817,-6.442,-6.8641,-7.0403,-7.1174,-7.0917,-6.9302,-6.721,-6.4246,-6.0116,-5.4246,0.0,0.0,0.0,0.0,0.0,0.0,0.0,0.0,0.0,0.0,0.0,0.0,0.0,0.0,0.0,0.0,0.0,0.0,0.0,0.0,0.0,0.0,0.0,0.0,0.0,0.0,0.0,0.0,0.0,0.0,0.0,0.0,0.0,0.0,0.0,0.0,0.0,0.0,0.0,0.0,0.0,0.0,0.0,0.0,0.0,0.0,0.0,0.0,0.0,0.0,0.0,0.0,0.0,0.0,0.0,0.0,0.0,0.0,0.0,0.0,-6.3896,0.0,0.0,0.0,0.0,0.0,0.0,0.0,0.0,0.0,0.0,0.0,0.0,0.0,0.0,0.0,0.0,0.0,0.0,0.0,0.0,0.0,0.0,0.0,0.0,0.0,0.0,0.0,0.0,0.0,0.0,0.0,0.0,0.0,0.0,0.0,0.0,0.0,0.0,0.0,0.0,-5.9134,-6.409,-6.7871,-6.9889,-7.0477,-7.022,-6.9009,-6.6897,-6.433,-6.1225,-5.6139,0.0,0.0,0.0,0.0,0.0,0.0,0.0,0.0,0.0,0.0,0.0,0.0,0.0,0.0,0.0,0.0,0.0,0.0,0.0,0.0,0.0,0.0,0.0,0.0,0.0,0.0,0.0,0.0,0.0,0.0,0.0,0.0,0.0,0.0,0.0,0.0,0.0,0.0,0.0,0.0,0.0,0.0,0.0,0.0,0.0,0.0,0.0,0.0,0.0,0.0,0.0,0.0,0.0,0.0,-7.5794,-7.6328,-7.6344,-7.6728,-7.7193,-7.2637,-7.0856,-7.076,0.0,0.0,0.0,0.0,0.0,0.0,0.0,0.0,0.0,0.0,0.0,0.0,0.0,0.0,0.0,0.0,0.0,0.0,0.0,0.0,0.0,0.0,0.0,0.0,0.0,-6.2279,-6.1761,0.0,0.0,0.0,0.0,0.0,0.0,0.0,0.0,0.0,0.0,0.0,0.0,-5.9722,-6.398,-6.732,-6.9449,-6.9816,-6.9541,-6.8693,-6.6736,-6.4573,-6.2315,-5.8425,-5.49,0.0,0.0,0.0,0.0,0.0,0.0,0.0,0.0,0.0,0.0,0.0,0.0,0.0,0.0,0.0,0.0,0.0,0.0,0.0,0.0,0.0,0.0,0.0,0.0,0.0,0.0,0.0,0.0,0.0,0.0,0.0,0.0,-5.5395,-5.7242,0.0,0.0,0.0,0.0,0.0,0.0,0.0,0.0,0.0,0.0,0.0,0.0,0.0,0.0,-7.5168,-7.8207,-7.9922,-8.0297,-8.2491,-8.3291,-8.2789,-8.2897,-8.302,-8.3095,-8.2411,0.0,-7.3968,-7.18,0.0,0.0,0.0,0.0,0.0,0.0,0.0,0.0,0.0,0.0,0.0,0.0,0.0,0.0,0.0,0.0,0.0,0.0,0.0,0.0,0.0,0.0,-6.718,-6.7037,-6.7078,-6.6629,0.0,-5.9514,-5.446,-5.1724,0.0,0.0,0.0,0.0,0.0,0.0,0.0,0.0,-5.9869,-6.398,-6.688,-6.7907,-6.8641,-6.8599,-6.7529,-6.6924,-6.5871,-6.4049,-6.0828,-5.8272,-5.6684,-5.1114,0.0,0.0,0.0,0.0,0.0,0.0,0.0,0.0,0.0,0.0,0.0,0.0,0.0,0.0,0.0,0.0,0.0,0.0,0.0,0.0,0.0,0.0,0.0,0.0,0.0,0.0,0.0,0.0,0.0,-5.578,-5.9204,-5.9011,-6.0319,-6.0204,0.0,0.0,0.0,0.0,0.0,0.0,0.0,0.0,0.0,-7.5166,-7.7339,-7.9313,-8.1093,-8.3461,-8.4471,-8.4106,-8.5727,-8.6146,-8.5462,-8.5525,-8.555,-8.555,-8.56,-8.3952,-8.0902,-7.6901,-7.3433,-7.0417,0.0,0.0,0.0,0.0,0.0,-6.7075,-7.0113,0.0,0.0,0.0,0.0,0.0,0.0,0.0,0.0,0.0,0.0,0.0,0.0,0.0,0.0,-6.9707,-6.9843,-6.9644,-6.9119,-6.5874,-6.1667,0.0,-5.5831,-5.4179,-4.9444,0.0,0.0,0.0,0.0,-5.7703,-6.13,-6.453,-6.6806,-6.7614,-6.7614,-6.7473,-6.7202,-6.6253,-6.5191,-6.411,-6.2269,-6.0455,-5.8694,-5.5089,-5.1625,0.0,0.0,0.0,0.0,0.0,0.0,0.0,0.0,0.0,0.0,0.0,0.0,0.0,0.0,0.0,0.0,0.0,0.0,0.0,0.0,0.0,0.0,0.0,0.0,0.0,0.0,0.0,0.0,-5.9627,-6.2832,-6.132,-6.432,-6.4897,0.0,0.0,0.0,0.0,0.0,0.0,-7.336,-7.5515,-7.796,-8.0831,-8.2681,-8.4509,-8.6375,-8.7693,-8.8136,-8.768,-8.8504,-8.841,-8.7587,-8.7764,-8.7687,-8.7498,-8.7705,-8.7595,-8.6792,-8.1403,-7.8218,-7.6422,-7.3284,-7.195,-7.193,-7.3162,-7.2932,-7.2569,-7.6325,-7.6517,-7.4789,-7.2895,0.0,-6.8594,-6.3719,0.0,0.0,0.0,0.0,-6.4644,-6.7374,0.0,-6.988,-7.1471,-7.1719,-7.1578,-7.1329,-7.0367,-6.7834,0.0,-6.1227,-5.9575,-5.3922,0.0,0.0,0.0,0.0,-5.9722,-6.2732,-6.5118,-6.6733,-6.732,-6.6843,-6.6515,-6.6593,-6.5396,-6.4379,-6.366,-6.2902,-6.1729,-6.0021,-5.8274,-5.5637,-5.2058,0.0,0.0,0.0,0.0,0.0,0.0,0.0,0.0,0.0,0.0,0.0,0.0,0.0,0.0,0.0,0.0,0.0,0.0,0.0,0.0,0.0,0.0,0.0,0.0,0.0,0.0,0.0,0.0,0.0,-6.5667,-6.9283,0.0,0.0,0.0,0.0,-7.1629,-7.336,-7.6169,-8.0362,-8.1439,-8.3462,-8.6868,-8.7077,-8.8,-8.9844,-9.0608,-9.1118,-9.1325,-9.2076,-9.1649,-9.0231,-9.085,-9.0721,-8.9942,-9.0666,-9.0485,-8.9409,-8.5225,-8.2565,-8.1003,-7.9246,-7.7548,-7.6213,-7.709,-7.722,-7.7077,-7.8092,-7.7478,-7.6537,-7.8606,-7.6239,-7.2379,-7.1292,-6.8683,0.0,0.0,-6.73,-6.916,-7.0443,-7.0983,-7.1526,-7.2964,-7.2879,-7.2239,-7.1439,-7.1219,-7.0183,0.0,-6.4934,-6.2805,-5.9368,0.0,-5.7703,-5.7703,-5.9171,-6.119,-6.3686,-6.5485,-6.6512,-6.6549,-6.6512,-6.6072,-6.5016,-6.4561,-6.3992,-6.32,-6.2486,-6.1851,-6.1209,-5.9293,-5.7357,-5.5472,-5.0471,0.0,0.0,0.0,0.0,0.0,0.0,0.0,0.0,0.0,0.0,0.0,0.0,0.0,0.0,0.0,0.0,0.0,0.0,0.0,0.0,0.0,0.0,0.0,0.0,0.0,0.0,0.0,0.0,-7.0706,-7.4014,0.0,-7.186,-7.3399,-7.5515,-7.7746,-7.8977,-8.1208,-8.4939,-8.644,-8.7801,-8.911,-9.0625,-9.1354,-9.1067,-9.1756,-9.1663,-9.0916,-9.1141,-9.0767,-8.9771,-8.9461,-8.9167,-8.8869,-8.8613,-8.8596,-8.8595,-8.6477,-8.5148,-8.4276,-8.2625,-8.1244,-8.0229,-8.0536,-8.029,-7.9785,-8.0054,-7.9845,-7.9347,-7.9046,-7.7493,-7.5357,-7.3607,-7.1956,-7.0569,-7.0111,-7.0239,-7.0754,-7.1726,-7.2032,-7.2186,-7.2687,-7.2658,-7.2422,-7.2129,-7.2092,-7.1431,-6.9229,-6.7504,-6.5375,-6.2108,-6.1741,-6.1557,-6.0493,-6.2144,-6.4053,-6.5448,-6.6586,-6.7063,-6.6549,-6.6035,-6.5262,-6.4123,-6.3739,-6.3083,-6.2081,-6.1529,-6.0926,-6.0176,-5.8942,-5.7242,-5.4972,-5.2049,-4.7923,0.0,0.0,0.0,0.0,0.0,0.0,0.0,0.0,0.0,0.0,0.0,0.0,0.0,0.0,0.0,0.0,0.0,0.0,0.0,0.0,0.0,0.0,0.0,0.0,0.0,0.0,-7.2629,-7.3783,-7.7361,-7.8784,-7.6245,-7.8323,-8.0669,-8.2631,-8.3555,-8.5363,-8.8517,-8.9512,-9.028,-9.0917,-9.2501,-9.2897,-9.1989,-9.2939,-9.2841,-9.171,-9.1975,-9.153,-9.049,-8.9707,-8.931,-8.9224,-8.8405,-8.8437,-8.906,-8.7814,-8.7172,-8.6769,-8.4848,-8.3461,-8.2511,-8.2769,-8.2131,-8.1133,-8.0865,-8.0888,-8.0853,-7.925,-7.8331,-7.7522,-7.578,-7.471,-7.401,-7.3391,-7.2795,-7.241,-7.2724,-7.2658,-7.2496,-7.2496,-7.2496,-7.2496,-7.2496,-7.2496,-7.2018,-7.0403,-6.9229,-6.754,-6.4567,-6.453,-6.442,-6.3062,-6.4494,-6.5888,-6.6439,-6.7173,-6.7353,-6.6418,-6.5724,-6.4709,-6.3326,-6.2875,-6.2213,-6.1185,-6.0648,-6.0089,-5.9511,-5.8434,-5.6934,-5.4934,-5.2356,-4.8856,-4.4355,0.0,0.0,0.0,0.0,0.0,0.0,0.0,0.0,0.0,0.0,0.0,0.0,0.0,0.0,0.0,0.0,0.0,0.0,0.0,0.0,0.0,0.0,0.0,-6.709,-7.1668,-7.4861,-7.4976,-7.9361,-8.1439,-7.9015,-8.2554,-8.5324,-8.617,-8.7017,-8.8594,-9.1077,-9.0564,-9.0972,-9.2573,-9.2672,-9.2751,-9.283,-9.425,-9.467,-9.4047,-9.4768,-9.4262,-9.2747,-9.1908,-9.1446,-9.1301,-9.0409,-9.0426,-9.0929,-8.9294,-8.8602,-8.8318,-8.6009,-8.4231,-8.3054,-8.3676,-8.2832,-8.1231,-8.0411,-8.0573,-8.091,-7.968,-7.9111,-7.8827,-7.8132,-7.721,-7.6199,-7.5631,-7.4891,-7.4139,-7.3541,-7.2943,-7.2496,-7.2496,-7.2496,-7.2496,-7.2496,-7.2496,-7.2018,-7.0403,-7.011,-6.9339,-6.6953,-6.6549,-6.6256,-6.5485,-6.6035,0.0,-6.6549,-6.7237,-6.7277,-6.6086,-6.5595,-6.4513,-6.2523,-6.203,-6.143,-6.0599,-5.9873,-5.9462,-5.9473,-5.7857,-5.6599,-5.5703,-5.1587,-4.8663,-4.6962,0.0,0.0,0.0,0.0,0.0,0.0,0.0,0.0,0.0,0.0,0.0,0.0,0.0,0.0,0.0,0.0,0.0,0.0,0.0,0.0,0.0,0.0,-7.0706,-7.236,-7.5399,-7.8361,-8.0862,-8.2939,-8.4401,-8.4901,-8.6017,-8.7325,-8.8748,-8.9094,-8.9857,-9.1267,-9.2218,-9.2983,-9.3511,-9.4686,-9.4812,-9.3763,-9.4161,-9.3699,-9.2431,-9.2662,-9.2517,-9.206,-9.0654,-8.9975,-8.9867,-8.8455,-8.7978,-8.8108,-8.7537,-8.6667,-8.5742,-8.579,-8.5202,-8.4383,-8.4547,-8.3525,-8.1913,-8.1107,-8.0959,-8.1061,-8.0698,-8.0545,-8.0256,-7.9018,-7.8008,-7.6978,-7.531,-7.4286,-7.3516,-7.2889,-7.2602,-7.2496,-7.2496,-7.2496,-7.2496,-7.2496,-7.2496,-7.2018,-7.0403,-7.011,-6.9522,-6.7687,-6.7357,-6.7283,-6.7063,0.0,0.0,-6.7357,-6.7911,-6.7531,-6.568,-6.5705,-6.4776,-6.2053,-6.149,-6.0845,-5.9734,-5.8699,-5.8298,-5.8615,-5.7588,-5.6599,-5.5703,-5.2741,-5.0394,0.0,0.0,0.0,0.0,0.0,0.0,0.0,0.0,0.0,0.0,0.0,0.0,0.0,0.0,0.0,0.0,0.0,0.0,0.0,0.0,0.0,0.0,-7.0898,-7.5053,-7.7092,-7.8669,-8.0592,-8.3285,-8.467,-8.594,-8.7286,-8.8055,-8.8863,-8.9808,-9.0594,-9.1392,-9.2309,-9.3251,-9.4011,-9.4426,-9.5368,-9.5295,-9.413,-9.4398,-9.3953,-9.2756,-9.2756,-9.2756,-9.2686,-9.1098,-9.0513,0.0,-8.9088,-8.8548,-8.8699,-8.7953,-8.7125,0.0,0.0,0.0,0.0,0.0,-8.3466,-8.267,-8.1516,-8.1093,-8.1061,-8.0767,-8.066,-8.0458,-7.9358,-7.8406,-7.7417,-7.6208,-7.4845,-7.3675,-7.3378,-7.2899,-7.2496,-7.2496,-7.2496,-7.2496,-7.2496,-7.2496,-7.2018,-7.0403,0.0,0.0,-6.8008,-6.7687,-6.7687,-6.7687,-6.7687,-6.7757,0.0,-6.8011,-6.7491,-6.6403,-6.6026,-6.4961,-6.2766,-6.2069,0.0,0.0,0.0,-5.8195,-5.7769,-5.7291,0.0,0.0,0.0,0.0,0.0,0.0,0.0,0.0,-5.0125,-5.0087,0.0,0.0,0.0,0.0,0.0,0.0,0.0,0.0,0.0,0.0,0.0,0.0,0.0,0.0,0.0,0.0,-7.4861,-7.8438,-8.09,-8.1323,-8.1977,-8.3555,-8.5247,-8.6594,-8.744,-8.8979,-8.9923,-9.0056,-9.1556,-9.2808,-9.3561,0.0,0.0,0.0,0.0,-9.4842,-9.4102,-9.4768,-9.4718,-9.3991,-9.4075,-9.4102,-9.4037,-9.2436,-9.1978,-9.2421,-9.0852,-9.0447,-9.0857,-8.9384,-8.8629,-8.8244,-8.6161,-8.4567,-8.3345,-8.2776,-8.3044,0.0,0.0,0.0,0.0,-8.0427,-8.0201,-8.0125,-7.9556,-7.8684,-7.7798,-7.757,-7.6035,-7.4385,-7.4177,-7.3327,-7.2496,-7.2496,-7.2496,-7.2496,-7.2496,-7.2496,-7.2018,-7.0403,-7.011,-6.9596,-6.8008,-6.7687,-6.7687,-6.7687,-6.7687,0.0,-6.844,-6.7789,-6.7353,-6.7507,0.0,0.0,-6.4083,-6.3077,-6.2216,-6.1453,-6.0214,-5.8819,-5.733,-5.7368,-5.7368,-5.7291,-5.7291,-5.7627,-5.8319,-5.8319,-5.8357,-5.8319,-5.2895,-5.2395,0.0,0.0,0.0,0.0,0.0,0.0,0.0,0.0,0.0,0.0,0.0,0.0,0.0,0.0,0.0,-7.3476,-7.6976,-7.9977,-8.1823,-8.267,-8.3478,-8.4516,-8.6132,-8.7478,-8.8363,-8.9325,-9.021,-9.0902,-9.1902,-9.2565,-9.2809,-9.4078,0.0,-9.5212,-9.5189,-9.4842,-9.4102,-9.4238,-9.3935,-9.3202,0.0,0.0,-9.4027,-9.2381,-9.1671,-9.1709,-9.0042,-8.9427,-8.9425,-8.8444,-8.7505,-8.6655,-8.5571,-8.5002,-8.4535,-8.3112,-8.3044,-8.3362,-8.167,-8.1093,-8.1077,-8.0959,-8.0888,-8.0871,-8.075,-8.0093,0.0,-7.7407,-7.616,-7.4884,-7.3278,-7.2686,-7.2496,-7.2496,-7.2496,-7.2496,-7.2496,-7.2496,-7.2018,-7.0403,-7.011,-6.9596,-6.8008,-6.7687,-6.7687,-6.7687,-6.7687,-6.7878,-6.844,-6.8135,-6.7628,-6.7014,-6.6511,-6.5707,-6.4403,-6.2929,-6.1818,-6.1355,-6.0163,-5.9358,-5.9011,-5.9704,-5.9742,-5.9011,-5.9011,-5.8781,-5.8319,-5.8319,-5.8627,-5.9204,-5.7434,-5.7011,0.0,0.0,0.0,0.0,0.0,0.0,0.0,0.0,0.0,0.0,0.0,-6.4589,0.0,0.0,-7.4284,-7.6861,-7.9054,-8.1054,-8.2708,-8.3324,-8.3901,-8.4786,-8.6748,-8.8209,-8.8671,-8.9825,-9.0748,-9.1171,-9.2364,-9.3101,-9.3156,-9.4734,-9.5675,-9.5741,-9.5385,-9.501,-9.463,-9.4292,-9.4102,-9.4102,-9.4476,-9.4614,-9.4502,-9.3297,-9.2485,-9.1963,-9.0765,-9.0204,-9.004,-8.876,-8.729,-8.5789,-8.53,-8.532,-8.5397,-8.3711,-8.3333,-8.3362,-8.167,-8.1093,-8.1093,-8.1093,-8.1093,-8.1093,-8.1093,-8.0208,-7.8891,-7.7588,-7.6306,-7.4918,-7.335,-7.3172,-7.325,-7.263,-7.2943,-7.325,-7.263,-7.277,-7.2462,-7.0808,-7.0513,-7.0061,-6.8724,-6.8511,-6.8392,-6.8148,-6.8357,-6.8705,-6.9251,-6.8433,-6.7762,-6.7621,-6.6736,-6.59,-6.5207,-6.3574,-6.2351,-6.1732,-6.0724,-6.0165,-6.0165,-6.055,-6.0589,-6.0165,-6.0165,-5.9935,-5.955,-5.955,-5.9742,-6.0127,-5.9742,-5.955,0.0,0.0,0.0,0.0,0.0,0.0,0.0,-5.9742,-6.1243,-6.3782,-6.6859,-6.986,-7.2437,-7.5014,-7.74,-7.9477,-8.0516,-8.1631,-8.3131,-8.3362,-8.367,-8.4555,-8.6901,-8.8517,-8.8671,-9.0056,-9.1018,-9.121,-9.2749,-9.371,-9.371,-9.5365,-9.6288,-9.6288,-9.5576,-9.5189,-9.5189,-9.4604,-9.4604,-9.5189,-9.5341,-9.5261,-9.498,-9.4185,-9.3346,-9.2462,-9.1676,-9.1124,-9.0594,-8.9248,-8.7446,-8.553,-8.5367,-8.5531,-8.5654,-8.3994,-8.349,-8.3362,-8.167,-8.1093,-8.1093,-8.1093,-8.1093,-8.1093,-8.1093,-8.0131,-7.8823,-7.7964,-7.6673,-7.5285,-7.394,-7.3934,-7.4049,-7.3104,-7.359,-7.4026,-7.3077,-7.3075,-7.2832,-7.1231,-7.0893,-7.0448,-6.9348,-6.9333,-6.9292,-6.875,-6.9021,-6.9511,-7.0044,-6.8629,-6.7798,-6.8358,-6.6898,-6.582,-6.5667,-6.4359,-6.3128,-6.2178,-6.1435,-6.0973,-6.0819,-6.0781,-6.0781,-6.0781,-6.0781,-6.0781,-6.0781,-6.0781,-6.0781,-6.0781,-6.0781,-6.0781,-5.401,-5.4664,-5.6165,-5.9204,-5.9511,-6.105,0.0,0.0,-6.9167,-7.1706,-7.4322,-7.6053,-7.563,-7.7669,-7.9477,-7.9746,-8.0516,-8.14,-8.2324,-8.2439,-8.2747,-8.3632,-8.5978,-8.7863,-8.8632,-8.9517,-9.0364,-9.1133,-9.2749,-9.371,-9.371,-9.5365,-9.6288,-9.6288,-9.5576,-9.5189,-9.5189,-9.5119,-9.5119,-9.5189,-9.5862,-9.577,-9.498,-9.4117,-9.3271,-9.2441,-9.158,-9.0349,-8.8979,-8.8786,-8.7658,-8.6017,-8.5992,-8.5582,-8.4852,-8.3276,-8.308,-8.3362,-8.167,-8.1093,-8.1093,-8.1093,-8.1093,-8.1093,-8.1093,-8.0977,-8.036,-7.8308,-7.755,-7.6884,-7.4757,-7.4249,-7.4271,-7.4139,-7.4206,-7.4249,-7.4117,-7.3536,-7.2635,-7.124,-7.0743,-7.0116,-6.8809,-6.9393,-6.9829,-6.9292,-6.9272,-6.9511,-7.0044,-6.8629,-6.7798,-6.8358,-6.6898,-6.559,-6.482,-6.4589,-6.3782,-6.2216,-6.2024,-6.1601,-6.0819,-6.0781,-6.0781,-6.0781,-6.0781,-6.0781,-6.0781,-6.0781,-6.0781,-6.0781,-6.0781,-6.0781,-5.9204,-6.0242,-6.1358,-6.3281,-6.4974,-6.7205,-7.1283,-7.2399,-7.3206,-7.5284,-7.7323,-7.8631,-7.8284,-7.9515,-8.0708,0.0,-8.117,-8.1554,-8.2862,-8.2631,-8.2631,-8.3478,-8.4516,-8.5901,-8.7748,-8.9133,-9.0287,-9.1133,-9.2749,-9.371,-9.371,-9.5365,-9.6288,-9.6288,-9.5576,-9.5407,-9.5841,-9.5407,-9.5407,-9.5841,-9.6136,-9.5826,-9.498,-9.4095,-9.2979,-9.171,-9.0825,-8.9787,-8.8671,-8.8132,-8.7209,-8.6094,-8.6094,-8.5632,-8.4753,-8.3606,-8.3043,-8.267,-8.1516,-8.1093,-8.1093,-8.1093,-8.1093,-8.1093,-8.1093,-8.0746,-8.0091,-7.8767,-7.7941,-7.7096,-7.5418,-7.5131,-7.5111,-7.4443,-7.4827,-7.5092,-7.4443,-7.4244,-7.3761,-7.2233,-7.1805,-7.1332,-7.0093,-7.0282,-7.0494,-7.0266,-7.0233,-7.0314,-7.0524,-6.9121,-6.7798,-6.7038,-6.632,-6.5743,-6.5397,-6.4897,-6.4089,-6.2858,-6.237,-6.1716,-6.0819,-6.0781,-6.0781,-6.0781,-6.0781,-6.0781,-6.0781,-6.0781,-6.0781,-6.0781,-6.0781,-6.0781,-6.2551,-6.4089,-6.559,-6.6936,-6.9629,-7.2245,-7.336,-7.4899,-7.6399,-7.74,-7.8784,-7.9823,-7.9823,-8.0323,-8.1093,-8.2131,-8.1823,-8.1862,-8.3054,-8.2708,-8.2439,-8.2862,-8.3093,-8.4055,-8.6132,-8.7863,-8.9402,-9.0748,-9.2172,-9.321,-9.3672,-9.5134,-9.6057,-9.6288,-9.5762,-9.5741,-9.6288,-9.5762,-9.5762,-9.6288,-9.6288,-9.5711,-9.4595,-9.3518,-9.2364,-9.1171,-9.0287,-8.944,-8.8632,-8.7748,-8.6901,-8.6094,-8.6094,-8.5478,-8.4478,-8.3824,-8.3054,-8.217,-8.1362,-8.1093,-8.1093,-8.1093,-8.1093,-8.1093,-8.1093,-8.0669,-8.003,-7.9347,-7.8601,-7.77,-7.6332,-7.6164,-7.6094,-7.5,-7.5417,-7.5772,-7.4962,-7.4883,-7.4601,-7.3202,-7.2699,-7.2199,-7.1213,-7.0944,-7.0898,-7.0898,-7.0898,-7.0898,-7.0898,-6.9436,-6.7782,-6.609,-6.5897,-6.5897,-6.5897,-6.532,-6.4589,-6.3705,-6.2897,-6.205,-6.1166,-6.0935,-6.0781,-6.0781,-6.0781,-6.0781,-6.0781,-6.0781,-6.0781,-6.0781,-6.0781,-6.0781,-6.232,-6.4525,-6.7628,-7.0129,-7.2668,-7.5014,-7.6746,-7.8438,-7.9438,-7.8631,-7.9169,-7.9823,-7.9823,-7.9823,-8.04,-8.2016,-8.2285,-8.2285,-8.2324,-8.2324,-8.2016,-8.1285,-8.1862,-8.2708,0.0,-8.5247,-8.7248,-8.9748,-9.0787,-9.1979,-9.3595,-9.4557,-9.5441,-9.6288,-9.6269,-9.6269,-9.6288,-9.6269,-9.6269,-9.6288,-9.6288,-9.5403,-9.3672,-9.2018,-9.1248,-9.1171,-9.0287,-8.944,-8.8632,-8.7748,-8.6901,-8.6094,-8.6094,-8.5093,-8.3632,-8.3593,-8.3054,-8.217,-8.1362,-8.1093,-8.1093,-8.1093,-8.1093,-8.1093,-8.1093,-8.1093,-8.09,-8.0038,-7.9731,-7.9346,-7.7677,-7.7231,-7.7053,-7.6178,-7.5962,-7.6015,-7.5947,-7.5293,-7.4535,-7.3955,-7.2977,-7.2039,-7.1494,-7.1114,-7.0898,-7.0898,-7.0898,-7.0898,-7.0898,-6.9436,-6.7782,-6.609,-6.5897,-6.5897,-6.5897,-6.5859,-6.5474,-6.4628,-6.3743,-6.2897,-6.2101,-6.1243,-6.0781,-6.0781,-6.0781,-6.0781,-6.0781,-6.0781,-6.0781,-6.0781,-6.0781,-6.0781,-6.5743,-6.8321,-7.1091,-7.363,-7.5745,-7.7515,-7.8707,-7.94,-7.9554,-7.8669,-7.8323,-7.7977,-7.74,-7.8207,-7.9323,-8.0477,-8.1554,-8.2285,-8.2285,-8.2785,-8.2631,-8.1246,-8.1823,0.0,0.0,0.0,0.0,-8.894,-9.0402,-9.1941,-9.3595,-9.4518,-9.5403,-9.6288,-9.6288,-9.6288,-9.6288,-9.6288,-9.6288,-9.6288,-9.5711,-9.4826,-9.3672,-9.2556,-9.1748,-9.1171,-9.0287,-8.944,-8.8632,-8.7748,-8.6901,-8.6094,-8.6094,-8.5093,-8.3593,-8.3593,-8.2708,-8.1477,-8.1208,-8.1093,-8.1093,-8.1093,-8.1093,-8.1093,-8.1093,-8.1093,-8.1054,-8.0746,-8.0246,-7.9554,-7.84,-7.7707,-7.7092,-7.6207,-7.6015,-7.6015,-7.6015,-7.5784,-7.5163,-7.3891,-7.3313,-7.2626,-7.1304,-7.0969,-7.0898,-7.0898,-7.0898,-7.0514,-6.9398,-6.8744,-6.7782,-6.609,-6.5897,-6.5897,-6.5897,-6.5897,-6.5513,-6.4666,-6.432,-6.3551,-6.2178,-6.1831,-6.1408,-6.0819,-6.0781,-6.0781,-6.0781,-6.0781,-6.0781,-6.0781,-6.0781,-6.1089,-6.9206,-7.1629,-7.3783,-7.663,-7.8169,-7.9092,-7.9669,-7.9554,-7.8938,-7.7438,-7.6245,-7.5322,-7.4745,-7.5284,-7.6553,-7.8938,-8.0516,-8.1708,-8.2631,-8.3516,-8.3555,-8.217,-8.2439,-8.2901,0.0,0.0,0.0,-8.8094,-8.9787,-9.1595,-9.3595,-9.421,-9.5057,-9.6249,-9.6288,-9.6288,-9.6288,-9.6288,-9.6134,-9.5826,-9.4941,-9.4095,-9.3249,-9.2402,-9.1748,-9.1171,-9.0287,-8.944,-8.8632,-8.7748,-8.6901,-8.6094,-8.6094,-8.5093,-8.3593,-8.3593,-8.2554,-8.1093,-8.1093,-8.1093,-8.1093,-8.1093,-8.1093,-8.1093,-8.1093,-8.1093,-8.1093,-8.1093,-8.0708,-7.9977,-7.8784,-7.813,-7.7438,-7.6284,-7.6015,-7.6015,-7.6015,-7.6015,-7.5668,-7.4591,-7.3899,-7.3129,-7.2014,-7.1321,-7.0898,-7.0898,-7.0898,-7.0283,-6.8629,-6.8385,-6.7782,-6.609,-6.5897,-6.5897,-6.5897,-6.5897,-6.5667,-6.5089,-6.4782,-6.4128,-6.3051,-6.2409,-6.1831,-6.1293,-6.0973,-6.0781,-6.0781,-6.0781,-6.0781,-6.0819,-6.1127,-6.1408,-7.2437,-7.4245,-7.5745,-7.9054,-7.9823,-7.9785,-7.9746,-7.8977,-7.7515,-7.5014,-7.3129,-7.1898,0.0,0.0,-7.2552,-7.74,-7.9169,-8.0785,-8.317,-8.4362,-8.4632,0.0,0.0,0.0,0.0,0.0,0.0,-8.7363,0.0,-9.0941,-9.348,-9.3672,-9.448,-9.6172,-9.6288,-9.6288,-9.6288,-9.6249,-9.5826,-9.498,-9.4057,-9.3249,-9.2479,-9.1595,-9.121,-9.1171,-9.0287,-8.944,-8.8632,-8.7748,-8.6901,-8.6094,-8.6094,-8.5093,-8.3593,-8.3593,-8.2554,-8.1093,-8.1093,-8.1093,-8.1093,-8.1093,-8.1093,-8.1093,-8.1093,-8.1093,-8.1093,-8.1093,-8.1093,-8.0708,-7.8938,-7.8477,-7.8092,-7.6399,-7.6015,-7.6015,-7.6015,-7.6015,-7.5976,-7.5938,-7.4591,-7.3437,-7.3346,-7.2014,-7.0898,-7.0898,-7.0898,-7.0283,-6.8629,-6.8385,-6.7782,-6.609,-6.5897,-6.5897,-6.5897,-6.5897,-6.5897,-6.5897,-6.5128,-6.4666,-6.4589,-6.3051,-6.2178,-6.2101,-6.1281,-6.0819,-6.0781,-6.0819,-6.0858,-6.0896,-6.1755,-6.1704,-7.3591,-7.6399,-7.8861,-8.04,-8.0285,-7.9631,-7.8977,-7.6746,-7.4207,-7.2283,-7.0014,-6.8013,-6.6782,0.0,0.0,-7.3591,-7.8246,0.0,-8.2554,-8.4478,0.0,-8.467,-8.5093,-8.5555,-8.5786,-8.6978,0.0,0.0,-8.8748,-9.0133,-9.2672,-9.3364,-9.421,-9.5288,-9.5942,-9.6288,-9.6288,-9.5672,-9.5211,-9.498,-9.3518,-9.271,-9.2479,-9.1595,-9.121,-9.1171,-9.0287,-8.944,-8.8632,-8.7748,-8.6901,-8.6094,-8.6094,-8.5093,-8.3593,-8.3593,-8.2554,-8.1093,-8.1093,-8.1093,-8.1093,-8.1093,-8.1093,-8.1093,-8.1093,-8.1093,-8.1093,-8.1093,-8.1093,-8.0708,-7.8938,-7.8477,-7.8092,-7.6399,-7.6015,-7.6015,-7.6015,-7.6015,-7.5822,-7.5168,-7.3668,-7.2322,-7.1668,-7.1206,-7.0898,-7.0898,-7.0898,-7.0283,-6.8629,-6.8385,-6.7782,-6.609,-6.5897,-6.5897,-6.5897,-6.5897,-6.5897,-6.5897,-6.5705,-6.5282,-6.4628,-6.4205,-6.3358,-6.2139,-6.187,-6.1447,-6.0781,-6.1447,-6.1793,-6.1793,-6.2627,-6.2858,-7.6245,-7.8631,-8.04,-8.0516,-7.9862,-7.8631,-7.6284,-7.3707,-7.0937,-6.7705,-6.559,-6.382,-6.2127,-6.5359,-6.8898,0.0,0.0,0.0,-8.2554,-8.4439,-8.567,0.0,-8.6401,-8.6978,-8.7709,-8.8325,-8.9017,0.0,-8.9787,-9.0594,-9.2402,-9.3249,-9.3903,-9.4403,-9.5249,-9.5557,-9.5172,-9.5057,-9.4634,-9.3903,-9.2941,-9.2287,-9.1902,-9.1441,-9.0979,-9.0594,0.0,-8.9248,-8.8094,-8.7594,-8.6901,-8.6094,-8.6094,-8.5093,-8.3593,-8.3593,-8.2554,-8.1093,-8.1093,-8.1093,-8.1093,-8.1093,-8.1093,-8.1093,-8.1093,-8.1093,-8.1093,-8.1093,-8.1093,-8.0785,-7.94,-7.8784,-7.8169,-7.6861,-7.6284,-7.6015,-7.6015,-7.6015,-7.5745,-7.4861,-7.3668,-7.2476,-7.1629,-7.1168,-7.0898,-7.0898,-7.0898,-7.0437,-6.9129,-6.8629,-6.7782,-6.609,-6.5897,-6.5897,-6.5897,-6.5897,-6.5897,-6.5897,-6.5897,-6.5667,-6.5205,-6.4782,-6.4166,-6.3205,-6.282,-6.2397,-6.1897,-6.2397,-6.2627,-6.2666,-6.3474,-6.3666,-7.9169,-8.0439,-8.09,-8.0015,-7.8977,-7.7092,-7.2976,-7.036,-6.7513,-6.2743,-6.087,-5.9665,-5.8204,-6.0819,-6.4551,-6.8821,0.0,-7.7784,-8.2862,-8.4362,-8.5555,-8.7363,-8.7555,-8.8248,-8.9902,-8.944,-8.9633,-9.1095,-9.121,-9.1518,-9.2287,-9.3095,-9.3595,-9.371,-9.4441,-9.4441,-9.371,-9.4326,-9.3941,-9.2479,-9.2364,-9.1941,-9.121,-9.1095,-9.0633,-8.9902,0.0,0.0,-8.7401,-8.7286,-8.6786,-8.6094,-8.6094,-8.5093,-8.3593,-8.3593,-8.2554,-8.1093,-8.1093,-8.1093,-8.1093,-8.1093,-8.1093,-8.1093,-8.1093,-8.1093,-8.1093,-8.1093,-8.1093,-8.09,-8.0015,-7.9131,-7.8284,-7.7476,-7.663,-7.6015,-7.6015,-7.6015,-7.5745,-7.4861,-7.4053,-7.3206,-7.236,-7.1475,-7.0898,-7.0898,-7.0898,-7.0591,-6.9821,-6.8936,-6.7821,-6.6244,-6.5974,-6.5897,-6.5897,-6.5897,-6.5897,-6.5897,-6.5897,-6.5897,-6.5897,-6.5166,-6.4705,-6.4589,-6.3858,-6.3423,-6.3308,-6.3423,-6.3462,-6.3512,-6.4359,-6.432,-7.9477,-8.0439,-8.09,-8.0015,-7.8092,-7.5515,-7.1937,-6.7628,0.0,-6.0589,-5.8165,-5.6511,-5.6203,-5.9511,-6.3705,-6.7936,-7.2783,-7.7784,-8.2862,-8.4362,-8.5786,0.0,-8.8479,-8.9133,-9.0825,-9.0864,0.0,0.0,0.0,0.0,-9.1441,-9.2249,-9.3018,-9.3672,-9.3826,-9.3826,-9.371,-9.3172,-9.2787,-9.2479,-9.1787,-9.1364,-9.1171,-9.0441,-9.0056,-8.9825,0.0,0.0,-8.7325,-8.6632,-8.6247,-8.6094,-8.6094,-8.5093,-8.3593,-8.3593,-8.2554,-8.1093,-8.1093,-8.1093,-8.1093,-8.1093,-8.1093,-8.1093,-8.1093,-8.1093,-8.1093,-8.1093,-8.1093,-8.09,-8.0015,-7.9131,-7.8284,-7.7476,-7.663,-7.6015,-7.6015,-7.6015,-7.5745,-7.4861,-7.4053,-7.3206,-7.236,-7.1475,-7.0898,-7.0898,-7.0898,-7.0591,-6.9821,-6.8936,-6.8013,-6.7013,-6.6282,-6.5897,-6.5897,-6.5897,-6.5897,-6.5897,-6.5897,-6.5897,-6.5897,-6.5743,-6.532,-6.4628,-6.4436,-6.4012,-6.3308,-6.4012,-6.4359,-6.4397,-6.5282,-6.5205,-8.0246,-8.0785,-8.0785,-7.9438,-7.6899,-7.3476,-6.8706,0.0,0.0,-5.6357,-5.4934,-5.4126,-5.3241,-5.6934,-6.105,-6.3974,-6.8321,-7.3437,-7.9477,-8.1054,-8.317,-8.7517,-8.8402,-8.9363,-9.1056,-9.121,0.0,0.0,0.0,0.0,-9.121,-9.1595,-9.221,-9.3056,-9.3095,-9.2864,-9.2402,-9.2479,-9.2287,-9.1825,-9.1402,-9.121,-9.1171,-9.0325,-8.9671,-8.921,0.0,0.0,-8.6709,-8.6286,-8.6094,-8.6094,-8.6094,-8.5093,-8.3593,-8.3593,-8.2554,-8.1093,-8.1093,-8.1093,-8.1093,-8.1093,-8.1093,-8.1093,-8.1093,-8.1093,-8.1093,-8.1093,-8.1093,-8.1016,-8.0592,-7.9477,-7.84,-7.8015,-7.6938,-7.6015,-7.6015,-7.6015,-7.5861,-7.5476,-7.4707,-7.386,-7.3014,-7.2168,-7.1398,-7.0975,-7.0898,-7.0744,-7.036,-6.959,-6.859,-6.7244,-6.6744,-6.6359,-6.5936,-6.5897,-6.5897,-6.5897,-6.5897,-6.5897,-6.5897,-6.5897,-6.5705,-6.5282,-6.5282,-6.5051,-6.4666,-6.5051,-6.5282,-6.5282,-6.5705,-6.5667,-8.0592,-8.0977,-8.0669,-7.8938,-7.5822,-7.1706,-6.5936,-6.155,-5.7396,-5.2846,-5.2154,-5.2087,-5.1125,-5.4395,-5.805,0.0,-6.432,-6.9283,-7.6322,-7.8323,-8.1131,0.0,-8.8171,0.0,-9.1056,-9.121,0.0,0.0,0.0,0.0,0.0,-9.121,-9.1518,-9.221,-9.221,-9.1902,-9.121,-9.1864,-9.1864,-9.121,-9.121,-9.121,-9.1171,-9.0133,-8.9286,-8.8632,0.0,0.0,0.0,-8.6094,-8.6094,-8.6094,-8.6094,-8.5093,-8.3593,-8.3593,-8.2554,-8.1093,-8.1093,-8.1093,-8.1093,-8.1093,-8.1093,-8.1093,-8.1093,-8.1093,-8.1093,-8.1093,-8.1093,-8.1093,-8.1093,-7.9823,-7.84,-7.8054,-7.6938,-7.6015,-7.6015,-7.6015,-7.6015,-7.6015,-7.5284,-7.4514,-7.386,-7.2899,-7.1975,-7.1283,-7.1014,-7.0898,-7.0898,-7.036,-6.936,-6.7821,-6.7321,-6.6821,-6.6205,-6.6013,-6.5897,-6.5897,-6.5897,-6.5897,-6.5897,-6.5897,-6.5897,-6.5897,-6.5897,-6.5897,-6.5897,-6.5897,-6.5897,-6.5897,-6.5897,-6.5897,-7.9669,-8.0516,-8.0669,-7.8938,-7.5361,-7.0975,-6.5782,0.0,-5.5241,-5.2462,-5.0741,-5.0164,-5.1538,-5.2818,-5.5472,-6.1062,-6.4243,-6.8629,-7.6245,-7.9361,-8.2477,-8.6863,0.0,0.0,-9.1056,0.0,0.0,0.0,0.0,0.0,0.0,-9.121,-9.1248,-9.1325,-9.1325,-9.1287,-9.121,-9.1287,-9.1287,-9.121,-9.121,-9.121,-9.1171,-8.9556,-8.8748,-8.8594,0.0,0.0,0.0,-8.6094,-8.6094,-8.6094,-8.6094,-8.5093,-8.3593,-8.3593,-8.2554,-8.1093,-8.1093,-8.1093,-8.1093,-8.1093,-8.1093,-8.1093,-8.1093,-8.1093,-8.1093,-8.1093,-8.1093,-8.1093,-8.1093,-7.9823,-7.813,-7.6592,-7.6092,-7.6015,-7.6015,-7.6015,-7.6015,-7.6015,-7.5284,-7.4668,-7.4591,-7.3245,-7.2168,-7.2091,-7.1398,-7.0898,-7.0898,-7.0821,-7.0437,-6.9552,-6.8052,-6.7051,-6.7013,-6.632,-6.5897,-6.5897,-6.5897,-6.5897,-6.5897,-6.5897,-6.5897,-6.5897,-6.5897,-6.5897,-6.5897,-6.5897,-6.5897,-6.5897,-6.5897,-6.5897,-7.8361,-7.9285,-7.9246,-7.8054,-7.4207,-6.936,-6.4243,-5.9242,-5.4818,-5.1818,-5.0664,-5.0394,-5.1048,-5.1856,-5.3703,-5.7588,-5.9561,-6.2858,-6.9513,-7.2629,-7.6361,-8.2131,-8.4939,0.0,0.0,0.0,0.0,0.0,0.0,0.0,0.0,-9.121,-9.121,-9.121,-9.121,-9.121,-9.121,-9.121,-9.121,-9.121,-9.121,-9.0941,-9.0402,-8.921,-8.8402,-8.7863,0.0,0.0,0.0,-8.6094,-8.6094,-8.6094,-8.6094,-8.5093,-8.3593,-8.3593,-8.2554,-8.1093,-8.1093,-8.1093,-8.1093,-8.1093,-8.1093,-8.1093,-8.1093,-8.1093,-8.1093,-8.1093,-8.1093,-8.1093,-8.1093,-7.9823,-7.8207,-7.7053,-7.6361,-7.6015,-7.6015,-7.6015,-7.6015,-7.6015,-7.5707,-7.5322,-7.4784,-7.3745,-7.2783,-7.2283,-7.1475,-7.0898,-7.0898,-7.0898,-7.0783,-7.0475,-6.936,-6.8436,-6.7936,-6.709,-6.6628,-6.6628,-6.6167,-6.5897,-6.5897,-6.5897,-6.5897,-6.5897,-6.5897,-6.5897,-6.5897,-6.5897,-6.5897,-6.5897,-6.5897,-6.5897,-7.5861,-7.7169,-7.7515,-7.6438,-7.2706,-6.7975,-6.287,-5.8396,-5.4472,-5.1327,-5.0481,-5.0404,-5.0635,-5.1356,-5.2654,-5.4972,-5.6703,-5.9742,-6.5436,-6.8667,-7.2668,0.0,0.0,0.0,0.0,0.0,0.0,0.0,0.0,0.0,0.0,-9.121,-9.121,-9.121,-9.121,-9.121,-9.121,-9.121,-9.121,-9.121,-9.121,-9.0748,-8.9863,-8.9056,-8.8209,0.0,0.0,0.0,0.0,-8.6094,-8.6094,-8.6094,-8.5863,-8.4863,-8.3555,-8.3324,-8.2324,-8.1093,-8.1093,-8.1093,-8.1093,-8.1093,-8.1093,-8.1093,-8.1093,-8.1093,-8.1093,-8.1093,-8.1093,-8.1054,-8.0785,-7.9592,-7.8284,-7.7476,-7.663,-7.6015,-7.6015,-7.6015,-7.6015,-7.6015,-7.6015,-7.5822,-7.5207,-7.4399,-7.3591,-7.2706,-7.1822,-7.1206,-7.0937,-7.0898,-7.0898,-7.0898,-7.0398,-6.9706,-6.8859,-6.7975,-6.7359,-6.7128,-6.6551,-6.6128,-6.5897,-6.5897,-6.5897,-6.5897,-6.5897,-6.5897,-6.5897,-6.5897,-6.5897,-6.5897,-6.5897,-6.5897,-7.1822,-7.4091,-7.563,-7.3976,-7.0975,-6.709,-6.1973,-5.755,-5.378,-5.125,-5.001,-4.9663,-5.0558,-5.1356,-5.2462,-5.4241,-5.728,-6.1243,-6.6359,-7.0014,0.0,0.0,0.0,0.0,0.0,0.0,0.0,0.0,0.0,0.0,0.0,0.0,-9.121,-9.121,-9.121,-9.121,-9.121,-9.121,-9.121,-9.121,-9.121,-9.0748,-8.9863,-8.9056,0.0,0.0,0.0,0.0,0.0,-8.6094,-8.6094,-8.6017,-8.5209,-8.4362,-8.3478,-8.2631,-8.1785,-8.1093,-8.1093,-8.1093,-8.1093,-8.1093,-8.1093,-8.1093,-8.1093,-8.1093,-8.1093,-8.1093,-8.1093,-8.09,-8.0054,-7.9169,-7.8284,-7.7476,-7.663,-7.6015,-7.6015,-7.6015,-7.6015,-7.6015,-7.6015,-7.6015,-7.5976,-7.5245,-7.4399,-7.363,-7.2745,-7.186,-7.1014,-7.0898,-7.0898,-7.0898,-7.0898,-7.0552,-6.9744,-6.8898,-6.8013,-6.7128,-6.709,-6.6744,-6.5936,-6.5897,-6.5897,-6.5897,-6.5897,-6.5897,-6.5897,-6.5897,-6.5897,-6.5897,-6.5897,-6.5897,-6.6551,-6.8436,-6.9513,-6.7859,-6.5743,-6.3051,-5.91,-5.628,-5.378,-5.125,-5.0481,-5.0366,-5.0635,-5.0894,-5.2587,-5.7165,-5.8819,-6.1281,0.0,0.0,0.0,0.0,0.0,0.0,0.0,0.0,0.0,0.0,0.0,0.0,0.0,0.0,-9.121,-9.121,-9.121,-9.121,-9.121,-9.121,-9.0902,-9.0325,-9.0325,-8.9556,-8.8171,-8.794,0.0,0.0,0.0,0.0,0.0,-8.6094,-8.5786,-8.5247,-8.5016,-8.4016,-8.267,-8.2401,-8.1785,-8.1093,-8.1093,-8.1093,-8.1093,-8.1093,-8.1093,-8.1093,-8.1093,-8.1093,-8.1093,-8.1093,-8.1093,-8.1054,-8.0746,-8.0054,-7.9169,-7.8323,-7.7476,-7.6746,-7.613,-7.6015,-7.6015,-7.6015,-7.6015,-7.6015,-7.6015,-7.5284,-7.463,-7.4361,-7.3091,-7.2091,-7.1822,-7.1283,-7.0898,-7.0898,-7.0898,-7.0783,-7.0552,-6.9744,-6.9167,-6.8898,-6.8321,-6.7628,-6.6744,-6.6705,-6.6436,-6.5897,-6.5897,-6.5897,-6.5897,-6.5897,-6.5897,-6.5897,-6.5897,-6.5897,-6.1858,-6.3935,-6.4936,-6.3935,-6.2358,-6.0331,-5.7214,-5.5203,-5.3395,-5.1174,-5.0712,-5.0712,-5.0712,-5.0933,-5.2472,-5.6472,-5.7934,-6.0319,0.0,0.0,0.0,0.0,0.0,0.0,0.0,0.0,0.0,0.0,0.0,0.0,0.0,0.0,-9.0248,-9.0248,-9.0864,-9.121,-9.121,-9.0864,-9.0441,-8.9902,-8.9594,-8.8748,-8.7401,0.0,0.0,0.0,0.0,0.0,0.0,-8.6094,-8.5632,-8.4863,-8.4555,-8.3555,-8.2247,-8.1939,-8.1516,-8.1093,-8.1093,-8.1093,-8.1093,-8.1093,-8.1093,-8.1093,-8.1093,-8.1093,-8.1093,-8.1093,-8.1093,-8.1093,-8.1093,-8.0439,-7.9592,-7.8707,-7.79,-7.7053,-7.6207,-7.6015,-7.6015,-7.6015,-7.6015,-7.6015,-7.6015,-7.5553,-7.5091,-7.4745,-7.3822,-7.2899,-7.2283,-7.1745,-7.1245,-7.0937,-7.0898,-7.0898,-7.0898,-7.0437,-7.0014,-6.9706,-6.9206,-6.8513,-6.7628,-6.759,-6.7205,-6.6359,-6.6359,-6.6205,-6.5897,-6.6205,-6.6359,-6.6359,-6.6359,-6.6205,0.0,-6.0127,-6.1524,-6.1408,-6.0204,-5.8434,-5.5972,-5.4164,0.0,-5.102,-5.0635,-5.0673,-5.0943,-5.1471,-5.2346,-5.3703,-5.5895,-5.9204,0.0,-6.7359,0.0,0.0,0.0,0.0,0.0,0.0,0.0,0.0,0.0,0.0,0.0,0.0,0.0,-8.8709,-9.021,-9.1018,-9.1018,-9.021,-8.9787,-8.971,-8.894,-8.8132,-8.7325,0.0,0.0,0.0,0.0,0.0,0.0,-8.6055,-8.5555,-8.4709,-8.3862,-8.2978,-8.2131,-8.1362,-8.1093,-8.1093,-8.1093,-8.1093,-8.1093,-8.1093,-8.1093,-8.1093,-8.1093,-8.1093,-8.1093,-8.1093,-8.1093,-8.1093,-8.1093,-8.0516,-7.9669,-7.8707,-7.7938,-7.713,-7.6207,-7.6015,-7.6015,-7.6015,-7.6015,-7.6015,-7.6015,-7.6015,-7.5745,-7.4899,-7.4745,-7.413,-7.2514,-7.2245,-7.186,-7.0975,-7.0898,-7.0898,-7.0898,-7.0898,-7.0591,-6.9821,-6.9783,-6.9398,-6.8552,-6.8513,-6.809,-6.7205,-6.7167,-6.6821,-6.609,-6.6821,-6.7167,-6.7167,-6.7167,-6.6744,-5.1279,0.0,-5.5972,-5.4626,-5.4511,-5.4357,0.0,-5.201,-5.1174,-5.0789,-5.0173,-5.051,-5.3126,-5.2664,-5.3885,-5.9923,-6.1435,-6.3397,0.0,0.0,0.0,0.0,0.0,0.0,0.0,0.0,0.0,0.0,0.0,0.0,0.0,0.0,0.0,-8.8709,-8.9094,-8.9286,-8.9286,-8.9094,-8.8632,-8.7979,-8.7786,-8.7248,-8.6401,0.0,0.0,0.0,0.0,0.0,-8.6055,-8.544,-8.467,-8.3824,-8.2939,-8.2093,-8.1362,-8.117,-8.1093,-8.1093,-8.1093,-8.1093,-8.1093,-8.1093,-8.1093,-8.1093,-8.1093,-8.1093,-8.1093,-8.1093,-8.1093,-8.1093,-8.1093,-8.0939,-8.04,-7.8861,-7.8361,-7.7823,-7.6322,-7.6015,-7.6015,-7.6015,-7.6015,-7.6015,-7.6015,-7.6015,-7.5938,-7.5745,-7.513,-7.4361,-7.3322,-7.2591,-7.186,-7.0975,-7.0898,-7.0898,-7.0898,-7.0898,-7.0821,-7.0629,-7.0629,-7.0244,-6.9436,-6.9398,-6.8975,-6.8129,-6.809,-6.8013,-6.7821,-6.8013,-6.809,-6.809,-6.809,-6.7628,-4.8125,-5.101,-5.378,-5.3241,-5.3433,-5.3587,-5.2702,-5.1279,-4.9971,-4.9586,-4.9433,-5.0202,-5.2818,-5.2856,-5.4346,-6.0089,-6.1666,0.0,0.0,0.0,0.0,0.0,0.0,0.0,0.0,0.0,0.0,0.0,0.0,0.0,0.0,0.0,0.0,0.0,-8.7517,-8.7902,-8.8671,-8.8286,-8.7863,-8.7401,-8.6978,-8.6555,-8.6094,0.0,0.0,0.0,0.0,0.0,-8.5478,-8.4632,-8.3785,-8.2939,-8.2477,-8.1823,-8.1093,-8.1093,-8.1093,-8.1093,-8.1093,-8.1093,-8.1093,-8.1093,-8.1093,-8.1093,-8.1093,-8.1093,-8.1093,-8.1093,-8.1093,-8.1093,-8.1093,-8.1093,-8.0669,-7.89,-7.8477,-7.8054,-7.6361,-7.6015,-7.6015,-7.6015,-7.6015,-7.6015,-7.6015,-7.6015,-7.6015,-7.6015,-7.5592,-7.4976,-7.4168,-7.3322,-7.2476,-7.1591,-7.1129,-7.0898,-7.0898,-7.0898,-7.0898,-7.0898,-7.0898,-7.0706,-7.0283,-7.0244,-6.986,-6.9013,-6.859,-6.859,-6.9013,-6.9013,-6.9013,-6.9013,-6.9013,-6.8552,-4.7201,-5.0279,-5.3472,-5.3818,-5.4203,-5.428,-5.3395,-5.1318,-4.9433,-4.8817,-4.9163,-5.024,-5.2318,-5.3395,-5.5164,0.0,0.0,0.0,0.0,0.0,0.0,0.0,0.0,0.0,0.0,0.0,0.0,0.0,0.0,0.0,0.0,0.0,0.0,0.0,-8.6094,-8.6824,-8.8286,-8.7555,-8.7209,-8.7171,-8.644,-8.6094,-8.6094,-8.6094,0.0,0.0,0.0,0.0,-8.4632,-8.3747,-8.2978,-8.2285,-8.217,-8.1708,-8.1093,-8.1093,-8.1093,-8.1093,-8.1093,-8.1093,-8.1093,-8.1093,-8.1093,-8.1093,-8.1093,-8.1093,-8.1093,-8.1093,-8.1093,-8.1093,-8.1093,-8.1093,-8.0669,-7.89,-7.8477,-7.8054,-7.6361,-7.6015,-7.6015,-7.6015,-7.6015,-7.6015,-7.6015,-7.6015,-7.6015,-7.6015,-7.6015,-7.5707,-7.4822,-7.4014,-7.3168,-7.2283,-7.1398,-7.0898,-7.0898,-7.0898,-7.0898,-7.0898,-7.0898,-7.0898,-7.0898,-7.0898,-7.0591,-6.9898,-6.9167,-6.9167,-6.9898,-6.9898,-6.9898,-6.9898,-6.9898,-6.9436,-4.8432,-5.1587,-5.3818,-5.1789,-5.2895,-5.428,-5.3395,-5.1779,-5.0664,-5.1192,-5.0894,-5.1674,-5.5521,-5.6934,-5.9088,0.0,0.0,0.0,0.0,0.0,0.0,0.0,0.0,0.0,0.0,0.0,0.0,0.0,0.0,0.0,0.0,0.0,0.0,0.0,0.0,-8.6247,-8.6517,-8.6363,-8.6286,-8.6286,-8.617,-8.6094,-8.6094,-8.6094,-8.5747,0.0,0.0,-8.4478,-8.3708,-8.2862,-8.2401,-8.2247,-8.1554,-8.1208,-8.1093,-8.1093,-8.1093,-8.1093,-8.1093,-8.1093,-8.1093,-8.1093,-8.1093,-8.1093,-8.1093,-8.1093,-8.1093,-8.1093,-8.1093,-8.1093,-8.1093,-8.1093,-8.0669,-7.89,-7.8477,-7.8054,-7.6361,-7.6015,-7.6015,-7.6015,-7.6015,-7.6015,-7.6015,-7.6015,-7.6015,-7.6015,-7.6015,-7.5707,-7.4822,-7.4014,-7.3168,-7.2283,-7.1398,-7.0898,-7.0898,-7.0898,-7.0898,-7.0898,-7.0898,-7.0898,-7.0898,-7.0898,-7.0821,-7.0706,-7.0591,-7.0591,-7.0706,-7.0706,-7.0706,-7.0706,-7.0706,-7.0283,-4.7018,-5.0164,-5.2818,-5.1625,-5.4318,-5.6857,-5.5549,-5.3972,-5.2702,-5.2626,-5.2664,-5.378,-5.7088,0.0,-6.1627,-6.7628,0.0,0.0,0.0,0.0,0.0,0.0,0.0,0.0,0.0,0.0,0.0,0.0,0.0,0.0,0.0,0.0,0.0,0.0,0.0,0.0,-8.4747,-8.4747,-8.5209,-8.6094,-8.567,-8.544,-8.544,-8.4978,-8.4555,0.0,0.0,-8.3285,-8.2824,-8.2016,-8.1631,-8.1593,-8.1246,-8.1093,-8.1093,-8.1093,-8.1093,-8.1093,-8.1093,-8.1093,-8.1093,-8.1093,-8.1093,-8.1093,-8.1093,-8.1093,-8.1093,-8.1093,-8.1093,-8.1093,-8.1093,-8.1093,-8.0669,-7.89,-7.8477,-7.8054,-7.6361,-7.6015,-7.6015,-7.6015,-7.6015,-7.6015,-7.6015,-7.6015,-7.6015,-7.6015,-7.6015,-7.5861,-7.5438,-7.4668,-7.3822,-7.2976,-7.2129,-7.1398,-7.0937,-7.0898,-7.0898,-7.0898,-7.0898,-7.0898,-7.0898,-7.0898,-7.0898,-7.0898,-7.0898,-7.0898,-7.0898,-7.0898,-7.0898,-7.0898,-7.0898,-7.0706,-4.6633,-4.9279,-5.2,-5.2423,-5.5588,-5.8473,-5.8022,-5.6588,-5.5357,-5.5318,-5.5818,-5.6896,-5.8819,-6.1204,0.0,-7.1091,0.0,0.0,0.0,0.0,0.0,0.0,0.0,0.0,0.0,0.0,0.0,0.0,0.0,0.0,0.0,0.0,0.0,0.0,0.0,0.0,-8.3593,-8.3593,-8.4247,-8.5517,-8.4901,-8.4593,-8.4555,-8.3901,-8.3478,-8.3247,-8.2593,-8.217,-8.1977,-8.1362,-8.1093,-8.1093,-8.1093,-8.1093,-8.1093,-8.1093,-8.1093,-8.1093,-8.1093,-8.1093,-8.1093,-8.1093,-8.1093,-8.1093,-8.1093,-8.1093,-8.1093,-8.1093,-8.1093,-8.1093,-8.1093,-8.1093,-8.0669,-7.89,-7.8477,-7.8054,-7.6361,-7.6015,-7.6015,-7.6015,-7.6015,-7.6015,-7.6015,-7.6015,-7.6015,-7.6015,-7.6015,-7.6015,-7.6015,-7.5245,-7.4476,-7.386,-7.3014,-7.2129,-7.1283,-7.1014,-7.0898,-7.0898,-7.0898,-7.0898,-7.0898,-7.0898,-7.0898,-7.0898,-7.0898,-7.0898,-7.0898,-7.0898,-7.0898,-7.0898,-7.0898,-7.0898,-4.9702,-5.1087,-5.2269,-5.3895,-5.5164,-5.678,-5.9819,-5.9242,-5.8665,-6.0973,-6.1524,-6.1601,-6.1793,-6.5782,0.0,0.0,0.0,0.0,0.0,0.0,0.0,0.0,0.0,0.0,0.0,0.0,0.0,0.0,0.0,0.0,0.0,0.0,0.0,0.0,0.0,0.0,-8.3593,-8.3593,-8.367,-8.3785,-8.3708,-8.367,-8.367,-8.3632,-8.317,-8.2401,-8.2324,-8.1862,-8.117,-8.1131,-8.1093,-8.1093,-8.1093,-8.1093,-8.1093,-8.1093,-8.1093,-8.1093,-8.1093,-8.1093,-8.1093,-8.1093,-8.1093,-8.1093,-8.1093,-8.1093,-8.1093,-8.1093,-8.1093,-8.1093,-8.1093,-8.1093,-8.0669,-7.89,-7.8477,-7.8054,-7.6361,-7.6015,-7.6015,-7.6015,-7.6015,-7.6015,-7.6015,-7.6015,-7.6015,-7.6015,-7.6015,-7.6015,-7.6015,-7.5245,-7.4668,-7.463,-7.3899,-7.3053,-7.2168,-7.136,-7.0898,-7.0898,-7.0898,-7.0898,-7.0898,-7.0898,-7.0898,-7.0898,-7.0898,-7.0898,-7.0898,-7.0898,-7.0898,-7.0898,-7.0898,-7.0898,-4.8086,-5.0471,-5.2856,-5.3549,-5.5511,-5.8088,-6.0935,-6.1935,-6.2935,-6.5474,-6.6013,-6.6167,-6.6744,0.0,-7.2937,0.0,0.0,0.0,0.0,0.0,0.0,0.0,0.0,0.0,0.0,0.0,0.0,0.0,0.0,0.0,0.0,0.0,0.0,0.0,0.0,0.0,0.0,-8.2054,-8.2054,-8.2054,-8.2554,-8.2785,-8.2747,-8.2285,-8.1862,-8.1554,-8.1554,-8.1362,-8.1093,-8.1093,-8.1093,-8.1093,-8.1093,-8.1093,-8.1093,-8.1093,-8.1093,-8.1093,-8.1093,-8.1093,-8.1093,-8.1093,-8.1093,-8.1093,-8.1093,-8.1093,-8.1093,-8.1093,-8.1093,-8.1093,-8.1093,-8.1093,-8.0669,-7.89,-7.8477,-7.8054,-7.6361,-7.6015,-7.6015,-7.6015,-7.6015,-7.6015,-7.6015,-7.6015,-7.6015,-7.6015,-7.6015,-7.6015,-7.6015,-7.5707,-7.5284,-7.4784,-7.3514,-7.2552,-7.2206,-7.1398,-7.0898,-7.0898,-7.0898,-7.0898,-7.0898,-7.0898,-7.0898,-7.0898,-7.0898,-7.0898,-7.0898,-7.0898,-7.0898,-7.0898,-7.0898,-7.0898,-4.8163,-5.0587,-5.3318,-5.3857,-5.6357,-5.955,-6.2897,-6.4359,-6.5974,-6.9321,-6.959,-6.9552,-7.0706,-7.2091,0.0,0.0,0.0,0.0,0.0,0.0,0.0,0.0,0.0,0.0,0.0,0.0,0.0,0.0,0.0,0.0,0.0,0.0,0.0,0.0,0.0,0.0,0.0,-8.1093,-8.1093,-8.1093,-8.167,-8.19,-8.19,-8.1362,-8.1093,-8.1093,-8.1093,-8.1093,-8.1093,-8.1093,-8.1093,-8.1093,-8.1093,-8.1093,-8.1093,-8.1093,-8.1093,-8.1093,-8.1093,-8.1093,-8.1093,-8.1093,-8.1093,-8.1093,-8.1093,-8.1093,-8.1093,-8.1093,-8.1093,-8.1093,-8.1093,-8.1093,-8.0669,-7.89,-7.8477,-7.8054,-7.6361,-7.6015,-7.6015,-7.6015,-7.6015,-7.6015,-7.6015,-7.6015,-7.6015,-7.6015,-7.6015,-7.6015,-7.6015,-7.6015,-7.5784,-7.5168,-7.3822,-7.2899,-7.2629,-7.1822,-7.1206,-7.0937,-7.0898,-7.0898,-7.0898,-7.0898,-7.0898,-7.0898,-7.0898,-7.0898,-7.0898,-7.0898,-7.0898,-7.0898,-7.0898,-7.0898,-5.0894,-5.1933,-5.3626,-5.528,-5.7665,-6.0896,-6.5974,-6.6513,-6.7398,-7.2476,-7.2129,-7.1475,-7.3206,-7.2822,0.0,0.0,0.0,0.0,0.0,0.0,0.0,0.0,0.0,0.0,0.0,0.0,0.0,0.0,0.0,0.0,0.0,0.0,0.0,0.0,0.0,0.0,0.0,-8.1093,-8.1093,-8.1093,-8.1093,-8.1093,-8.1093,-8.1093,-8.1093,-8.1093,-8.1093,-8.1093,-8.1093,-8.1093,-8.1093,-8.1093,-8.1093,-8.1093,-8.1093,-8.1093,-8.1093,-8.1093,-8.1093,-8.1093,-8.1093,-8.1093,-8.1093,-8.1093,-8.1093,-8.1093,-8.1093,-8.1093,-8.1093,-8.1093,-8.1093,-8.1093,-8.0631,-7.89,-7.8477,-7.8015,-7.6361,-7.6015,-7.6015,-7.6015,-7.6015,-7.6015,-7.6015,-7.6015,-7.6015,-7.6015,-7.6015,-7.6015,-7.6015,-7.6015,-7.6015,-7.6015,-7.5207,-7.4361,-7.3591,-7.2706,-7.1822,-7.0975,-7.0898,-7.0898,-7.0898,-7.0898,-7.0898,-7.0898,-7.0898,-7.0898,-7.0898,-7.0898,-7.0898,-7.0898,-7.0898,-7.0898,-4.9433,-5.1856,-5.5241,-5.6357,-6.0358,-6.4859,-6.8167,-6.9167,-7.0514,-7.4437,-7.4361,-7.3745,-7.4245,-7.463,0.0,0.0,0.0,0.0,0.0,0.0,0.0,0.0,0.0,0.0,0.0,0.0,0.0,0.0,0.0,0.0,0.0,0.0,0.0,0.0,0.0,0.0,0.0,0.0,-8.1093,-8.1093,-8.1093,-8.1093,-8.1093,-8.1093,-8.1093,-8.1093,-8.1093,-8.1093,-8.1093,-8.1093,-8.1093,-8.1093,-8.1093,-8.1093,-8.1093,-8.1093,-8.1093,-8.1093,-8.1093,-8.1093,-8.1093,-8.1093,-8.1093,-8.1093,-8.1093,-8.1093,-8.0977,-8.0362,-8.0208,-8.0054,-7.9438,-7.9246,-7.9131,-7.8631,-7.8054,-7.7361,-7.6245,-7.6015,-7.6015,-7.6015,-7.6015,-7.6015,-7.6015,-7.6015,-7.6015,-7.6015,-7.6015,-7.6015,-7.6015,-7.6015,-7.6015,-7.6015,-7.5207,-7.4361,-7.3591,-7.2706,-7.1822,-7.0975,-7.0898,-7.0898,-7.0898,-7.0898,-7.0898,-7.0898,-7.0898,-7.0898,-7.0898,-7.0898,-7.0898,-7.0898,-7.0898,-7.0898,-5.1846,-5.4626,-5.8088,-5.9627,-6.3205,-6.7321,-7.086,-7.2322,-7.3591,-7.6015,-7.5553,-7.4899,-7.563,-7.5861,0.0,0.0,0.0,0.0,0.0,0.0,0.0,0.0,0.0,0.0,0.0,0.0,0.0,0.0,0.0,0.0,0.0,0.0,0.0,0.0,0.0,0.0,0.0,0.0,0.0,-8.1093,-8.1093,-8.1093,-8.1093,-8.1093,-8.1093,-8.1093,-8.1093,-8.1093,-8.1093,-8.1093,-8.1093,-8.1093,-8.1093,-8.1093,-8.1093,-8.1093,-8.1093,-8.1093,-8.1093,-8.1093,-8.1093,-8.1093,-8.1093,-8.1054,-8.0708,-8.0592,-8.04,-7.9515,-7.9285,-7.9169,-7.8631,-7.8246,-7.8015,-7.8015,-7.763,-7.7053,-7.6207,-7.6015,-7.6015,-7.6015,-7.6015,-7.6015,-7.6015,-7.6015,-7.6015,-7.6015,-7.6015,-7.6015,-7.6015,-7.6015,-7.6015,-7.6015,-7.5515,-7.4745,-7.3577,-7.3014,-7.2206,-7.0975,-7.0898,-7.0898,-7.0898,-7.0898,-7.0898,-7.0898,-7.0898,-7.0898,-7.0898,-7.0898,-7.0898,-7.0898,-7.0898,-7.0898,-5.6154,-5.8627,-6.1396,-6.3974,-6.6167,-6.8936,-7.3745,-7.5438,-7.6207,-7.7015,-7.5938,-7.5284,-7.6899,0.0,0.0,0.0,0.0,0.0,0.0,0.0,0.0,0.0,0.0,0.0,0.0,0.0,0.0,0.0,0.0,0.0,0.0,0.0,0.0,0.0,0.0,0.0,0.0,0.0,0.0,0.0,-8.1093,-8.1093,-8.1093,-8.1093,-8.1093,-8.1093,-8.1093,-8.1093,-8.1093,-8.1093,-8.1093,-8.1093,-8.1093,-8.1093,-8.1093,-8.1093,-8.1093,-8.1093,-8.1093,-8.1093,-8.1093,-8.1093,-8.1054,-8.0823,-8.0054,-7.9746,-7.9515,-7.8631,-7.84,-7.8361,-7.8284,-7.7707,-7.7169,-7.7169,-7.7169,-7.6938,-7.6169,-7.6015,-7.6015,-7.6015,-7.6015,-7.6015,-7.6015,-7.6015,-7.6015,-7.6015,-7.6015,-7.6015,-7.6015,-7.6015,-7.6015,-7.6015,-7.6015,-7.5322,-7.363,-7.3514,-7.2783,-7.1014,-7.0898,-7.0898,-7.0898,-7.0898,-7.0898,-7.0898,-7.0898,-7.0898,-7.0898,-7.0898,-7.0898,-7.0898,-7.0898,-7.0898,-5.3269,-5.6819,-6.1396,-6.3974,-6.8398,-7.2745,-7.5168,-7.5861,-7.6053,-7.6245,-7.5976,-7.5822,0.0,0.0,0.0,0.0,0.0,0.0,0.0,0.0,0.0,0.0,0.0,0.0,0.0,0.0,0.0,0.0,0.0,0.0,0.0,0.0,0.0,0.0,0.0,0.0,-8.1093,-8.1093,-8.1093,0.0,-8.1093,-8.1093,-8.1093,-8.1093,-8.1093,-8.1093,-8.1093,-8.1093,-8.1093,-8.1093,-8.1093,-8.1093,-8.1093,-8.1093,-8.1093,-8.1093,-8.1093,-8.1093,-8.1093,-8.1093,-8.1093,-8.1093,-8.0631,-8.0054,-7.9862,-7.9323,-7.8592,-7.7784,-7.7553,-7.74,-7.6707,-7.6399,-7.6284,-7.6284,-7.6284,-7.6245,-7.6053,-7.6015,-7.6015,-7.6015,-7.6015,-7.6015,-7.6015,-7.6015,-7.6015,-7.6015,-7.6015,-7.6015,-7.6015,-7.6015,-7.6015,-7.6015,-7.6015,-7.5322,-7.363,-7.3514,-7.2783,-7.1014,-7.0898,-7.0898,-7.0898,-7.0898,-7.0898,-7.0898,-7.0898,-7.0898,-7.0898,-7.0898,-7.0898,-7.0898,-7.0898,-7.0898,-5.4049,-5.7511,-6.1781,-6.6013,-7.0321,-7.3745,-7.4591,-7.5091,-7.5284,-7.4899,-7.5438,0.0,0.0,0.0,0.0,0.0,0.0,0.0,0.0,0.0,0.0,0.0,0.0,0.0,0.0,0.0,0.0,0.0,0.0,0.0,0.0,0.0,0.0,0.0,0.0,0.0,-8.0477,-8.09,-8.1093,-8.1093,-8.1093,-8.1093,-8.1093,-8.1093,-8.1093,-8.1093,-8.1093,-8.1093,-8.1093,-8.1093,-8.1093,-8.1093,-8.1093,-8.1093,-8.1093,-8.1093,-8.0823,-8.0477,-8.0477,-8.0208,-7.9862,-7.9862,-7.9554,-7.9092,-7.8707,-7.8284,-7.7746,-7.6899,-7.6669,-7.6553,-7.613,-7.6015,-7.6015,-7.6015,-7.6015,-7.6015,-7.6015,-7.6015,-7.6015,-7.6015,-7.6015,-7.6015,-7.6015,-7.6015,-7.6015,-7.6015,-7.6015,-7.6015,-7.6015,-7.6015,-7.6015,-7.6015,-7.563,-7.4861,-7.363,-7.3129,-7.2322,-7.0975,-7.0898,-7.0898,-7.0898,-7.0898,-7.0898,-7.0898,-7.0898,-7.0898,-7.0898,-7.0898,-7.0898,-7.0898,-7.0898,-7.0898,-5.4752,-5.8204,-6.2243,-6.8205,-7.1398,-7.3129,-7.3423,-7.4014,-7.4322,-7.363,0.0,0.0,0.0,0.0,0.0,0.0,0.0,0.0,0.0,0.0,0.0,0.0,0.0,0.0,0.0,0.0,0.0,0.0,0.0,0.0,0.0,0.0,0.0,0.0,0.0,-7.9592,-7.9592,-8.0285,-8.0631,-8.0631,-8.0631,-8.0631,-8.0631,-8.0631,-8.0823,-8.1093,-8.1093,-8.1016,-8.09,-8.09,-8.0785,-8.0631,-8.0631,-8.0631,-8.0631,-8.0631,-8.0208,-7.9592,-7.9592,-7.9092,-7.8477,-7.8477,-7.8415,-7.8169,-7.7476,-7.7169,-7.6938,-7.6207,-7.6015,-7.6015,-7.6015,-7.6015,-7.6015,-7.6015,-7.6015,-7.6015,-7.6015,-7.6015,-7.6015,-7.6015,-7.6015,-7.6015,-7.6015,-7.6015,-7.6015,-7.6015,-7.6015,-7.6015,-7.6015,-7.6015,-7.6015,-7.6015,-7.5207,-7.4361,-7.3591,-7.2706,-7.1822,-7.0975,-7.0898,-7.0898,-7.0898,-7.0898,-7.0898,-7.0898,-7.0898,-7.0898,-7.0898,-7.0898,-7.0898,-7.0898,-7.0898,-7.0898,-5.024,-5.5511,-6.2243,-6.8205,-7.0475,-7.1629,0.0,0.0,-7.363,0.0,0.0,0.0,0.0,0.0,0.0,0.0,0.0,0.0,0.0,0.0,0.0,0.0,0.0,0.0,0.0,0.0,0.0,0.0,0.0,0.0,0.0,0.0,-7.8631,-7.8477,-7.8592,0.0,-7.8669,-7.8784,-7.8861,-7.8861,-7.8861,-7.8861,-7.8861,-7.8861,-7.9669,-8.1093,-8.1093,-8.0669,-7.9977,-7.9977,-7.9515,-7.8861,-7.8861,-7.8861,-7.8861,-7.8861,-7.8746,-7.8669,-7.8669,-7.8592,-7.8477,-7.8477,-7.8015,-7.7438,-7.7323,-7.6784,-7.613,-7.6015,-7.6015,-7.6015,-7.6015,-7.6015,-7.6015,-7.6015,-7.6015,-7.6015,-7.6015,-7.6015,-7.6015,-7.6015,-7.6015,-7.6015,-7.6015,-7.6015,-7.6015,-7.6015,-7.6015,-7.6015,-7.6015,-7.6015,-7.6015,-7.6015,-7.5207,-7.4361,-7.3591,-7.2706,-7.1822,-7.0975,-7.0898,-7.0898,-7.0898,-7.0898,-7.0898,-7.0898,-7.0898,-7.0898,-7.0898,-7.0898,-7.0898,-7.0898,-7.0898,-7.0898,-5.1202,-5.6088,-6.1281,0.0,-6.8898,-7.0437,-7.1206,0.0,0.0,0.0,0.0,0.0,0.0,0.0,0.0,0.0,0.0,0.0,0.0,0.0,0.0,0.0,0.0,0.0,0.0,0.0,0.0,0.0,0.0,0.0,0.0,-7.7823,-7.7592,-7.7092,-7.7553,0.0,-7.7823,-7.8246,-7.8477,-7.8477,-7.8477,-7.8477,-7.8477,-7.8477,-7.89,-7.9631,-7.9631,-7.9438,-7.9054,-7.9054,-7.8861,-7.8477,-7.8477,-7.8477,-7.8477,-7.8477,-7.8207,-7.7823,-7.7823,-7.7515,-7.7092,-7.7092,-7.6861,-7.6553,-7.6553,-7.6284,-7.6015,-7.6015,-7.6015,-7.6015,-7.6015,-7.6015,-7.6015,-7.6015,-7.6015,-7.6015,-7.6015,-7.6015,-7.6015,-7.6015,-7.6015,-7.6015,-7.6015,-7.6015,-7.6015,-7.6015,-7.6015,-7.6015,-7.6015,-7.6015,-7.6015,-7.6015,-7.4822,-7.3899,-7.3538,-7.2245,-7.1321,-7.0937,-7.0898,-7.0898,-7.0898,-7.0898,-7.0898,-7.0898,-7.0898,-7.0898,-7.0898,-7.0898,-7.0898,-7.0898,-7.0898,-7.0898,-5.1202,0.0,-5.8127,-6.3051,-6.6051,-6.7975,0.0,0.0,0.0,0.0,0.0,0.0,0.0,0.0,0.0,0.0,0.0,0.0,0.0,0.0,0.0,0.0,0.0,0.0,0.0,0.0,0.0,0.0,0.0,0.0,-7.6976,-7.6976,-7.6669,-7.6015,-7.663,-7.6976,-7.6976,-7.7553,-7.7861,-7.7861,-7.7861,-7.7861,-7.7861,-7.7861,-7.7861,-7.79,-7.8323,-7.8361,-7.8207,-7.8207,-7.8054,-7.7861,-7.7861,-7.7861,-7.7861,-7.7861,-7.7476,-7.6976,-7.6976,-7.6553,-7.6015,-7.6015,-7.6015,-7.6015,-7.6015,-7.6015,-7.6015,-7.6015,-7.6015,-7.6015,-7.6015,-7.6015,-7.6015,-7.6015,-7.6015,-7.6015,-7.6015,-7.6015,-7.6015,-7.6015,-7.6015,-7.6015,-7.6015,-7.6015,-7.6015,-7.6015,-7.6015,-7.6015,-7.6015,-7.6015,-7.6015,-7.6015,-7.4514,-7.3514,-7.3514,-7.1898,-7.0898,-7.0898,-7.0898,-7.0898,-7.0898,-7.0898,-7.0898,-7.0898,-7.0898,-7.0898,-7.0898,-7.0898,-7.0898,-7.0898,-7.0898,-7.0898,-4.724,-4.9163,0.0,-5.8165,-6.1166,-6.3332,0.0,0.0,0.0,0.0,0.0,0.0,0.0,0.0,0.0,0.0,0.0,0.0,0.0,0.0,0.0,0.0,0.0,0.0,0.0,0.0,0.0,0.0,0.0,0.0,-7.6053,-7.6053,-7.6053,-7.6015,-7.6053,-7.6053,-7.6053,-7.6092,-7.613,-7.613,-7.613,-7.613,-7.613,-7.613,-7.613,-7.6207,-7.7823,-7.8054,-7.7361,-7.7361,-7.6861,-7.613,-7.613,-7.613,-7.613,-7.613,-7.6092,-7.6053,-7.6053,-7.6053,-7.6015,-7.6015,-7.6015,-7.6015,-7.6015,-7.6015,-7.6015,-7.6015,-7.6015,-7.6015,-7.6015,-7.6015,-7.6015,-7.6015,-7.6015,-7.6015,-7.6015,-7.6015,-7.6015,-7.6015,-7.6015,-7.6015,-7.6015,-7.6015,-7.6015,-7.6015,-7.6015,-7.6015,-7.6015,-7.6015,-7.6015,-7.6015,-7.4514,-7.3514,-7.3514,-7.1898,-7.0898,-7.0898,-7.0898,-7.0898,-7.0898,-7.0898,-7.0898,-7.0898,-7.0898,-7.0898,-7.0898,-7.0898,-7.0898,-7.0898,-7.0898,-7.0898,-4.5778,-4.7932,0.0,-5.4434,-5.7973,-6.0896,0.0,0.0,0.0,0.0,0.0,0.0,0.0,0.0,0.0,0.0,0.0,0.0,0.0,0.0,0.0,0.0,0.0,0.0,0.0,0.0,0.0,0.0,0.0,0.0,-7.513,-7.5168,-7.5438,-7.5976,-7.6015,-7.6015,-7.6015,-7.6015,-7.6015,-7.6015,-7.6015,-7.6015,-7.6015,-7.6015,-7.6015,-7.6015,-7.663,-7.6746,-7.6476,-7.6476,-7.6284,-7.6015,-7.6015,-7.6015,-7.6015,-7.6015,-7.6015,-7.6015,-7.6015,-7.6015,-7.6015,-7.6015,-7.6015,-7.6015,-7.6015,-7.6015,-7.6015,-7.6015,-7.6015,-7.6015,-7.6015,-7.6015,-7.6015,-7.6015,-7.6015,-7.6015,-7.6015,-7.6015,-7.6015,-7.6015,-7.6015,-7.6015,-7.6015,-7.6015,-7.6015,-7.6015,-7.6015,-7.6015,-7.6015,-7.6015,-7.6015,-7.6015,-7.4976,-7.4284,-7.4284,-7.2706,-7.1745,-7.1745,-7.1206,-7.0898,-7.0898,-7.0898,-7.0898,-7.0898,-7.0898,-7.0898,-7.0898,-7.0898,-7.0898,-7.0898,-7.0898,-7.0898,-4.4008,-4.597,-4.8509,0.0,0.0,-5.6934,0.0,0.0,0.0,0.0,0.0,0.0,0.0,0.0,0.0,0.0,0.0,0.0,0.0,0.0,0.0,0.0,0.0,0.0,0.0,0.0,0.0,0.0,0.0,0.0,-7.4284,-7.4322,-7.4553,-7.513,-7.5168,-7.5168,-7.5168,-7.5438,-7.5553,-7.5553,-7.5861,-7.6015,-7.6015,-7.6015,-7.6015,-7.6015,-7.6015,-7.6015,-7.6015,-7.6015,-7.6015,-7.6015,-7.6015,-7.6015,-7.6015,-7.6015,-7.6015,-7.6015,-7.6015,-7.6015,-7.6015,-7.6015,-7.6015,-7.6015,-7.6015,-7.6015,-7.6015,-7.6015,-7.6015,-7.6015,-7.6015,-7.6015,-7.6015,-7.6015,-7.6015,-7.6015,-7.6015,-7.6015,-7.6015,-7.6015,-7.6015,-7.6015,-7.6015,-7.6015,-7.6015,-7.6015,-7.6015,-7.6015,-7.6015,-7.6015,-7.6015,-7.6015,-7.5207,-7.4707,-7.4707,-7.3437,-7.2629,-7.2629,-7.1822,-7.1321,-7.1321,-7.1052,-7.0898,-7.0898,-7.0898,-7.0898,-7.0898,-7.0898,-7.0898,-7.0898,-7.0898,-7.0898,0.0,0.0,0.0,0.0,0.0,0.0,0.0,0.0,0.0,0.0,0.0,0.0,0.0,0.0,0.0,0.0,0.0,0.0,0.0,0.0,0.0,0.0,0.0,0.0,0.0,0.0,0.0,0.0,0.0,-7.3423,-7.3476,-7.35,-7.3514,-7.3514,-7.3514,-7.3514,-7.3514,-7.4284,-7.4668,-7.4668,-7.5553,-7.5976,-7.5976,-7.5976,-7.6015,-7.6015,-7.6015,-7.6015,-7.6015,-7.6015,-7.6015,-7.6015,-7.6015,-7.6015,-7.6015,-7.6015,-7.6015,-7.6015,-7.6015,-7.6015,-7.6015,-7.6015,-7.6015,-7.6015,-7.6015,-7.6015,-7.6015,-7.6015,-7.6015,-7.6015,-7.6015,-7.6015,-7.6015,-7.6015,-7.6015,-7.6015,-7.6015,-7.6015,-7.6015,-7.6015,-7.6015,-7.6015,-7.6015,-7.6015,-7.6015,-7.6015,-7.6015,-7.6015,-7.6015,-7.6015,-7.6015,-7.6015,-7.5245,-7.4745,-7.4745,-7.4014,-7.3538,-7.3538,-7.2706,-7.2245,-7.2245,-7.1398,-7.0937,-7.0937,-7.0898,-7.0898,-7.0898,-7.0898,-7.0898,-7.0898,-7.0898,-7.0898,-4.2893,0.0,0.0,0.0,0.0,0.0,0.0,0.0,0.0,0.0,0.0,0.0,0.0,0.0,0.0,0.0,0.0,0.0,0.0,0.0,0.0,0.0,0.0,0.0,0.0,0.0,0.0,0.0,0.0,-7.1898,-7.2514,-7.3168,-7.3514,-7.3514,-7.3514,-7.3514,-7.3514,-7.3745,-7.3808,-7.386,-7.4668,-7.5053,-7.5091,-7.5707,-7.6015,-7.6015,-7.6015,-7.6015,-7.6015,-7.6015,-7.6015,-7.6015,-7.6015,-7.6015,-7.6015,-7.6015,-7.6015,-7.6015,-7.6015,-7.6015,-7.6015,-7.6015,-7.6015,-7.6015,-7.6015,-7.6015,-7.6015,-7.6015,-7.6015,-7.6015,-7.6015,-7.6015,-7.6015,-7.6015,-7.6015,-7.6015,-7.6015,-7.6015,-7.6015,-7.6015,-7.6015,-7.6015,-7.6015,-7.6015,-7.6015,-7.6015,-7.6015,-7.6015,-7.6015,-7.6015,-7.6015,-7.6015,-7.5784,-7.563,-7.563,-7.4861,-7.4361,-7.4361,-7.3591,-7.3129,-7.3129,-7.2283,-7.1822,-7.1822,-7.1206,-7.0898,-7.0898,-7.0898,-7.0898,-7.0898,-7.0898,-7.0898,-4.4124,-4.4855,-4.6086,-4.5817,0.0,0.0,0.0,0.0,0.0,0.0,0.0,0.0,0.0,0.0,0.0,0.0,0.0,0.0,0.0,0.0,0.0,0.0,0.0,0.0,0.0,0.0,0.0,0.0,-7.0898,-7.1129,-7.1629,-7.2129,-7.2437,-7.2437,-7.2437,-7.2437,-7.2437,-7.2783,-7.2976,-7.2976,-7.3822,-7.4207,-7.4245,-7.5091,-7.5476,-7.5476,-7.5822,-7.6015,-7.6015,-7.6015,-7.6015,-7.6015,-7.6015,-7.6015,-7.6015,-7.6015,-7.6015,-7.6015,-7.6015,-7.6015,-7.6015,-7.6015,-7.6015,-7.6015,-7.6015,-7.6015,-7.6015,-7.6015,-7.6015,-7.6015,-7.6015,-7.6015,-7.6015,-7.6015,-7.6015,-7.6015,-7.6015,-7.6015,-7.6015,-7.6015,-7.6015,-7.6015,-7.6015,-7.6015,-7.6015,-7.6015,-7.6015,-7.6015,-7.6015,-7.6015,-7.6015,-7.6015,-7.6015,-7.6015,-7.6015,-7.5515,-7.5245,-7.5245,-7.4476,-7.4014,-7.4014,-7.2822,-7.2206,-7.2206,-7.1321,-7.0898,-7.0898,-7.0898,-7.0898,-7.0898,-7.0898,-7.0898,-4.6124,-4.6432,-4.7855,-4.8971,0.0,0.0,-5.1318,-5.1279,0.0,0.0,0.0,0.0,0.0,0.0,0.0,0.0,0.0,0.0,0.0,0.0,0.0,0.0,0.0,0.0,0.0,0.0,0.0,-7.0629,-7.0706,-7.0821,-7.0898,-7.0898,-7.0898,-7.0898,-7.0898,-7.0898,-7.0898,-7.1668,-7.2052,-7.2052,-7.2937,-7.336,-7.3399,-7.4207,-7.4591,-7.463,-7.5476,-7.5861,-7.5861,-7.5976,-7.6015,-7.6015,-7.6015,-7.6015,-7.6015,-7.6015,-7.6015,-7.6015,-7.6015,-7.6015,-7.6015,-7.6015,-7.6015,-7.6015,-7.6015,-7.6015,-7.6015,-7.6015,-7.6015,-7.6015,-7.6015,-7.6015,-7.6015,-7.6015,-7.6015,-7.6015,-7.6015,-7.6015,-7.6015,-7.6015,-7.6015,-7.6015,-7.6015,-7.6015,-7.6015,-7.6015,-7.6015,-7.6015,-7.6015,-7.6015,-7.6015,-7.6015,-7.6015,-7.6015,-7.6015,-7.6015,-7.6015,-7.6015,-7.5284,-7.4861,-7.4861,-7.3322,-7.2437,-7.236,-7.1398,-7.0898,-7.0898,-7.0898,-7.0898,-7.0898,-7.0898,-7.0898,-5.1625,-5.1702,-5.1395,-4.8971,-4.951,0.0,-4.674,-4.7355,0.0,0.0,0.0,0.0,0.0,0.0,0.0,0.0,0.0,0.0,0.0,0.0,0.0,0.0,0.0,0.0,0.0,0.0,-6.8898,-6.8898,-6.9552,-7.0206,-7.086,-7.0898,-7.0898,-7.0898,-7.0898,-7.0898,-7.0898,-7.1052,-7.1168,-7.1168,-7.2052,-7.2437,-7.2476,-7.336,-7.3745,-7.3783,-7.4591,-7.4938,-7.5014,-7.5707,-7.6015,-7.6015,-7.6015,-7.6015,-7.6015,-7.6015,-7.6015,-7.6015,-7.6015,-7.6015,-7.6015,-7.6015,-7.6015,-7.6015,-7.6015,-7.6015,-7.6015,-7.6015,-7.6015,-7.6015,-7.6015,-7.6015,-7.6015,-7.6015,-7.6015,-7.6015,-7.6015,-7.6015,-7.6015,-7.6015,-7.6015,-7.6015,-7.6015,-7.6015,-7.6015,-7.6015,-7.6015,-7.6015,-7.6015,-7.6015,-7.6015,-7.6015,-7.6015,-7.6015,-7.6015,-7.6015,-7.6015,-7.6015,-7.5822,-7.5745,-7.5745,-7.4745,-7.3899,-7.3245,-7.1706,-7.0898,-7.0898,-7.0898,-7.0898,-7.0898,-7.0898,-7.0898,-5.4318,-5.3857,-5.3433,-5.1702,0.0,0.0,0.0,0.0,0.0,0.0,0.0,0.0,0.0,0.0,0.0,0.0,0.0,0.0,0.0,0.0,0.0,0.0,0.0,0.0,0.0,0.0,-6.7936,-6.8359,-6.8821,-6.9244,-6.9629,-6.9667,-6.986,-7.0283,-7.0283,-7.0475,-7.0898,-7.0898,-7.0898,-7.0898,-7.1321,-7.1552,-7.1591,-7.2437,-7.286,-7.2899,-7.3745,-7.4091,-7.4168,-7.5014,-7.5361,-7.5399,-7.5822,-7.6015,-7.6015,-7.6015,-7.6015,-7.6015,-7.6015,-7.6015,-7.6015,-7.6015,-7.6015,-7.6015,-7.6015,-7.6015,-7.6015,-7.6015,-7.6015,-7.6015,-7.6015,-7.6015,-7.6015,-7.6015,-7.6015,-7.6015,-7.6015,-7.6015,-7.6015,-7.6015,-7.6015,-7.6015,-7.6015,-7.6015,-7.6015,-7.6015,-7.6015,-7.6015,-7.6015,-7.6015,-7.6015,-7.6015,-7.6015,-7.6015,-7.6015,-7.6015,-7.6015,-7.6015,-7.6015,-7.6015,-7.6015,-7.5168,-7.413,-7.2899,-7.1552,-7.0898,-7.0898,-7.0898,-7.0898,-7.0898,-7.0898,-7.0898,-5.6549,-5.5818,-5.5742,0.0,0.0,-5.2962,0.0,0.0,0.0,-5.151,0.0,0.0,0.0,0.0,0.0,0.0,0.0,0.0,0.0,0.0,0.0,0.0,0.0,0.0,0.0,0.0,-6.6205,-6.759,-6.7359,-6.7475,-6.8129,-6.8321,-6.8744,-6.9436,-6.9436,-6.986,-7.0667,-7.0667,-7.0744,-7.0898,-7.0898,-7.0898,-7.0937,-7.1629,-7.1937,-7.2014,-7.286,-7.3245,-7.3322,-7.413,-7.4476,-7.4591,-7.5592,-7.6015,-7.6015,-7.6015,-7.6015,-7.6015,-7.6015,-7.6015,-7.6015,-7.6015,-7.6015,-7.6015,-7.6015,-7.6015,-7.6015,-7.6015,-7.6015,-7.6015,-7.6015,-7.6015,-7.6015,-7.6015,-7.6015,-7.6015,-7.6015,-7.6015,-7.6015,-7.6015,-7.6015,-7.6015,-7.6015,-7.6015,-7.6015,-7.6015,-7.6015,-7.6015,-7.6015,-7.6015,-7.6015,-7.6015,-7.6015,-7.6015,-7.6015,-7.6015,-7.6015,-7.6015,-7.6015,-7.6015,-7.6015,-7.5168,-7.4053,-7.2706,-7.1668,-7.1168,-7.1168,-7.0975,-7.0898,-7.0898,-7.0898,-7.0898,0.0,0.0,0.0,0.0,-5.6588,0.0,0.0,0.0,-4.9856,-4.8009,0.0,0.0,0.0,0.0,0.0,0.0,0.0,0.0,0.0,0.0,0.0,0.0,0.0,0.0,0.0,0.0,0.0,-6.482,-6.3666,-6.4089,-6.709,-6.7975,-6.8462,-6.8552,-6.8552,-6.8975,-6.9821,-6.986,-7.0206,-7.0898,-7.0898,-7.0898,-7.0898,-7.1014,-7.1052,-7.1091,-7.1975,-7.236,-7.2399,-7.3283,-7.363,-7.3783,-7.5399,-7.6015,-7.6015,-7.6015,-7.6015,-7.6015,-7.6015,-7.6015,-7.6015,-7.6015,-7.6015,-7.6015,-7.6015,-7.6015,-7.6015,-7.6015,-7.6015,-7.6015,-7.6015,-7.6015,-7.6015,-7.6015,-7.6015,-7.6015,-7.6015,-7.6015,-7.6015,-7.6015,-7.6015,-7.6015,-7.6015,-7.6015,-7.6015,-7.6015,-7.6015,-7.6015,-7.6015,-7.6015,-7.6015,-7.6015,-7.6015,-7.6015,-7.6015,-7.6015,-7.6015,-7.6015,-7.6015,-7.6015,-7.6015,-7.5168,-7.463,-7.4437,-7.286,-7.2052,-7.2052,-7.1283,-7.0898,-7.0898,-7.0898,-7.0898,0.0,0.0,0.0,0.0,0.0,0.0,-5.1626,0.0,-4.9048,0.0,0.0,0.0,0.0,0.0,0.0,0.0,0.0,0.0,0.0,0.0,0.0,0.0,0.0,0.0,0.0,0.0,0.0,0.0,0.0,-6.1858,-6.4743,-6.5705,-6.6628,-6.7628,-6.7667,-6.8052,-6.8936,-6.8936,-6.936,-7.0206,-7.0206,-7.0437,-7.0898,-7.0898,-7.0898,-7.0937,-7.1283,-7.1437,-7.1514,-7.2399,-7.2745,-7.286,-7.4091,-7.4822,-7.5245,-7.5245,-7.5553,-7.5938,-7.5438,-7.5245,-7.5245,-7.5245,-7.5592,-7.6015,-7.6015,-7.6015,-7.6015,-7.6015,-7.6015,-7.6015,-7.6015,-7.6015,-7.6015,-7.6015,-7.6015,-7.6015,-7.6015,-7.6015,-7.6015,-7.6015,-7.6015,-7.6015,-7.6015,-7.6015,-7.6015,-7.6015,-7.6015,-7.6015,-7.6015,-7.6015,-7.6015,-7.6015,-7.6015,-7.6015,-7.6015,-7.6015,-7.6015,-7.6015,-7.6015,-7.6015,-7.6015,-7.5168,-7.4707,-7.4707,-7.3553,-7.2937,-7.2937,-7.2591,-7.2168,-7.1629,-7.1129,-7.0898,-6.172,0.0,0.0,0.0,0.0,0.0,0.0,0.0,0.0,0.0,0.0,0.0,0.0,0.0,-4.7778,-4.7317,0.0,0.0,0.0,0.0,0.0,0.0,0.0,0.0,0.0,0.0,0.0,0.0,0.0,0.0,-6.2435,-6.3666,-6.4897,-6.6359,-6.6628,-6.7167,-6.8052,-6.8052,-6.8475,-6.936,-6.959,-7.0014,-7.0591,-7.0783,-7.0898,-7.0898,-7.0898,-7.0898,-7.0937,-7.1591,-7.1822,-7.1898,-7.2552,-7.3283,-7.4053,-7.4284,-7.4784,-7.5207,-7.4591,-7.4361,-7.4361,-7.4361,-7.4822,-7.5361,-7.5592,-7.563,-7.5707,-7.5938,-7.6015,-7.6015,-7.6015,-7.6015,-7.6015,-7.6015,-7.6015,-7.6015,-7.6015,-7.6015,-7.6015,-7.6015,-7.6015,-7.6015,-7.6015,-7.6015,-7.6015,-7.6015,-7.6015,-7.6015,-7.6015,-7.6015,-7.6015,-7.6015,-7.6015,-7.6015,-7.6015,-7.6015,-7.6015,-7.6015,-7.6015,-7.6015,-7.6015,-7.5399,-7.5053,-7.5053,-7.4245,-7.3822,-7.3822,-7.363,-7.3168,-7.2552,-7.1668,-7.1129,0.0,0.0,0.0,-5.7289,0.0,0.0,0.0,0.0,-5.1308,0.0,0.0,0.0,0.0,-5.0596,-5.001,-4.8355,-4.8817,0.0,0.0,0.0,0.0,0.0,0.0,0.0,0.0,0.0,0.0,0.0,0.0,0.0,-6.0589,-6.2435,-6.3743,-6.4666,-6.5513,-6.632,-6.7128,-6.7128,-6.759,-6.8462,-6.9321,-6.9706,-6.9744,-7.0552,-7.0898,-7.0898,-7.0898,-7.0898,-7.0898,-7.0937,-7.0937,-7.0937,-7.0975,-7.1514,-7.236,-7.3245,-7.3553,-7.3591,-7.3553,-7.3538,-7.3538,-7.3538,-7.3553,-7.3745,-7.4514,-7.4745,-7.4938,-7.5745,-7.6015,-7.6015,-7.6015,-7.6015,-7.6015,-7.6015,-7.6015,-7.6015,-7.6015,-7.6015,-7.6015,-7.6015,-7.6015,-7.6015,-7.6015,-7.6015,-7.6015,-7.6015,-7.6015,-7.6015,-7.6015,-7.6015,-7.6015,-7.6015,-7.6015,-7.6015,-7.6015,-7.6015,-7.6015,-7.6015,-7.6015,-7.6015,-7.6015,-7.5976,-7.5976,-7.5976,-7.5091,-7.4668,-7.4668,-7.3899,-7.35,-7.3437,-7.2552,-7.1706,0.0,0.0,-6.6396,-6.0683,0.0,0.0,0.0,0.0,0.0,0.0,0.0,0.0,0.0,-5.0844,-5.0256,-4.8531,-4.854,-4.775,0.0,0.0,0.0,0.0,0.0,0.0,0.0,0.0,0.0,0.0,0.0,0.0,0.0,-6.1012,-6.2551,-6.4551,-6.4897,-6.5436,-6.6282,-6.632,-6.6705,-6.7552,-6.8436,-6.9129,-6.9744,-7.0514,-7.0898,-7.0898,-7.0898,-7.0898,-7.0898,-7.0898,-7.0898,-7.0898,-7.0898,-7.1091,-7.1437,-7.2322,-7.3014,-7.3437,-7.2822,-7.2629,-7.2629,-7.2629,-7.3014,-7.3553,-7.3822,-7.4284,-7.4784,-7.5053,-7.5553,-7.6015,-7.6015,-7.6015,-7.6015,-7.6015,-7.6015,-7.6015,-7.6015,-7.6015,-7.6015,-7.6015,-7.6015,-7.6015,-7.6015,-7.6015,-7.6015,-7.6015,-7.6015,-7.6015,-7.6015,-7.6015,-7.6015,-7.6015,-7.6015,-7.6015,-7.6015,-7.6015,-7.6015,-7.6015,-7.6015,-7.6015,-7.6015,-7.6015,-7.6015,-7.6015,-7.5707,-7.5553,-7.5553,-7.5284,-7.4861,-7.4284,-7.3976,-7.3091,-6.7794,-6.8266,0.0,-6.3275,-6.155,0.0,-5.3999,0.0,0.0,0.0,0.0,0.0,0.0,-5.3107,-5.1496,-5.0371,-4.9248,-4.7324,0.0,0.0,0.0,0.0,0.0,0.0,0.0,0.0,-4.8274,-5.1738,0.0,0.0,0.0,0.0,-6.1269,-6.3205,-6.4128,-6.4859,-6.5436,-6.5743,-6.6167,-6.6667,-6.7513,-6.8398,-6.9283,-7.009,-7.0629,-7.0898,-7.0898,-7.0898,-7.0898,-7.0898,-7.0898,-7.0898,-7.0898,-7.0898,-7.0975,-7.1514,-7.2091,-7.2514,-7.1937,-7.1745,-7.1745,-7.1745,-7.2129,-7.2629,-7.2937,-7.363,-7.4322,-7.463,-7.5322,-7.6015,-7.6015,-7.6015,-7.6015,-7.6015,-7.6015,-7.6015,-7.6015,-7.6015,-7.6015,-7.6015,-7.6015,-7.6015,-7.6015,-7.6015,-7.6015,-7.6015,-7.6015,-7.6015,-7.6015,-7.6015,-7.6015,-7.6015,-7.6015,-7.6015,-7.6015,-7.6015,-7.6015,-7.6015,-7.6015,-7.6015,-7.6015,-7.6015,-7.6015,-7.6015,-7.6015,-7.6015,-7.6015,-7.6015,-7.5707,-7.5168,-7.5168,-7.4437]},{"header":{"parameterUnit":"m.s-1","parameterCategory":1,"la1":30.6,"la2":29.2853,"lo1":-89.7004,"lo2":-87.6739,"dy":0.0162,"dx":0.0183,"nx":112,"ny":82,"refTime":"2024-05-22T18:00:00:Z","depth":0,"parameterNumber":3,"parameterNumberName":"V-component_of_WINDS"},"data":[0.0,0.0,0.0,0.0,0.0,0.0,0.0,0.0,0.0,0.0,0.0,0.0,0.0,0.0,0.0,0.0,0.0,0.0,0.0,0.0,0.0,0.0,0.0,0.0,0.0,0.0,0.0,0.0,0.0,0.0,0.0,0.0,0.0,0.0,0.0,0.0,0.0,0.0,0.0,0.0,0.0,0.0,0.0,0.0,0.0,0.0,0.0,0.0,0.0,0.0,0.0,0.0,0.0,0.0,0.0,0.0,0.0,0.0,0.0,0.0,0.0,0.0,0.0,0.0,0.0,0.0,0.0,0.0,0.0,0.0,0.0,0.0,0.0,0.0,0.0,0.0,0.0,0.0,0.0,0.0,0.0,0.0,0.0,0.0,0.0,0.0,0.0,0.0,0.0,0.0,-1.3189,-1.7906,-1.8402,-1.8053,-1.7366,-1.5325,-1.3258,-1.1398,0.0,0.0,0.0,0.0,0.0,0.0,0.0,0.0,0.0,0.0,0.0,0.0,0.0,0.0,0.0,0.0,0.0,0.0,0.0,0.0,0.0,0.0,0.0,0.0,0.0,0.0,0.0,0.0,0.0,0.0,0.0,0.0,0.0,0.0,0.0,0.0,0.0,0.0,0.0,0.0,0.0,0.0,0.0,0.0,0.0,0.0,0.0,0.0,0.0,0.0,0.0,0.0,0.0,0.0,0.0,0.0,0.0,0.0,0.0,0.0,0.0,0.0,0.0,0.0,0.0,0.0,0.0,0.0,0.0,0.0,0.0,0.0,0.0,0.0,0.0,0.0,0.0,0.0,0.0,0.0,0.0,0.0,0.0,0.0,0.0,0.0,0.0,0.0,0.0,0.0,0.0,0.0,0.0,0.0,0.0,0.0,0.0,0.0,0.0,0.0,0.0,0.0,0.0,0.0,-1.5172,-1.9524,-2.0433,-1.9828,-1.7639,-1.6534,-1.4694,-1.1756,0.0,0.0,0.0,0.0,0.0,0.0,0.0,0.0,0.0,0.0,0.0,0.0,0.0,0.0,0.0,0.0,0.0,0.0,0.0,0.0,0.0,0.0,0.0,0.0,0.0,0.0,0.0,0.0,0.0,0.0,0.0,0.0,0.0,0.0,0.0,0.0,0.0,0.0,0.0,0.0,0.0,0.0,0.0,0.0,0.0,0.0,0.0,0.0,0.0,0.0,0.0,0.0,0.0,0.0,0.0,0.0,0.0,0.0,0.0,0.0,0.0,0.0,0.0,0.0,0.0,0.0,0.0,0.0,0.0,0.0,0.0,0.0,0.0,0.0,0.0,0.0,0.0,0.0,0.0,0.0,0.0,0.0,0.0,0.0,0.0,0.0,0.0,0.0,0.0,0.0,0.0,0.0,0.0,0.0,0.0,0.0,0.0,0.0,0.0,0.0,0.0,0.0,0.0,-1.792,-2.0188,-2.2322,-2.2851,-2.2546,-2.1168,-1.8188,-1.5455,-1.3247,-1.1236,0.0,0.0,0.0,0.0,0.0,0.0,0.0,0.0,0.0,0.0,0.0,0.0,0.0,0.0,0.0,0.0,0.0,0.0,0.0,0.0,0.0,0.0,0.0,0.0,0.0,0.0,0.0,0.0,0.0,0.0,0.0,0.0,0.0,0.0,0.0,0.0,0.0,0.0,0.0,0.0,0.0,0.0,0.0,0.0,0.0,0.0,0.0,0.0,0.0,0.0,0.0,0.0,0.0,0.0,0.0,0.0,0.0,0.0,0.0,0.0,0.0,0.0,0.0,0.0,0.0,0.0,0.0,0.0,0.0,0.0,0.0,0.0,0.0,0.0,0.0,0.0,0.0,0.0,0.0,0.0,0.0,0.0,0.0,0.0,0.0,0.0,0.0,0.0,0.0,0.0,0.0,0.0,0.0,0.0,0.0,0.0,0.0,0.0,0.0,0.0,0.0,0.0,-2.1485,-2.4073,-2.5173,-2.5337,-2.4831,-2.3359,-1.9661,-1.6265,-1.383,-1.1368,0.0,0.0,0.0,0.0,0.0,0.0,0.0,0.0,0.0,0.0,0.0,0.0,0.0,0.0,0.0,0.0,0.0,0.0,0.0,0.0,0.0,0.0,0.0,0.0,0.0,0.0,0.0,0.0,0.0,0.0,0.0,0.0,0.0,0.0,0.0,0.0,0.0,0.0,0.0,0.0,0.0,0.0,0.0,0.0,0.0,0.0,0.0,0.0,0.0,0.0,0.0,0.0,0.0,0.0,0.0,0.0,0.0,0.0,0.0,0.0,0.0,0.0,0.0,0.0,0.0,0.0,0.0,0.0,0.0,0.0,0.0,0.0,0.0,0.0,0.0,0.0,0.0,0.0,0.0,0.0,0.0,0.0,0.0,0.0,0.0,0.0,0.0,0.0,0.0,0.0,0.0,0.0,0.0,0.0,0.0,0.0,0.0,0.0,0.0,0.0,0.0,0.0,-2.1894,-2.4264,-2.7135,-2.746,-2.5737,-2.1421,-2.0559,-1.7722,-1.1808,-1.1049,0.0,0.0,0.0,0.0,0.0,0.0,0.0,0.0,0.0,0.0,0.0,0.0,0.0,0.0,0.0,0.0,0.0,0.0,0.0,0.0,0.0,0.0,0.0,0.0,0.0,0.0,0.0,0.0,0.0,0.0,0.0,0.0,0.0,0.0,0.0,0.0,0.0,0.0,0.0,0.0,0.0,0.0,0.0,0.0,0.0,0.0,0.0,0.0,0.0,0.0,0.0,0.0,0.0,0.0,0.0,0.0,0.0,0.0,0.0,0.0,0.0,0.0,0.0,0.0,0.0,0.0,0.0,0.0,0.0,0.0,0.0,0.0,0.0,0.0,0.0,0.0,0.0,0.0,0.0,0.0,0.0,0.0,0.0,0.0,0.0,0.0,0.0,0.0,0.0,0.0,0.0,0.0,0.0,0.0,0.0,0.0,0.0,0.0,0.0,0.0,0.0,0.0,-2.3045,-2.4998,0.0,-2.7696,-2.6313,-2.2953,-2.0803,-1.7755,-1.3202,0.0,0.0,0.0,0.0,0.0,0.0,0.0,0.0,0.0,0.0,0.0,0.0,0.0,0.0,0.0,0.0,0.0,0.0,0.0,0.0,0.0,0.0,0.0,0.0,0.0,0.0,0.0,0.0,0.0,0.0,0.0,0.0,0.0,0.0,0.0,0.0,0.0,0.0,0.0,0.0,0.0,0.0,0.0,0.0,0.0,0.0,0.0,0.0,0.0,0.0,0.0,0.0,0.0,0.0,0.0,0.0,0.0,0.0,0.0,0.0,0.0,0.0,0.0,0.0,0.0,0.0,0.0,0.0,0.0,0.0,0.0,0.0,0.0,0.0,0.0,0.0,0.0,0.0,0.0,0.0,0.0,0.0,0.0,0.0,0.0,0.0,0.0,0.0,0.0,0.0,0.0,0.0,0.0,0.0,0.0,0.0,0.0,0.0,0.0,0.0,0.0,0.0,-2.2111,-2.3968,-2.5705,0.0,-2.7482,-2.6384,-2.3758,-2.0984,-1.7855,-1.4182,0.0,0.0,0.0,0.0,0.0,0.0,0.0,0.0,0.0,0.0,0.0,0.0,0.0,0.0,0.0,0.0,0.0,0.0,0.0,0.0,0.0,0.0,0.0,0.0,0.0,0.0,0.0,0.0,0.0,0.0,0.0,0.0,0.0,0.0,0.0,0.0,0.0,0.0,0.0,0.0,0.0,0.0,0.0,0.0,0.0,0.0,0.0,0.0,0.0,0.0,0.0,0.0,0.0,0.0,0.0,0.0,0.0,0.0,0.0,0.0,0.0,0.0,0.0,0.0,0.0,0.0,0.0,0.0,0.0,0.0,0.0,0.0,0.0,0.0,0.0,0.0,0.0,0.0,0.0,0.0,0.0,0.0,0.0,0.0,0.0,0.0,0.0,0.0,0.0,0.0,0.0,0.0,0.0,0.0,0.0,0.0,0.0,0.0,0.0,0.0,0.0,0.0,-2.2191,-2.4489,-2.6372,-2.7161,-2.7001,-2.5799,-2.3324,-2.1075,-1.8116,0.0,0.0,0.0,0.0,0.0,0.0,0.0,0.0,0.0,0.0,0.0,0.0,0.0,0.0,0.0,0.0,0.0,0.0,0.0,0.0,0.0,0.0,0.0,0.0,0.0,0.0,0.0,0.0,0.0,0.0,0.0,0.0,0.0,0.0,0.0,0.0,0.0,0.0,0.0,0.0,0.0,0.0,0.0,0.0,0.0,0.0,0.0,0.0,0.0,0.0,0.0,0.0,0.0,0.0,0.0,0.0,0.0,0.0,0.0,0.0,0.0,0.0,0.0,0.0,0.0,0.0,0.0,0.0,0.0,0.0,0.0,0.0,0.0,0.0,0.0,0.0,0.0,0.0,0.0,0.0,0.0,0.0,0.0,0.0,0.0,0.0,0.0,0.0,0.0,0.0,0.0,0.0,0.0,0.0,0.0,0.0,0.0,0.0,0.0,0.0,0.0,0.0,0.0,-2.1884,-2.4182,-2.5985,-2.6854,-2.6867,-2.5801,-2.3222,-2.1636,-1.8661,-1.3761,0.0,0.0,0.0,0.0,0.0,0.0,0.0,0.0,0.0,0.0,0.0,0.0,0.0,0.0,0.0,0.0,0.0,0.0,0.0,0.0,0.0,0.0,0.0,0.0,0.0,0.0,0.0,0.0,0.0,0.0,0.0,0.0,0.0,0.0,0.0,0.0,0.0,0.0,0.0,0.0,0.0,0.0,0.0,0.0,0.0,0.0,0.0,0.0,0.0,0.0,0.0,0.0,0.0,0.0,0.0,0.0,0.0,0.0,0.0,0.0,0.0,0.0,0.0,0.0,0.0,0.0,0.0,0.0,0.0,0.0,0.0,0.0,0.0,0.0,0.0,0.0,0.0,0.0,0.0,0.0,0.0,0.0,0.0,0.0,0.0,0.0,0.0,0.0,0.0,0.0,0.0,0.0,0.0,0.0,0.0,0.0,0.0,0.0,0.0,0.0,0.0,0.0,-2.175,-2.3955,-2.5678,-2.656,-2.6653,-2.5924,-2.4065,-2.2275,-1.9299,-1.492,0.0,0.0,0.0,0.0,0.0,0.0,0.0,0.0,0.0,0.0,0.0,0.0,0.0,0.0,0.0,0.0,0.0,0.0,0.0,0.0,0.0,0.0,0.0,0.0,0.0,0.0,0.0,0.0,0.0,0.0,0.0,0.0,0.0,0.0,0.0,0.0,0.0,0.0,0.0,0.0,0.0,0.0,0.0,0.0,0.0,0.0,0.0,0.0,0.0,0.0,0.0,0.0,0.0,0.0,0.0,0.0,0.0,0.0,0.0,0.0,0.0,0.0,0.0,0.0,0.0,0.0,0.0,0.0,0.0,0.0,0.0,0.0,0.0,0.0,0.0,0.0,0.0,0.0,0.0,0.0,0.0,0.0,0.0,0.0,0.0,0.0,0.0,0.0,0.0,0.0,0.0,0.0,0.0,0.0,0.0,0.0,0.0,0.0,0.0,0.0,0.0,0.0,-2.1683,-2.3754,-2.5358,-2.6213,-2.6333,-2.6106,-2.5518,-2.2841,-1.9866,-1.6839,0.0,0.0,0.0,0.0,0.0,0.0,0.0,0.0,0.0,0.0,0.0,0.0,0.0,0.0,0.0,0.0,0.0,0.0,0.0,0.0,0.0,0.0,0.0,0.0,0.0,0.0,0.0,0.0,0.0,0.0,0.0,0.0,0.0,0.0,0.0,0.0,0.0,0.0,0.0,0.0,0.0,0.0,0.0,0.0,0.0,0.0,0.0,0.0,0.0,0.0,0.0,0.0,0.0,0.0,0.0,0.0,0.0,0.0,0.0,0.0,-1.4308,0.0,0.0,0.0,0.0,0.0,0.0,0.0,0.0,0.0,0.0,0.0,0.0,0.0,0.0,0.0,0.0,0.0,0.0,0.0,0.0,0.0,0.0,0.0,0.0,0.0,0.0,0.0,0.0,0.0,0.0,0.0,0.0,0.0,0.0,0.0,0.0,0.0,0.0,0.0,0.0,0.0,-2.148,-2.3447,-2.4983,-2.5625,-2.5905,-2.5812,-2.5224,-2.257,-1.9795,-1.7096,-1.3651,0.0,0.0,0.0,0.0,0.0,0.0,0.0,0.0,0.0,0.0,0.0,0.0,0.0,0.0,0.0,0.0,0.0,0.0,0.0,0.0,0.0,0.0,0.0,0.0,0.0,0.0,0.0,0.0,0.0,0.0,0.0,0.0,0.0,0.0,0.0,0.0,0.0,0.0,0.0,0.0,0.0,0.0,0.0,0.0,0.0,0.0,0.0,0.0,0.0,0.0,0.0,0.0,0.0,0.0,0.0,0.0,0.0,0.0,0.0,0.0,-1.6748,0.0,0.0,0.0,0.0,0.0,0.0,0.0,0.0,0.0,0.0,0.0,0.0,0.0,0.0,0.0,0.0,0.0,0.0,0.0,0.0,0.0,0.0,0.0,0.0,0.0,0.0,0.0,0.0,0.0,0.0,0.0,0.0,0.0,0.0,0.0,0.0,0.0,0.0,0.0,0.0,-2.1523,-2.3327,-2.4703,-2.5438,-2.5651,-2.5558,-2.5117,-2.3362,-2.0825,-1.7339,-1.4911,0.0,0.0,0.0,0.0,0.0,0.0,0.0,0.0,0.0,0.0,0.0,0.0,0.0,0.0,0.0,0.0,0.0,0.0,0.0,0.0,0.0,0.0,0.0,0.0,0.0,0.0,0.0,0.0,0.0,0.0,0.0,0.0,0.0,0.0,0.0,0.0,0.0,0.0,0.0,0.0,0.0,0.0,0.0,0.0,0.0,0.0,0.0,0.0,0.0,0.0,0.0,0.0,0.0,0.0,-1.439,-1.4923,-1.484,-1.4914,-1.518,-1.8363,-1.9151,-1.8135,0.0,0.0,0.0,0.0,0.0,0.0,0.0,0.0,0.0,0.0,0.0,0.0,0.0,0.0,0.0,0.0,0.0,0.0,0.0,0.0,0.0,0.0,0.0,0.0,0.0,-1.9413,-1.9104,0.0,0.0,0.0,0.0,0.0,0.0,0.0,0.0,0.0,0.0,0.0,0.0,-2.1737,-2.3287,-2.4502,-2.5277,-2.5411,-2.5139,-2.4494,-2.3469,-2.1215,-1.7501,-1.5587,-1.3117,0.0,0.0,0.0,0.0,0.0,0.0,0.0,0.0,0.0,0.0,0.0,0.0,0.0,0.0,0.0,0.0,0.0,0.0,0.0,0.0,0.0,0.0,0.0,0.0,0.0,0.0,0.0,0.0,0.0,0.0,0.0,0.0,-0.9768,-1.0093,0.0,0.0,0.0,0.0,0.0,0.0,0.0,0.0,0.0,0.0,0.0,0.0,0.0,0.0,-1.3254,-1.379,-1.5264,-1.7709,-1.8099,-1.9516,-2.17,-2.1439,-2.1277,-2.1297,-2.1601,0.0,-1.396,-1.3226,0.0,0.0,0.0,0.0,0.0,0.0,0.0,0.0,0.0,0.0,0.0,0.0,0.0,0.0,0.0,0.0,0.0,0.0,0.0,0.0,0.0,0.0,-2.0619,-1.8749,-1.8602,-1.9184,0.0,-1.9841,-1.9285,-1.8698,0.0,0.0,0.0,0.0,0.0,0.0,0.0,0.0,-2.179,-2.3287,-2.4342,-2.4716,-2.4983,-2.4292,-2.2104,-1.9983,-1.8422,-1.7537,-1.3485,-1.1591,-1.2502,-0.9935,0.0,0.0,0.0,0.0,0.0,0.0,0.0,0.0,0.0,0.0,0.0,0.0,0.0,0.0,0.0,0.0,0.0,0.0,0.0,0.0,0.0,0.0,0.0,0.0,0.0,0.0,0.0,0.0,0.0,-0.9836,-1.0439,-1.0405,-1.0636,-1.0616,0.0,0.0,0.0,0.0,0.0,0.0,0.0,0.0,0.0,-1.5549,-1.4421,-1.47,-1.6591,-1.5469,-1.6228,-1.8935,-1.9202,-2.0682,-2.3199,-2.3116,-2.3023,-2.3023,-2.2836,-2.0446,-1.6552,-1.5646,-1.5441,-1.553,0.0,0.0,0.0,0.0,0.0,-1.319,-1.2678,0.0,0.0,0.0,0.0,0.0,0.0,0.0,0.0,0.0,0.0,0.0,0.0,0.0,0.0,-2.2733,-2.2693,-2.3049,-2.3631,-2.3327,-2.2445,0.0,-2.0321,-1.972,-1.7996,0.0,0.0,0.0,0.0,-2.1002,-2.2311,-2.3487,-2.4315,-2.4609,-2.4609,-2.3728,-2.1592,-2.0177,-1.8386,-1.591,-1.3662,-1.2231,-1.1675,-1.0148,-0.9103,0.0,0.0,0.0,0.0,0.0,0.0,0.0,0.0,0.0,0.0,0.0,0.0,0.0,0.0,0.0,0.0,0.0,0.0,0.0,0.0,0.0,0.0,0.0,0.0,0.0,0.0,0.0,0.0,-1.0514,-1.1008,-1.0812,-1.1341,-1.1443,0.0,0.0,0.0,0.0,0.0,0.0,-1.2935,-1.3315,-1.4713,-1.7273,-1.5604,-1.6236,-1.9347,-1.6847,-1.7232,-2.0646,-2.0027,-2.1123,-2.3571,-2.2902,-2.2575,-2.2527,-2.1867,-2.0324,-1.8349,-1.7953,-1.734,-1.6593,-1.4411,-1.4312,-1.5371,-1.4221,-1.4176,-1.46,-1.3888,-1.3923,-1.403,-1.3099,0.0,-1.2945,-1.3036,0.0,0.0,0.0,0.0,-2.0227,-2.1567,0.0,-2.5348,-2.5309,-2.5661,-2.6052,-2.605,-2.5611,-2.469,0.0,-2.2285,-2.1683,-1.9626,0.0,0.0,0.0,0.0,-2.1737,-2.2832,-2.3701,-2.4289,-2.4502,-2.4329,-2.3391,-2.1317,-2.0306,-1.8385,-1.5283,-1.3873,-1.2629,-1.1395,-1.0538,-0.9748,-0.9121,0.0,0.0,0.0,0.0,0.0,0.0,0.0,0.0,0.0,0.0,0.0,0.0,0.0,0.0,0.0,0.0,0.0,0.0,0.0,0.0,0.0,0.0,0.0,0.0,0.0,0.0,0.0,0.0,0.0,-1.1579,-1.2216,0.0,0.0,0.0,0.0,-1.263,-1.2935,-1.3431,-1.417,-1.436,-1.481,-1.5513,-1.5452,-1.6906,-2.0124,-1.7407,-1.8849,-2.4257,-2.1575,-2.1686,-2.3966,-2.1497,-2.032,-2.0043,-1.7521,-1.6362,-1.6168,-1.8018,-1.8304,-1.7403,-1.7025,-1.6749,-1.6635,-1.665,-1.5448,-1.3677,-1.377,-1.5148,-1.6618,-1.4657,-1.4561,-1.5137,-1.4991,-1.4677,0.0,0.0,-1.9536,-1.9424,-2.1705,-2.4095,-2.5505,-2.3707,-2.4828,-2.6293,-2.609,-2.601,-2.5545,0.0,-2.3634,-2.2859,-2.1681,0.0,-2.1002,-2.1002,-2.1537,-2.2271,-2.318,-2.3834,-2.4209,-2.4222,-2.4209,-2.3235,-2.0734,-1.8741,-1.7446,-1.6934,-1.3211,-1.1813,-1.357,-1.1458,-1.0114,-0.9781,-0.8899,0.0,0.0,0.0,0.0,0.0,0.0,0.0,0.0,0.0,0.0,0.0,0.0,0.0,0.0,0.0,0.0,0.0,0.0,0.0,0.0,0.0,0.0,0.0,0.0,0.0,0.0,0.0,0.0,-1.2467,-1.3051,0.0,-1.2671,-1.2942,-1.3315,-1.3709,-1.3926,-1.4319,-1.4977,-1.5242,-1.6273,-1.8332,-1.6899,-1.8275,-2.2917,-2.0342,-2.1795,-2.7147,-2.6242,-2.7102,-2.9494,-2.8422,-2.7794,-2.7701,-2.6669,-2.5195,-2.3428,-2.2264,-1.9462,-1.6,-1.5687,-1.5425,-1.5323,-1.5381,-1.479,-1.4068,-1.4116,-1.4618,-1.5154,-1.4205,-1.4013,-1.4392,-1.5562,-1.6695,-1.825,-2.1185,-2.2737,-2.3674,-2.4697,-2.5597,-2.6095,-2.5384,-2.5819,-2.636,-2.6253,-2.6239,-2.5999,-2.5197,-2.4569,-2.3794,-2.2605,-2.2472,-2.2405,-2.2017,-2.2619,-2.3313,-2.3821,-2.4235,-2.4409,-2.4222,-2.4035,-2.295,-2.0449,-1.8352,-1.6461,-1.4833,-1.2239,-1.1017,-1.1629,-1.0791,-1.0093,-0.9693,-0.9178,-0.8504,0.0,0.0,0.0,0.0,0.0,0.0,0.0,0.0,0.0,0.0,0.0,0.0,0.0,0.0,0.0,0.0,0.0,0.0,0.0,0.0,0.0,0.0,0.0,0.0,0.0,0.0,-1.2807,-1.301,-1.3641,-1.3892,-1.3444,-1.381,-1.4224,-1.457,-1.4733,-1.5052,-1.5608,-1.6691,-1.8265,-2.0156,-1.8714,-2.0064,-2.4648,-2.1137,-2.2075,-2.7492,-2.6591,-2.7547,-3.0058,-2.9689,-2.9019,-2.8132,-2.7874,-2.6301,-2.3655,-2.159,-1.8628,-1.5397,-1.5917,-1.6507,-1.7068,-1.6182,-1.5779,-1.5587,-1.5536,-1.4992,-1.453,-1.5854,-1.567,-1.5332,-1.7321,-1.8281,-1.914,-2.1392,-2.2952,-2.414,-2.5041,-2.5819,-2.6386,-2.6386,-2.6386,-2.6386,-2.6386,-2.6386,-2.6213,-2.5625,-2.5197,-2.4583,-2.35,-2.3487,-2.3447,-2.2953,-2.3474,-2.3981,-2.4182,-2.4449,-2.4182,-2.3194,-2.3516,-2.2756,-2.0119,-1.8103,-1.6234,-1.4548,-1.2064,-1.0595,-1.0493,-1.0304,-1.0039,-0.9686,-0.9232,-0.8615,-0.7821,0.0,0.0,0.0,0.0,0.0,0.0,0.0,0.0,0.0,0.0,0.0,0.0,0.0,0.0,0.0,0.0,0.0,0.0,0.0,0.0,0.0,0.0,0.0,-1.183,-1.2637,-1.32,-1.322,-1.3994,-1.436,-1.3933,-1.4557,-1.5045,-1.5194,-1.5343,-1.5622,-1.6162,-1.8631,-2.0272,-2.0629,-2.0545,-2.1947,-2.4982,-1.9711,-1.9799,-2.542,-2.2752,-2.2848,-2.5286,-2.4949,-2.333,-2.0764,-2.0458,-1.8912,-1.6545,-1.6147,-1.6022,-1.6269,-1.8086,-2.0125,-2.1769,-1.9414,-1.8364,-1.8008,-1.7735,-1.621,-1.5087,-1.9498,-1.9358,-1.7837,-2.0206,-1.9072,-1.7592,-1.9736,-2.0242,-2.0473,-2.2659,-2.4761,-2.6386,-2.6386,-2.6386,-2.6386,-2.6386,-2.6386,-2.6213,-2.5625,-2.5518,-2.5237,-2.4369,-2.4222,-2.4115,-2.3834,-2.4035,0.0,-2.4222,-2.4389,-2.3577,-2.1234,-2.2586,-2.2608,-1.9938,-1.7933,-1.6748,-1.6379,-1.2726,-1.0552,-1.0487,-1.0202,-0.9916,-0.9822,-0.9096,-0.8581,-0.8333,0.0,0.0,0.0,0.0,0.0,0.0,0.0,0.0,0.0,0.0,0.0,0.0,0.0,0.0,0.0,0.0,0.0,0.0,0.0,0.0,0.0,0.0,-1.2467,-1.2759,-1.3295,-1.3817,-1.4258,-1.4624,-1.4882,-1.497,-1.5167,-1.5398,-1.5649,-1.571,-1.6755,-1.9088,-1.8134,-1.8495,-2.0731,-1.8942,-2.0261,-2.5124,-2.3586,-2.5655,-3.1151,-3.0331,-3.0396,-3.1027,-3.0552,-2.9996,-2.92,-2.8741,-2.8056,-2.7253,-2.5204,-2.5261,-2.5907,-1.8921,-1.6562,-1.688,-1.6243,-1.5763,-1.5459,-1.5307,-1.4822,-1.4476,-1.5778,-1.5748,-1.56,-1.7699,-1.7741,-1.786,-2.1506,-2.2358,-2.274,-2.492,-2.5977,-2.6386,-2.6386,-2.6386,-2.6386,-2.6386,-2.6386,-2.6213,-2.5625,-2.5518,-2.5304,-2.4636,-2.4516,-2.4489,-2.4409,0.0,0.0,-2.4516,-2.3301,-2.2596,-2.2937,-2.2144,-2.1595,-2.1594,-1.9831,-1.7951,-1.6285,-1.3687,-1.1662,-1.0401,-1.0154,-0.9916,-0.9822,-0.93,-0.8886,0.0,0.0,0.0,0.0,0.0,0.0,0.0,0.0,0.0,0.0,0.0,0.0,0.0,0.0,0.0,0.0,0.0,0.0,0.0,0.0,0.0,0.0,-1.2501,-1.3234,-1.3593,-1.3871,-1.4211,-1.4685,-1.493,-1.5153,-1.5391,-1.5527,-1.5669,-1.5937,-1.5974,-1.6835,-1.8676,-1.8549,-1.9127,-2.0934,-1.9511,-2.08,-2.5112,-2.4084,-2.5615,-2.9915,-2.9915,-2.9915,-3.0004,-3.0702,-2.9737,0.0,-2.8303,-2.7283,-2.512,-2.4598,-2.4367,0.0,0.0,0.0,0.0,0.0,-1.5658,-1.4577,-1.4373,-1.4299,-1.4476,-1.5425,-1.577,-1.6187,-1.8321,-1.8101,-1.7695,-2.0153,-2.1285,-2.2086,-2.3312,-2.5012,-2.6386,-2.6386,-2.6386,-2.6386,-2.6386,-2.6386,-2.6213,-2.5625,0.0,0.0,-2.4669,-2.4636,-2.4636,-2.4636,-2.4636,-2.4327,0.0,-2.2262,-2.1199,-2.0222,-1.9714,-1.932,-1.889,-1.7798,0.0,0.0,0.0,-1.1378,-1.0251,-1.0038,0.0,0.0,0.0,0.0,0.0,0.0,0.0,0.0,-0.8838,-0.8832,0.0,0.0,0.0,0.0,0.0,0.0,0.0,0.0,0.0,0.0,0.0,0.0,0.0,0.0,0.0,0.0,-1.32,-1.3831,-1.4265,-1.434,-1.4455,-1.4733,-1.5031,-1.5269,-1.5418,-1.5689,-1.5957,-1.5879,-1.6144,-1.6469,-1.6918,0.0,0.0,0.0,0.0,-2.2442,-2.5215,-2.2752,-2.2958,-2.5625,-2.5317,-2.5215,-2.5307,-2.7381,-2.5724,-2.1125,-2.3285,-2.1506,-1.7147,-1.9305,-1.8536,-1.6455,-2.0785,-2.3651,-2.4787,-2.0159,-1.6801,0.0,0.0,0.0,0.0,-1.6729,-1.7413,-1.7763,-1.9836,-1.88,-1.7069,-1.7552,-1.8782,-2.0018,-2.0484,-2.3472,-2.6386,-2.6386,-2.6386,-2.6386,-2.6386,-2.6386,-2.6213,-2.5625,-2.5518,-2.5331,-2.4669,-2.4636,-2.4636,-2.4636,-2.4636,0.0,-2.1826,-2.1293,-1.9632,-1.5818,0.0,0.0,-1.45,-1.4345,-1.4078,-1.3553,-1.1636,-1.0371,-1.0044,-1.0051,-1.0051,-1.0038,-1.0038,-1.0161,-1.0283,-1.0283,-1.029,-1.0283,-0.9327,-0.9239,0.0,0.0,0.0,0.0,0.0,0.0,0.0,0.0,0.0,0.0,0.0,0.0,0.0,0.0,0.0,-1.2956,-1.3573,-1.4102,-1.4428,-1.4577,-1.4719,-1.4903,-1.5187,-1.5425,-1.5581,-1.575,-1.5906,-1.6029,-1.6205,-1.7365,-1.9727,-1.8393,0.0,-2.0999,-2.1103,-2.2442,-2.5215,-2.4701,-2.583,-2.8495,0.0,0.0,-2.5194,-2.5294,-2.4778,-2.3718,-2.3916,-2.3336,-2.24,-2.277,-2.121,-1.8617,-1.9363,-1.9918,-2.0197,-1.8902,-1.6801,-1.4699,-1.4401,-1.4299,-1.4387,-1.4822,-1.4992,-1.508,-1.5513,-1.5206,0.0,-1.8762,-1.9874,-2.0855,-2.4252,-2.574,-2.6386,-2.6386,-2.6386,-2.6386,-2.6386,-2.6386,-2.6213,-2.5625,-2.5518,-2.5331,-2.4669,-2.4636,-2.4636,-2.4636,-2.4636,-2.387,-2.1826,-2.0021,-1.8517,-1.7487,-1.6122,-1.5623,-1.6506,-1.6275,-1.5413,-1.3813,-1.1694,-1.0466,-1.0405,-1.0527,-1.0534,-1.0405,-1.0405,-1.0365,-1.0283,-1.0283,-1.0337,-1.0439,-1.0127,-1.0053,0.0,0.0,0.0,0.0,0.0,0.0,0.0,0.0,0.0,0.0,0.0,-1.1389,0.0,0.0,-1.3098,-1.3553,-1.3939,-1.4292,-1.4584,-1.4692,-1.4794,-1.495,-1.5296,-1.5554,-1.5635,-1.5839,-1.6001,-1.6076,-1.6286,-1.7045,-1.8424,-1.7451,-1.7517,-1.9044,-2.0384,-2.1717,-2.3156,-2.4495,-2.5215,-2.5215,-2.3775,-2.2388,-2.0951,-2.2184,-2.1884,-2.0493,-2.1686,-2.1344,-1.9961,-1.9779,-2.0253,-2.0992,-1.9497,-1.8135,-1.6987,-1.6651,-1.5727,-1.4699,-1.4401,-1.4299,-1.4299,-1.4299,-1.4299,-1.4299,-1.4299,-1.4143,-1.4622,-1.7824,-1.8496,-1.9375,-2.3656,-2.3952,-2.3712,-2.5898,-2.4761,-2.3712,-2.5898,-2.5502,-2.4598,-2.4122,-2.4022,-2.3527,-2.1834,-2.1601,-2.1975,-2.2967,-2.2211,-2.0841,-1.8799,-1.7459,-1.6268,-1.5146,-1.3881,-1.3482,-1.4307,-1.4094,-1.3467,-1.2419,-1.1254,-1.0609,-1.0609,-1.0677,-1.0683,-1.0609,-1.0609,-1.0568,-1.05,-1.05,-1.0534,-1.0602,-1.0534,-1.05,0.0,0.0,0.0,0.0,0.0,0.0,0.0,-1.0534,-1.0799,-1.1246,-1.1789,-1.2318,-1.2773,-1.3227,-1.3648,-1.4014,-1.4197,-1.4394,-1.4658,-1.4699,-1.4753,-1.4909,-1.5323,-1.5608,-1.5635,-1.5879,-1.6049,-1.6083,-1.6354,-1.6524,-1.6524,-1.6815,-1.6978,-1.6978,-1.9662,-2.1103,-2.1103,-2.3259,-2.3259,-2.1103,-2.0592,-1.9057,-1.6748,-1.9055,-1.8673,-1.6407,-1.8652,-1.8229,-1.5974,-1.5737,-1.7891,-2.1226,-1.9023,-1.6916,-1.5199,-1.5378,-1.5097,-1.4699,-1.4401,-1.4299,-1.4299,-1.4299,-1.4299,-1.4299,-1.4299,-1.4129,-1.4342,-1.6483,-1.691,-1.7554,-2.1464,-2.12,-2.0797,-2.4283,-2.2499,-2.0878,-2.4363,-2.3744,-2.2441,-2.2459,-2.2098,-2.1286,-1.9477,-1.8497,-1.8648,-2.0692,-1.9629,-1.7815,-1.5769,-1.5293,-1.4334,-1.2284,-1.1796,-1.1606,-1.1579,-1.1348,-1.1131,-1.0894,-1.0833,-1.0751,-1.0724,-1.0717,-1.0717,-1.0717,-1.0717,-1.0717,-1.0717,-1.0717,-1.0717,-1.0717,-1.0717,-1.0717,-0.9523,-0.9639,-0.9903,-1.0439,-1.0493,-1.0765,0.0,0.0,-1.2196,-1.2644,-1.3105,-1.341,-1.3336,-1.3695,-1.4014,-1.4061,-1.4197,-1.4353,-1.4516,-1.4536,-1.459,-1.4746,-1.516,-1.5493,-1.5628,-1.5784,-1.5934,-1.6069,-1.6354,-1.6524,-1.6524,-1.6815,-1.6978,-1.6978,-1.9662,-2.1103,-2.1103,-2.1414,-2.1414,-2.1103,-1.8634,-1.721,-1.6748,-1.6913,-1.6761,-1.63,-1.6457,-1.6236,-1.5689,-1.5655,-1.5752,-1.6039,-1.5744,-1.5379,-1.5248,-1.7227,-1.662,-1.4699,-1.4401,-1.4299,-1.4299,-1.4299,-1.4299,-1.4299,-1.4299,-1.4278,-1.4622,-1.6556,-1.7104,-1.7574,-1.9682,-2.0069,-1.9988,-2.0473,-2.0231,-2.0069,-2.0554,-2.0307,-2.0485,-2.2035,-2.0704,-1.9775,-2.1037,-1.827,-1.6523,-1.8648,-1.8723,-1.7815,-1.5769,-1.5293,-1.4334,-1.2284,-1.1796,-1.1565,-1.143,-1.1389,-1.1246,-1.09,-1.0867,-1.0793,-1.0724,-1.0717,-1.0717,-1.0717,-1.0717,-1.0717,-1.0717,-1.0717,-1.0717,-1.0717,-1.0717,-1.0717,-1.0439,-1.0622,-1.0819,-1.1158,-1.1457,-1.185,-1.2569,-1.2766,-1.2908,-1.3275,-1.3634,-1.3865,-1.3804,-1.4021,-1.4231,0.0,-1.4312,-1.438,-1.4611,-1.457,-1.457,-1.4719,-1.4903,-1.5147,-1.5472,-1.5716,-1.592,-1.6069,-1.6354,-1.6524,-1.6524,-1.6815,-1.6978,-1.6978,-1.9662,-2.0279,-1.8738,-2.0279,-2.0279,-1.8738,-1.7601,-1.6897,-1.6748,-1.6592,-1.6395,-1.6171,-1.6015,-1.5832,-1.5635,-1.554,-1.5377,-1.5181,-1.5181,-1.5099,-1.5135,-1.5968,-1.5579,-1.4577,-1.4373,-1.4299,-1.4299,-1.4299,-1.4299,-1.4299,-1.4299,-1.4238,-1.4573,-1.6653,-1.6212,-1.5861,-1.9154,-1.8037,-1.6738,-1.9339,-1.7964,-1.682,-1.9339,-1.8856,-1.8049,-1.8681,-1.7986,-1.7125,-1.6424,-1.4859,-1.4022,-1.4935,-1.5089,-1.4705,-1.3868,-1.3514,-1.2948,-1.1896,-1.1694,-1.1592,-1.1531,-1.1443,-1.1301,-1.1084,-1.0927,-1.0813,-1.0724,-1.0717,-1.0717,-1.0717,-1.0717,-1.0717,-1.0717,-1.0717,-1.0717,-1.0717,-1.0717,-1.0717,-1.1029,-1.1301,-1.1565,-1.1803,-1.2277,-1.2739,-1.2935,-1.3207,-1.3471,-1.3648,-1.3892,-1.4075,-1.4075,-1.4163,-1.4299,-1.4482,-1.4428,-1.4434,-1.4645,-1.4584,-1.4536,-1.4611,-1.4652,-1.4821,-1.5187,-1.5493,-1.5764,-1.6001,-1.6252,-1.6435,-1.6517,-1.6775,-1.6937,-1.6978,-1.894,-1.9044,-1.6978,-1.894,-1.894,-1.6978,-1.6978,-1.6876,-1.668,-1.649,-1.6286,-1.6076,-1.592,-1.5771,-1.5628,-1.5472,-1.5323,-1.5181,-1.5181,-1.5072,-1.4896,-1.478,-1.4645,-1.4489,-1.4346,-1.4299,-1.4299,-1.4299,-1.4299,-1.4299,-1.4299,-1.4224,-1.4472,-1.5963,-1.5101,-1.4401,-1.7535,-1.5929,-1.4275,-1.7401,-1.5687,-1.43,-1.7392,-1.6859,-1.5772,-1.6145,-1.5701,-1.4853,-1.3601,-1.2909,-1.2501,-1.2501,-1.2501,-1.2501,-1.2501,-1.2244,-1.1952,-1.1653,-1.1619,-1.1619,-1.1619,-1.1518,-1.1389,-1.1233,-1.109,-1.0941,-1.0785,-1.0744,-1.0717,-1.0717,-1.0717,-1.0717,-1.0717,-1.0717,-1.0717,-1.0717,-1.0717,-1.0717,-1.0989,-1.1305,-1.1925,-1.2366,-1.2813,-1.3227,-1.3532,-1.3831,-1.4007,-1.3865,-1.396,-1.4075,-1.4075,-1.4075,-1.4177,-1.4462,-1.4509,-1.4509,-1.4516,-1.4516,-1.4462,-1.4333,-1.4434,-1.4584,0.0,-1.5031,-1.5384,-1.5825,-1.6008,-1.6218,-1.6503,-1.6673,-1.6829,-1.6978,-1.7083,-1.7083,-1.6978,-1.7083,-1.7083,-1.6978,-1.6978,-1.6822,-1.6517,-1.6225,-1.609,-1.6076,-1.592,-1.5771,-1.5628,-1.5472,-1.5323,-1.5181,-1.5181,-1.5004,-1.4746,-1.474,-1.4645,-1.4489,-1.4346,-1.4299,-1.4299,-1.4299,-1.4299,-1.4299,-1.4299,-1.4299,-1.4265,-1.4203,-1.4148,-1.408,-1.3871,-1.3705,-1.3587,-1.3604,-1.348,-1.3403,-1.3562,-1.3446,-1.3898,-1.5804,-1.4351,-1.3433,-1.536,-1.3904,-1.2501,-1.2501,-1.2501,-1.2501,-1.2501,-1.2244,-1.1952,-1.1653,-1.1619,-1.1619,-1.1619,-1.1613,-1.1545,-1.1396,-1.124,-1.109,-1.088,-1.0799,-1.0717,-1.0717,-1.0717,-1.0717,-1.0717,-1.0717,-1.0717,-1.0717,-1.0717,-1.0717,-1.1592,-1.2047,-1.2535,-1.2983,-1.3356,-1.3668,-1.3878,-1.4,-1.4027,-1.3871,-1.381,-1.3749,-1.3648,-1.379,-1.3987,-1.419,-1.438,-1.4509,-1.4509,-1.4597,-1.457,-1.4326,-1.4428,0.0,0.0,0.0,0.0,-1.5683,-1.594,-1.6212,-1.6503,-1.6666,-1.6822,-1.6978,-1.6978,-1.6978,-1.6978,-1.6978,-1.6978,-1.6978,-1.6876,-1.672,-1.6517,-1.632,-1.6178,-1.6076,-1.592,-1.5771,-1.5628,-1.5472,-1.5323,-1.5181,-1.5181,-1.5004,-1.474,-1.474,-1.4584,-1.4367,-1.4319,-1.4299,-1.4299,-1.4299,-1.4299,-1.4299,-1.4299,-1.4299,-1.4292,-1.4238,-1.415,-1.4027,-1.3824,-1.3702,-1.3593,-1.3437,-1.3403,-1.3403,-1.3403,-1.3363,-1.3507,-1.3945,-1.3422,-1.3051,-1.3538,-1.2993,-1.2501,-1.2501,-1.2501,-1.2433,-1.2237,-1.2121,-1.1952,-1.1653,-1.1619,-1.1619,-1.1619,-1.1619,-1.1552,-1.1402,-1.1341,-1.1206,-1.0894,-1.0833,-1.0759,-1.0724,-1.0717,-1.0717,-1.0717,-1.0717,-1.0717,-1.0717,-1.0717,-1.0772,-1.2203,-1.263,-1.301,-1.3512,-1.3783,-1.3946,-1.4048,-1.4027,-1.3919,-1.3654,-1.3444,-1.3281,-1.318,-1.3275,-1.3498,-1.3919,-1.4197,-1.4407,-1.457,-1.4726,-1.4733,-1.4489,-1.4536,-1.4618,0.0,0.0,0.0,-1.5533,-1.5832,-1.6151,-1.6503,-1.6612,-1.6761,-1.6971,-1.6978,-1.6978,-1.6978,-1.6978,-1.6951,-1.6897,-1.6741,-1.6592,-1.6442,-1.6293,-1.6178,-1.6076,-1.592,-1.5771,-1.5628,-1.5472,-1.5323,-1.5181,-1.5181,-1.5004,-1.474,-1.474,-1.4557,-1.4299,-1.4299,-1.4299,-1.4299,-1.4299,-1.4299,-1.4299,-1.4299,-1.4299,-1.4299,-1.4299,-1.4231,-1.4102,-1.3892,-1.3777,-1.3654,-1.3451,-1.3403,-1.3403,-1.3403,-1.3403,-1.3342,-1.3152,-1.303,-1.2895,-1.2698,-1.2576,-1.2501,-1.2501,-1.2501,-1.2393,-1.2101,-1.2135,-1.1952,-1.1653,-1.1619,-1.1619,-1.1619,-1.1619,-1.1579,-1.1477,-1.1423,-1.1307,-1.1118,-1.0934,-1.0833,-1.0739,-1.0751,-1.0717,-1.0717,-1.0717,-1.0717,-1.0724,-1.0778,-1.0759,-1.2773,-1.3091,-1.3356,-1.3939,-1.4075,-1.4068,-1.4061,-1.3926,-1.3668,-1.3227,-1.2895,-1.2678,0.0,0.0,-1.2793,-1.3648,-1.396,-1.4245,-1.4665,-1.4875,-1.4923,0.0,0.0,0.0,0.0,0.0,0.0,-1.5404,0.0,-1.6035,-1.6483,-1.6517,-1.6659,-1.6958,-1.6978,-1.6978,-1.6978,-1.6971,-1.6897,-1.6748,-1.6585,-1.6442,-1.6307,-1.6151,-1.6083,-1.6076,-1.592,-1.5771,-1.5628,-1.5472,-1.5323,-1.5181,-1.5181,-1.5004,-1.474,-1.474,-1.4557,-1.4299,-1.4299,-1.4299,-1.4299,-1.4299,-1.4299,-1.4299,-1.4299,-1.4299,-1.4299,-1.4299,-1.4299,-1.4231,-1.3919,-1.3838,-1.377,-1.3471,-1.3403,-1.3403,-1.3403,-1.3403,-1.3397,-1.339,-1.3152,-1.2949,-1.3015,-1.2698,-1.2501,-1.2501,-1.2501,-1.2393,-1.2101,-1.2135,-1.1952,-1.1653,-1.1619,-1.1619,-1.1619,-1.1619,-1.1619,-1.1619,-1.1484,-1.1402,-1.1389,-1.1118,-1.0894,-1.088,-1.0806,-1.0724,-1.0717,-1.0724,-1.0731,-1.0738,-1.082,-1.088,-1.2976,-1.3471,-1.3905,-1.4177,-1.4156,-1.4041,-1.3926,-1.3532,-1.3085,-1.2745,-1.2345,-1.1993,-1.1775,0.0,0.0,-1.2976,-1.3797,0.0,-1.4557,-1.4896,0.0,-1.493,-1.5004,-1.5086,-1.5126,-1.5337,0.0,0.0,-1.5649,-1.5893,-1.6341,-1.6463,-1.6612,-1.6802,-1.6917,-1.6978,-1.6978,-1.687,-1.6788,-1.6748,-1.649,-1.6347,-1.6307,-1.6151,-1.6083,-1.6076,-1.592,-1.5771,-1.5628,-1.5472,-1.5323,-1.5181,-1.5181,-1.5004,-1.474,-1.474,-1.4557,-1.4299,-1.4299,-1.4299,-1.4299,-1.4299,-1.4299,-1.4299,-1.4299,-1.4299,-1.4299,-1.4299,-1.4299,-1.4231,-1.3919,-1.3838,-1.377,-1.3471,-1.3403,-1.3403,-1.3403,-1.3403,-1.337,-1.3254,-1.299,-1.2752,-1.2637,-1.2556,-1.2501,-1.2501,-1.2501,-1.2393,-1.2101,-1.2135,-1.1952,-1.1653,-1.1619,-1.1619,-1.1619,-1.1619,-1.1619,-1.1619,-1.1586,-1.1511,-1.1396,-1.1321,-1.1172,-1.0887,-1.084,-1.0766,-1.0717,-1.0766,-1.0826,-1.0826,-1.1043,-1.1084,-1.3444,-1.3865,-1.4177,-1.4197,-1.4082,-1.3865,-1.3451,-1.2996,-1.2508,-1.1938,-1.1565,-1.1253,-1.0955,-1.1525,-1.2149,0.0,0.0,0.0,-1.4557,-1.4889,-1.5106,0.0,-1.5235,-1.5337,-1.5466,-1.5574,-1.5696,0.0,-1.5832,-1.5974,-1.6293,-1.6442,-1.6558,-1.6646,-1.6795,-1.6849,-1.6781,-1.6761,-1.6686,-1.6558,-1.6388,-1.6273,-1.6205,-1.6123,-1.6042,-1.5974,0.0,-1.5737,-1.5533,-1.5445,-1.5323,-1.5181,-1.5181,-1.5004,-1.474,-1.474,-1.4557,-1.4299,-1.4299,-1.4299,-1.4299,-1.4299,-1.4299,-1.4299,-1.4299,-1.4299,-1.4299,-1.4299,-1.4299,-1.4245,-1.4,-1.3892,-1.3783,-1.3553,-1.3451,-1.3403,-1.3403,-1.3403,-1.3356,-1.32,-1.299,-1.2779,-1.263,-1.2549,-1.2501,-1.2501,-1.2501,-1.242,-1.2189,-1.2101,-1.1952,-1.1653,-1.1619,-1.1619,-1.1619,-1.1619,-1.1619,-1.1619,-1.1619,-1.1579,-1.1497,-1.1423,-1.1314,-1.1145,-1.1077,-1.1002,-1.0914,-1.1002,-1.1043,-1.105,-1.1192,-1.1226,-1.396,-1.4183,-1.4265,-1.4109,-1.3926,-1.3593,-1.2868,-1.2406,-1.1904,-1.1063,-1.0664,-1.0521,-1.0263,-1.0724,-1.1382,-1.2135,0.0,-1.3715,-1.4611,-1.4875,-1.5086,-1.5404,-1.5438,-1.556,-1.5852,-1.5771,-1.5805,-1.6062,-1.6083,-1.6137,-1.6273,-1.6415,-1.6503,-1.6524,-1.6653,-1.6653,-1.6524,-1.6632,-1.6564,-1.6307,-1.6286,-1.6212,-1.6083,-1.6062,-1.5981,-1.5852,0.0,0.0,-1.5411,-1.5391,-1.5303,-1.5181,-1.5181,-1.5004,-1.474,-1.474,-1.4557,-1.4299,-1.4299,-1.4299,-1.4299,-1.4299,-1.4299,-1.4299,-1.4299,-1.4299,-1.4299,-1.4299,-1.4299,-1.4265,-1.4109,-1.3953,-1.3804,-1.3661,-1.3512,-1.3403,-1.3403,-1.3403,-1.3356,-1.32,-1.3057,-1.2908,-1.2759,-1.2603,-1.2501,-1.2501,-1.2501,-1.2447,-1.2311,-1.2155,-1.1959,-1.1681,-1.1633,-1.1619,-1.1619,-1.1619,-1.1619,-1.1619,-1.1619,-1.1619,-1.1619,-1.1491,-1.1409,-1.1389,-1.126,-1.1255,-1.1234,-1.1255,-1.1261,-1.1199,-1.1348,-1.1341,-1.4014,-1.4183,-1.4265,-1.4109,-1.377,-1.3315,-1.2684,-1.1925,0.0,-1.0683,-1.0256,-0.9964,-0.991,-1.0493,-1.1233,-1.1979,-1.2834,-1.3715,-1.4611,-1.4875,-1.5126,0.0,-1.5601,-1.5716,-1.6015,-1.6022,0.0,0.0,0.0,0.0,-1.6123,-1.6266,-1.6402,-1.6517,-1.6544,-1.6544,-1.6524,-1.6429,-1.6361,-1.6307,-1.6185,-1.611,-1.6076,-1.5947,-1.5879,-1.5839,0.0,0.0,-1.5398,-1.5276,-1.5208,-1.5181,-1.5181,-1.5004,-1.474,-1.474,-1.4557,-1.4299,-1.4299,-1.4299,-1.4299,-1.4299,-1.4299,-1.4299,-1.4299,-1.4299,-1.4299,-1.4299,-1.4299,-1.4265,-1.4109,-1.3953,-1.3804,-1.3661,-1.3512,-1.3403,-1.3403,-1.3403,-1.3356,-1.32,-1.3057,-1.2908,-1.2759,-1.2603,-1.2501,-1.2501,-1.2501,-1.2447,-1.2311,-1.2155,-1.1993,-1.1816,-1.1687,-1.1619,-1.1619,-1.1619,-1.1619,-1.1619,-1.1619,-1.1619,-1.1619,-1.1592,-1.1518,-1.1396,-1.1362,-1.1287,-1.1234,-1.1287,-1.1348,-1.1355,-1.1511,-1.1497,-1.415,-1.4245,-1.4245,-1.4007,-1.3559,-1.2956,-1.2115,0.0,0.0,-0.9937,-0.9686,-0.9544,-0.9388,-1.0039,-1.0765,-1.128,-1.2047,-1.2949,-1.4014,-1.4292,-1.4665,-1.5432,-1.5588,-1.5757,-1.6056,-1.6083,0.0,0.0,0.0,0.0,-1.6083,-1.6151,-1.6259,-1.6408,-1.6415,-1.6374,-1.6293,-1.6307,-1.6273,-1.6191,-1.6117,-1.6083,-1.6076,-1.5927,-1.5811,-1.573,0.0,0.0,-1.5289,-1.5215,-1.5181,-1.5181,-1.5181,-1.5004,-1.474,-1.474,-1.4557,-1.4299,-1.4299,-1.4299,-1.4299,-1.4299,-1.4299,-1.4299,-1.4299,-1.4299,-1.4299,-1.4299,-1.4299,-1.4285,-1.4211,-1.4014,-1.3824,-1.3756,-1.3566,-1.3403,-1.3403,-1.3403,-1.3376,-1.3308,-1.3173,-1.3024,-1.2874,-1.2725,-1.2589,-1.2515,-1.2501,-1.2474,-1.2406,-1.2271,-1.2094,-1.1857,-1.1769,-1.1701,-1.1626,-1.1619,-1.1619,-1.1619,-1.1619,-1.1619,-1.1619,-1.1619,-1.1586,-1.1511,-1.1511,-1.147,-1.1402,-1.147,-1.1511,-1.1511,-1.1586,-1.1579,-1.4211,-1.4278,-1.4224,-1.3919,-1.337,-1.2644,-1.1626,-1.0853,-1.012,-0.9378,-0.9255,-0.9184,-0.9015,-0.9591,-1.0236,0.0,-1.1341,-1.2216,-1.3458,-1.381,-1.4306,0.0,-1.5547,0.0,-1.6056,-1.6083,0.0,0.0,0.0,0.0,0.0,-1.6083,-1.6137,-1.6259,-1.6259,-1.6205,-1.6083,-1.6198,-1.6198,-1.6083,-1.6083,-1.6083,-1.6076,-1.5893,-1.5744,-1.5628,0.0,0.0,0.0,-1.5181,-1.5181,-1.5181,-1.5181,-1.5004,-1.474,-1.474,-1.4557,-1.4299,-1.4299,-1.4299,-1.4299,-1.4299,-1.4299,-1.4299,-1.4299,-1.4299,-1.4299,-1.4299,-1.4299,-1.4299,-1.4299,-1.4075,-1.3824,-1.3763,-1.3566,-1.3403,-1.3403,-1.3403,-1.3403,-1.3403,-1.3275,-1.3139,-1.3024,-1.2854,-1.2691,-1.2569,-1.2522,-1.2501,-1.2501,-1.2406,-1.223,-1.1959,-1.187,-1.1782,-1.1674,-1.164,-1.1619,-1.1619,-1.1619,-1.1619,-1.1619,-1.1619,-1.1619,-1.1619,-1.1619,-1.1619,-1.1619,-1.1619,-1.1619,-1.1619,-1.1619,-1.1619,-1.4048,-1.4197,-1.4224,-1.3919,-1.3288,-1.2515,-1.1599,0.0,-0.9741,-0.9309,-0.8947,-0.8845,-0.9146,-0.9313,-0.9781,-1.0698,-1.1328,-1.2101,-1.3444,-1.3994,-1.4543,-1.5316,0.0,0.0,-1.6056,0.0,0.0,0.0,0.0,0.0,0.0,-1.6083,-1.609,-1.6103,-1.6103,-1.6096,-1.6083,-1.6096,-1.6096,-1.6083,-1.6083,-1.6083,-1.6076,-1.5791,-1.5649,-1.5622,0.0,0.0,0.0,-1.5181,-1.5181,-1.5181,-1.5181,-1.5004,-1.474,-1.474,-1.4557,-1.4299,-1.4299,-1.4299,-1.4299,-1.4299,-1.4299,-1.4299,-1.4299,-1.4299,-1.4299,-1.4299,-1.4299,-1.4299,-1.4299,-1.4075,-1.3777,-1.3505,-1.3417,-1.3403,-1.3403,-1.3403,-1.3403,-1.3403,-1.3275,-1.3166,-1.3152,-1.2915,-1.2725,-1.2712,-1.2589,-1.2501,-1.2501,-1.2488,-1.242,-1.2264,-1.1999,-1.1823,-1.1816,-1.1694,-1.1619,-1.1619,-1.1619,-1.1619,-1.1619,-1.1619,-1.1619,-1.1619,-1.1619,-1.1619,-1.1619,-1.1619,-1.1619,-1.1619,-1.1619,-1.1619,-1.3817,-1.398,-1.3973,-1.3763,-1.3085,-1.223,-1.1328,-1.0446,-0.9666,-0.9137,-0.8933,-0.8886,-0.9001,-0.9144,-0.9469,-1.0154,-1.0435,-1.1084,-1.2257,-1.2807,-1.3464,-1.4482,-1.4977,0.0,0.0,0.0,0.0,0.0,0.0,0.0,0.0,-1.6083,-1.6083,-1.6083,-1.6083,-1.6083,-1.6083,-1.6083,-1.6083,-1.6083,-1.6083,-1.6035,-1.594,-1.573,-1.5588,-1.5493,0.0,0.0,0.0,-1.5181,-1.5181,-1.5181,-1.5181,-1.5004,-1.474,-1.474,-1.4557,-1.4299,-1.4299,-1.4299,-1.4299,-1.4299,-1.4299,-1.4299,-1.4299,-1.4299,-1.4299,-1.4299,-1.4299,-1.4299,-1.4299,-1.4075,-1.379,-1.3587,-1.3464,-1.3403,-1.3403,-1.3403,-1.3403,-1.3403,-1.3349,-1.3281,-1.3186,-1.3003,-1.2834,-1.2745,-1.2603,-1.2501,-1.2501,-1.2501,-1.2481,-1.2427,-1.223,-1.2067,-1.1979,-1.183,-1.1748,-1.1748,-1.1667,-1.1619,-1.1619,-1.1619,-1.1619,-1.1619,-1.1619,-1.1619,-1.1619,-1.1619,-1.1619,-1.1619,-1.1619,-1.1619,-1.3376,-1.3607,-1.3668,-1.3478,-1.282,-1.1986,-1.1015,-1.0297,-0.9605,-0.8993,-0.8844,-0.8831,-0.8871,-0.9055,-0.9344,-0.9693,-0.9998,-1.0534,-1.1538,-1.2108,-1.2813,0.0,0.0,0.0,0.0,0.0,0.0,0.0,0.0,0.0,0.0,-1.6083,-1.6083,-1.6083,-1.6083,-1.6083,-1.6083,-1.6083,-1.6083,-1.6083,-1.6083,-1.6001,-1.5845,-1.5703,-1.5554,0.0,0.0,0.0,0.0,-1.5181,-1.5181,-1.5181,-1.514,-1.4964,-1.4733,-1.4692,-1.4516,-1.4299,-1.4299,-1.4299,-1.4299,-1.4299,-1.4299,-1.4299,-1.4299,-1.4299,-1.4299,-1.4299,-1.4299,-1.4292,-1.4245,-1.4034,-1.3804,-1.3661,-1.3512,-1.3403,-1.3403,-1.3403,-1.3403,-1.3403,-1.3403,-1.337,-1.3261,-1.3119,-1.2976,-1.282,-1.2664,-1.2556,-1.2508,-1.2501,-1.2501,-1.2501,-1.2413,-1.2291,-1.2142,-1.1986,-1.1877,-1.1837,-1.1735,-1.166,-1.1619,-1.1619,-1.1619,-1.1619,-1.1619,-1.1619,-1.1619,-1.1619,-1.1619,-1.1619,-1.1619,-1.1619,-1.2664,-1.3064,-1.3336,-1.3044,-1.2515,-1.183,-1.0928,-1.0148,-0.9483,-0.8979,-0.8818,-0.8757,-0.8858,-0.9055,-0.9309,-0.9564,-1.01,-1.0799,-1.1701,-1.2345,0.0,0.0,0.0,0.0,0.0,0.0,0.0,0.0,0.0,0.0,0.0,0.0,-1.6083,-1.6083,-1.6083,-1.6083,-1.6083,-1.6083,-1.6083,-1.6083,-1.6083,-1.6001,-1.5845,-1.5703,0.0,0.0,0.0,0.0,0.0,-1.5181,-1.5181,-1.5167,-1.5025,-1.4875,-1.4719,-1.457,-1.4421,-1.4299,-1.4299,-1.4299,-1.4299,-1.4299,-1.4299,-1.4299,-1.4299,-1.4299,-1.4299,-1.4299,-1.4299,-1.4265,-1.4116,-1.396,-1.3804,-1.3661,-1.3512,-1.3403,-1.3403,-1.3403,-1.3403,-1.3403,-1.3403,-1.3403,-1.3397,-1.3268,-1.3119,-1.2983,-1.2827,-1.2671,-1.2522,-1.2501,-1.2501,-1.2501,-1.2501,-1.244,-1.2298,-1.2149,-1.1993,-1.1837,-1.183,-1.1769,-1.1626,-1.1619,-1.1619,-1.1619,-1.1619,-1.1619,-1.1619,-1.1619,-1.1619,-1.1619,-1.1619,-1.1619,-1.1735,-1.2067,-1.2257,-1.1965,-1.1592,-1.1118,-1.0354,-0.9924,-0.9483,-0.8979,-0.8844,-0.8824,-0.8871,-0.8974,-0.9273,-1.008,-1.0371,-1.0806,0.0,0.0,0.0,0.0,0.0,0.0,0.0,0.0,0.0,0.0,0.0,0.0,0.0,0.0,-1.6083,-1.6083,-1.6083,-1.6083,-1.6083,-1.6083,-1.6029,-1.5927,-1.5927,-1.5791,-1.5547,-1.5506,0.0,0.0,0.0,0.0,0.0,-1.5181,-1.5126,-1.5031,-1.4991,-1.4814,-1.4577,-1.4529,-1.4421,-1.4299,-1.4299,-1.4299,-1.4299,-1.4299,-1.4299,-1.4299,-1.4299,-1.4299,-1.4299,-1.4299,-1.4299,-1.4292,-1.4238,-1.4116,-1.396,-1.381,-1.3661,-1.3532,-1.3424,-1.3403,-1.3403,-1.3403,-1.3403,-1.3403,-1.3403,-1.3275,-1.3159,-1.3112,-1.2888,-1.2712,-1.2664,-1.2569,-1.2501,-1.2501,-1.2501,-1.2481,-1.244,-1.2298,-1.2196,-1.2149,-1.2047,-1.1925,-1.1769,-1.1762,-1.1714,-1.1619,-1.1619,-1.1619,-1.1619,-1.1619,-1.1619,-1.1619,-1.1619,-1.1619,-1.0907,-1.1274,-1.145,-1.1274,-1.0995,-1.057,-1.0024,-0.9734,-0.9415,-0.8966,-0.8885,-0.8885,-0.8885,-0.8981,-0.9252,-0.9958,-1.0215,-1.0636,0.0,0.0,0.0,0.0,0.0,0.0,0.0,0.0,0.0,0.0,0.0,0.0,0.0,0.0,-1.5913,-1.5913,-1.6022,-1.6083,-1.6083,-1.6022,-1.5947,-1.5852,-1.5798,-1.5649,-1.5411,0.0,0.0,0.0,0.0,0.0,0.0,-1.5181,-1.5099,-1.4964,-1.4909,-1.4733,-1.4502,-1.4448,-1.4373,-1.4299,-1.4299,-1.4299,-1.4299,-1.4299,-1.4299,-1.4299,-1.4299,-1.4299,-1.4299,-1.4299,-1.4299,-1.4299,-1.4299,-1.4183,-1.4034,-1.3878,-1.3736,-1.3587,-1.3437,-1.3403,-1.3403,-1.3403,-1.3403,-1.3403,-1.3403,-1.3322,-1.3241,-1.318,-1.3017,-1.2854,-1.2745,-1.2651,-1.2562,-1.2508,-1.2501,-1.2501,-1.2501,-1.242,-1.2345,-1.2291,-1.2203,-1.2081,-1.1925,-1.1918,-1.185,-1.1701,-1.1701,-1.1674,-1.1619,-1.1674,-1.1701,-1.1701,-1.1701,-1.1674,0.0,-1.0602,-1.0779,-1.0759,-1.0616,-1.0304,-0.9869,-0.9551,0.0,-0.8939,-0.8871,-0.8878,-0.8925,-0.9076,-0.9289,-0.9469,-0.9856,-1.0439,0.0,-1.1877,0.0,0.0,0.0,0.0,0.0,0.0,0.0,0.0,0.0,0.0,0.0,0.0,0.0,-1.5642,-1.5906,-1.6049,-1.6049,-1.5906,-1.5832,-1.5818,-1.5683,-1.554,-1.5398,0.0,0.0,0.0,0.0,0.0,0.0,-1.5174,-1.5086,-1.4936,-1.4787,-1.4631,-1.4482,-1.4346,-1.4299,-1.4299,-1.4299,-1.4299,-1.4299,-1.4299,-1.4299,-1.4299,-1.4299,-1.4299,-1.4299,-1.4299,-1.4299,-1.4299,-1.4299,-1.4197,-1.4048,-1.3878,-1.3743,-1.36,-1.3437,-1.3403,-1.3403,-1.3403,-1.3403,-1.3403,-1.3403,-1.3403,-1.3356,-1.3207,-1.318,-1.3071,-1.2786,-1.2739,-1.2671,-1.2515,-1.2501,-1.2501,-1.2501,-1.2501,-1.2447,-1.2311,-1.2305,-1.2237,-1.2088,-1.2081,-1.2006,-1.185,-1.1843,-1.1782,-1.1653,-1.1782,-1.1843,-1.1843,-1.1843,-1.1769,-0.9042,0.0,-0.9869,-0.9632,-0.9612,-0.9585,0.0,-0.9171,-0.8966,-0.8898,-0.879,-0.8906,-0.9367,-0.9286,-0.9562,-1.0633,-1.0833,-1.1179,0.0,0.0,0.0,0.0,0.0,0.0,0.0,0.0,0.0,0.0,0.0,0.0,0.0,0.0,0.0,-1.5642,-1.571,-1.5744,-1.5744,-1.571,-1.5628,-1.5513,-1.5479,-1.5384,-1.5235,0.0,0.0,0.0,0.0,0.0,-1.5174,-1.5065,-1.493,-1.478,-1.4624,-1.4475,-1.4346,-1.4312,-1.4299,-1.4299,-1.4299,-1.4299,-1.4299,-1.4299,-1.4299,-1.4299,-1.4299,-1.4299,-1.4299,-1.4299,-1.4299,-1.4299,-1.4299,-1.4272,-1.4177,-1.3905,-1.3817,-1.3722,-1.3458,-1.3403,-1.3403,-1.3403,-1.3403,-1.3403,-1.3403,-1.3403,-1.339,-1.3356,-1.3247,-1.3112,-1.2929,-1.28,-1.2671,-1.2515,-1.2501,-1.2501,-1.2501,-1.2501,-1.2488,-1.2454,-1.2454,-1.2386,-1.2244,-1.2237,-1.2162,-1.2013,-1.2006,-1.1993,-1.1959,-1.1993,-1.2006,-1.2006,-1.2006,-1.1925,-0.8486,-0.8994,-0.9483,-0.9388,-0.9422,-0.9449,-0.9293,-0.9042,-0.8811,-0.8743,-0.8716,-0.8852,-0.9313,-0.932,-0.9644,-1.0595,-1.0873,0.0,0.0,0.0,0.0,0.0,0.0,0.0,0.0,0.0,0.0,0.0,0.0,0.0,0.0,0.0,0.0,0.0,-1.5432,-1.5499,-1.5635,-1.5567,-1.5493,-1.5411,-1.5337,-1.5262,-1.5181,0.0,0.0,0.0,0.0,0.0,-1.5072,-1.4923,-1.4774,-1.4624,-1.4543,-1.4428,-1.4299,-1.4299,-1.4299,-1.4299,-1.4299,-1.4299,-1.4299,-1.4299,-1.4299,-1.4299,-1.4299,-1.4299,-1.4299,-1.4299,-1.4299,-1.4299,-1.4299,-1.4299,-1.4224,-1.3912,-1.3838,-1.3763,-1.3464,-1.3403,-1.3403,-1.3403,-1.3403,-1.3403,-1.3403,-1.3403,-1.3403,-1.3403,-1.3329,-1.322,-1.3078,-1.2929,-1.2779,-1.2623,-1.2542,-1.2501,-1.2501,-1.2501,-1.2501,-1.2501,-1.2501,-1.2467,-1.2393,-1.2386,-1.2318,-1.2169,-1.2094,-1.2094,-1.2169,-1.2169,-1.2169,-1.2169,-1.2169,-1.2088,-0.8323,-0.8866,-0.9429,-0.949,-0.9557,-0.9571,-0.9415,-0.9049,-0.8716,-0.8608,-0.8669,-0.8859,-0.9225,-0.9415,-0.9727,0.0,0.0,0.0,0.0,0.0,0.0,0.0,0.0,0.0,0.0,0.0,0.0,0.0,0.0,0.0,0.0,0.0,0.0,0.0,-1.5181,-1.5309,-1.5567,-1.5438,-1.5377,-1.5371,-1.5242,-1.5181,-1.5181,-1.5181,0.0,0.0,0.0,0.0,-1.4923,-1.4767,-1.4631,-1.4509,-1.4489,-1.4407,-1.4299,-1.4299,-1.4299,-1.4299,-1.4299,-1.4299,-1.4299,-1.4299,-1.4299,-1.4299,-1.4299,-1.4299,-1.4299,-1.4299,-1.4299,-1.4299,-1.4299,-1.4299,-1.4224,-1.3912,-1.3838,-1.3763,-1.3464,-1.3403,-1.3403,-1.3403,-1.3403,-1.3403,-1.3403,-1.3403,-1.3403,-1.3403,-1.3403,-1.3349,-1.3193,-1.3051,-1.2901,-1.2745,-1.2589,-1.2501,-1.2501,-1.2501,-1.2501,-1.2501,-1.2501,-1.2501,-1.2501,-1.2501,-1.2447,-1.2325,-1.2196,-1.2196,-1.2325,-1.2325,-1.2325,-1.2325,-1.2325,-1.2244,-0.854,-0.9096,-0.949,-0.9074,-0.9327,-0.9571,-0.9415,-0.913,-0.8933,-0.9084,-0.8974,-0.9053,-0.9727,-1.0039,-1.0419,0.0,0.0,0.0,0.0,0.0,0.0,0.0,0.0,0.0,0.0,0.0,0.0,0.0,0.0,0.0,0.0,0.0,0.0,0.0,0.0,-1.5208,-1.5255,-1.5228,-1.5215,-1.5215,-1.5194,-1.5181,-1.5181,-1.5181,-1.512,0.0,0.0,-1.4896,-1.476,-1.4611,-1.4529,-1.4502,-1.438,-1.4319,-1.4299,-1.4299,-1.4299,-1.4299,-1.4299,-1.4299,-1.4299,-1.4299,-1.4299,-1.4299,-1.4299,-1.4299,-1.4299,-1.4299,-1.4299,-1.4299,-1.4299,-1.4299,-1.4224,-1.3912,-1.3838,-1.3763,-1.3464,-1.3403,-1.3403,-1.3403,-1.3403,-1.3403,-1.3403,-1.3403,-1.3403,-1.3403,-1.3403,-1.3349,-1.3193,-1.3051,-1.2901,-1.2745,-1.2589,-1.2501,-1.2501,-1.2501,-1.2501,-1.2501,-1.2501,-1.2501,-1.2501,-1.2501,-1.2488,-1.2467,-1.2447,-1.2447,-1.2467,-1.2467,-1.2467,-1.2467,-1.2467,-1.2393,-0.8238,-0.8845,-0.9313,-0.9103,-0.9578,-1.0025,-0.9795,-0.9517,-0.9293,-0.9279,-0.9286,-0.9483,-1.0066,0.0,-1.0867,-1.1925,0.0,0.0,0.0,0.0,0.0,0.0,0.0,0.0,0.0,0.0,0.0,0.0,0.0,0.0,0.0,0.0,0.0,0.0,0.0,0.0,-1.4943,-1.4943,-1.5025,-1.5181,-1.5106,-1.5065,-1.5065,-1.4984,-1.4909,0.0,0.0,-1.4685,-1.4604,-1.4462,-1.4394,-1.4387,-1.4326,-1.4299,-1.4299,-1.4299,-1.4299,-1.4299,-1.4299,-1.4299,-1.4299,-1.4299,-1.4299,-1.4299,-1.4299,-1.4299,-1.4299,-1.4299,-1.4299,-1.4299,-1.4299,-1.4299,-1.4224,-1.3912,-1.3838,-1.3763,-1.3464,-1.3403,-1.3403,-1.3403,-1.3403,-1.3403,-1.3403,-1.3403,-1.3403,-1.3403,-1.3403,-1.3376,-1.3302,-1.3166,-1.3017,-1.2868,-1.2718,-1.2589,-1.2508,-1.2501,-1.2501,-1.2501,-1.2501,-1.2501,-1.2501,-1.2501,-1.2501,-1.2501,-1.2501,-1.2501,-1.2501,-1.2501,-1.2501,-1.2501,-1.2501,-1.2467,-0.817,-0.8689,-0.9228,-0.9303,-0.9802,-1.031,-1.0166,-0.9978,-0.9761,-0.9754,-0.9842,-1.0032,-1.0371,-1.0792,0.0,-1.2535,0.0,0.0,0.0,0.0,0.0,0.0,0.0,0.0,0.0,0.0,0.0,0.0,0.0,0.0,0.0,0.0,0.0,0.0,0.0,0.0,-1.474,-1.474,-1.4855,-1.5079,-1.497,-1.4916,-1.4909,-1.4794,-1.4719,-1.4679,-1.4563,-1.4489,-1.4455,-1.4346,-1.4299,-1.4299,-1.4299,-1.4299,-1.4299,-1.4299,-1.4299,-1.4299,-1.4299,-1.4299,-1.4299,-1.4299,-1.4299,-1.4299,-1.4299,-1.4299,-1.4299,-1.4299,-1.4299,-1.4299,-1.4299,-1.4299,-1.4224,-1.3912,-1.3838,-1.3763,-1.3464,-1.3403,-1.3403,-1.3403,-1.3403,-1.3403,-1.3403,-1.3403,-1.3403,-1.3403,-1.3403,-1.3403,-1.3403,-1.3268,-1.3132,-1.3024,-1.2874,-1.2718,-1.2569,-1.2522,-1.2501,-1.2501,-1.2501,-1.2501,-1.2501,-1.2501,-1.2501,-1.2501,-1.2501,-1.2501,-1.2501,-1.2501,-1.2501,-1.2501,-1.2501,-1.2501,-0.8764,-0.9008,-0.9275,-0.9503,-0.9727,-1.0012,-1.0548,-1.0446,-1.0344,-1.0751,-1.0779,-1.0793,-1.0826,-1.1599,0.0,0.0,0.0,0.0,0.0,0.0,0.0,0.0,0.0,0.0,0.0,0.0,0.0,0.0,0.0,0.0,0.0,0.0,0.0,0.0,0.0,0.0,-1.474,-1.474,-1.4753,-1.4774,-1.476,-1.4753,-1.4753,-1.4746,-1.4665,-1.4529,-1.4516,-1.4434,-1.4312,-1.4306,-1.4299,-1.4299,-1.4299,-1.4299,-1.4299,-1.4299,-1.4299,-1.4299,-1.4299,-1.4299,-1.4299,-1.4299,-1.4299,-1.4299,-1.4299,-1.4299,-1.4299,-1.4299,-1.4299,-1.4299,-1.4299,-1.4299,-1.4224,-1.3912,-1.3838,-1.3763,-1.3464,-1.3403,-1.3403,-1.3403,-1.3403,-1.3403,-1.3403,-1.3403,-1.3403,-1.3403,-1.3403,-1.3403,-1.3403,-1.3268,-1.3166,-1.3159,-1.303,-1.2881,-1.2725,-1.2583,-1.2501,-1.2501,-1.2501,-1.2501,-1.2501,-1.2501,-1.2501,-1.2501,-1.2501,-1.2501,-1.2501,-1.2501,-1.2501,-1.2501,-1.2501,-1.2501,-0.8479,-0.8899,-0.932,-0.9442,-0.9788,-1.0243,-1.0744,-1.0921,-1.1097,-1.1545,-1.164,-1.1667,-1.1769,0.0,-1.2861,0.0,0.0,0.0,0.0,0.0,0.0,0.0,0.0,0.0,0.0,0.0,0.0,0.0,0.0,0.0,0.0,0.0,0.0,0.0,0.0,0.0,0.0,-1.4468,-1.4468,-1.4468,-1.4557,-1.4597,-1.459,-1.4509,-1.4434,-1.438,-1.438,-1.4346,-1.4299,-1.4299,-1.4299,-1.4299,-1.4299,-1.4299,-1.4299,-1.4299,-1.4299,-1.4299,-1.4299,-1.4299,-1.4299,-1.4299,-1.4299,-1.4299,-1.4299,-1.4299,-1.4299,-1.4299,-1.4299,-1.4299,-1.4299,-1.4299,-1.4224,-1.3912,-1.3838,-1.3763,-1.3464,-1.3403,-1.3403,-1.3403,-1.3403,-1.3403,-1.3403,-1.3403,-1.3403,-1.3403,-1.3403,-1.3403,-1.3403,-1.3349,-1.3275,-1.3186,-1.2963,-1.2793,-1.2732,-1.2589,-1.2501,-1.2501,-1.2501,-1.2501,-1.2501,-1.2501,-1.2501,-1.2501,-1.2501,-1.2501,-1.2501,-1.2501,-1.2501,-1.2501,-1.2501,-1.2501,-0.8492,-0.892,-0.9401,-0.9496,-0.9937,-1.05,-1.109,-1.1348,-1.1633,-1.2223,-1.2271,-1.2264,-1.2467,-1.2712,0.0,0.0,0.0,0.0,0.0,0.0,0.0,0.0,0.0,0.0,0.0,0.0,0.0,0.0,0.0,0.0,0.0,0.0,0.0,0.0,0.0,0.0,0.0,-1.4299,-1.4299,-1.4299,-1.4401,-1.4441,-1.4441,-1.4346,-1.4299,-1.4299,-1.4299,-1.4299,-1.4299,-1.4299,-1.4299,-1.4299,-1.4299,-1.4299,-1.4299,-1.4299,-1.4299,-1.4299,-1.4299,-1.4299,-1.4299,-1.4299,-1.4299,-1.4299,-1.4299,-1.4299,-1.4299,-1.4299,-1.4299,-1.4299,-1.4299,-1.4299,-1.4224,-1.3912,-1.3838,-1.3763,-1.3464,-1.3403,-1.3403,-1.3403,-1.3403,-1.3403,-1.3403,-1.3403,-1.3403,-1.3403,-1.3403,-1.3403,-1.3403,-1.3403,-1.3363,-1.3254,-1.3017,-1.2854,-1.2807,-1.2664,-1.2556,-1.2508,-1.2501,-1.2501,-1.2501,-1.2501,-1.2501,-1.2501,-1.2501,-1.2501,-1.2501,-1.2501,-1.2501,-1.2501,-1.2501,-1.2501,-0.8974,-0.9157,-0.9456,-0.9747,-1.0168,-1.0738,-1.1633,-1.1728,-1.1884,-1.2779,-1.2718,-1.2603,-1.2908,-1.284,0.0,0.0,0.0,0.0,0.0,0.0,0.0,0.0,0.0,0.0,0.0,0.0,0.0,0.0,0.0,0.0,0.0,0.0,0.0,0.0,0.0,0.0,0.0,-1.4299,-1.4299,-1.4299,-1.4299,-1.4299,-1.4299,-1.4299,-1.4299,-1.4299,-1.4299,-1.4299,-1.4299,-1.4299,-1.4299,-1.4299,-1.4299,-1.4299,-1.4299,-1.4299,-1.4299,-1.4299,-1.4299,-1.4299,-1.4299,-1.4299,-1.4299,-1.4299,-1.4299,-1.4299,-1.4299,-1.4299,-1.4299,-1.4299,-1.4299,-1.4299,-1.4217,-1.3912,-1.3838,-1.3756,-1.3464,-1.3403,-1.3403,-1.3403,-1.3403,-1.3403,-1.3403,-1.3403,-1.3403,-1.3403,-1.3403,-1.3403,-1.3403,-1.3403,-1.3403,-1.3403,-1.3261,-1.3112,-1.2976,-1.282,-1.2664,-1.2515,-1.2501,-1.2501,-1.2501,-1.2501,-1.2501,-1.2501,-1.2501,-1.2501,-1.2501,-1.2501,-1.2501,-1.2501,-1.2501,-1.2501,-0.8716,-0.9144,-0.9741,-0.9937,-1.0643,-1.1436,-1.202,-1.2196,-1.2433,-1.3125,-1.3112,-1.3003,-1.3091,-1.3159,0.0,0.0,0.0,0.0,0.0,0.0,0.0,0.0,0.0,0.0,0.0,0.0,0.0,0.0,0.0,0.0,0.0,0.0,0.0,0.0,0.0,0.0,0.0,0.0,-1.4299,-1.4299,-1.4299,-1.4299,-1.4299,-1.4299,-1.4299,-1.4299,-1.4299,-1.4299,-1.4299,-1.4299,-1.4299,-1.4299,-1.4299,-1.4299,-1.4299,-1.4299,-1.4299,-1.4299,-1.4299,-1.4299,-1.4299,-1.4299,-1.4299,-1.4299,-1.4299,-1.4299,-1.4278,-1.417,-1.4143,-1.4116,-1.4007,-1.3973,-1.3953,-1.3865,-1.3763,-1.3641,-1.3444,-1.3403,-1.3403,-1.3403,-1.3403,-1.3403,-1.3403,-1.3403,-1.3403,-1.3403,-1.3403,-1.3403,-1.3403,-1.3403,-1.3403,-1.3403,-1.3261,-1.3112,-1.2976,-1.282,-1.2664,-1.2515,-1.2501,-1.2501,-1.2501,-1.2501,-1.2501,-1.2501,-1.2501,-1.2501,-1.2501,-1.2501,-1.2501,-1.2501,-1.2501,-1.2501,-0.92,-0.9632,-1.0243,-1.0514,-1.1145,-1.187,-1.2494,-1.2752,-1.2976,-1.3403,-1.3322,-1.3207,-1.3336,-1.3376,0.0,0.0,0.0,0.0,0.0,0.0,0.0,0.0,0.0,0.0,0.0,0.0,0.0,0.0,0.0,0.0,0.0,0.0,0.0,0.0,0.0,0.0,0.0,0.0,0.0,-1.4299,-1.4299,-1.4299,-1.4299,-1.4299,-1.4299,-1.4299,-1.4299,-1.4299,-1.4299,-1.4299,-1.4299,-1.4299,-1.4299,-1.4299,-1.4299,-1.4299,-1.4299,-1.4299,-1.4299,-1.4299,-1.4299,-1.4299,-1.4299,-1.4292,-1.4231,-1.4211,-1.4177,-1.4021,-1.398,-1.396,-1.3865,-1.3797,-1.3756,-1.3756,-1.3688,-1.3587,-1.3437,-1.3403,-1.3403,-1.3403,-1.3403,-1.3403,-1.3403,-1.3403,-1.3403,-1.3403,-1.3403,-1.3403,-1.3403,-1.3403,-1.3403,-1.3403,-1.3315,-1.318,-1.3056,-1.2874,-1.2732,-1.2515,-1.2501,-1.2501,-1.2501,-1.2501,-1.2501,-1.2501,-1.2501,-1.2501,-1.2501,-1.2501,-1.2501,-1.2501,-1.2501,-1.2501,-0.9965,-1.0337,-1.0826,-1.128,-1.1667,-1.2155,-1.3003,-1.3302,-1.3437,-1.358,-1.339,-1.3275,-1.3559,0.0,0.0,0.0,0.0,0.0,0.0,0.0,0.0,0.0,0.0,0.0,0.0,0.0,0.0,0.0,0.0,0.0,0.0,0.0,0.0,0.0,0.0,0.0,0.0,0.0,0.0,0.0,-1.4299,-1.4299,-1.4299,-1.4299,-1.4299,-1.4299,-1.4299,-1.4299,-1.4299,-1.4299,-1.4299,-1.4299,-1.4299,-1.4299,-1.4299,-1.4299,-1.4299,-1.4299,-1.4299,-1.4299,-1.4299,-1.4299,-1.4292,-1.4251,-1.4116,-1.4061,-1.4021,-1.3865,-1.3824,-1.3817,-1.3804,-1.3702,-1.3607,-1.3607,-1.3607,-1.3566,-1.3431,-1.3403,-1.3403,-1.3403,-1.3403,-1.3403,-1.3403,-1.3403,-1.3403,-1.3403,-1.3403,-1.3403,-1.3403,-1.3403,-1.3403,-1.3403,-1.3403,-1.3281,-1.2983,-1.2963,-1.2834,-1.2522,-1.2501,-1.2501,-1.2501,-1.2501,-1.2501,-1.2501,-1.2501,-1.2501,-1.2501,-1.2501,-1.2501,-1.2501,-1.2501,-1.2501,-0.9453,-1.0019,-1.0826,-1.128,-1.206,-1.2827,-1.3254,-1.3376,-1.341,-1.3444,-1.3397,-1.337,0.0,0.0,0.0,0.0,0.0,0.0,0.0,0.0,0.0,0.0,0.0,0.0,0.0,0.0,0.0,0.0,0.0,0.0,0.0,0.0,0.0,0.0,0.0,0.0,-1.4299,-1.4299,-1.4299,0.0,-1.4299,-1.4299,-1.4299,-1.4299,-1.4299,-1.4299,-1.4299,-1.4299,-1.4299,-1.4299,-1.4299,-1.4299,-1.4299,-1.4299,-1.4299,-1.4299,-1.4299,-1.4299,-1.4299,-1.4299,-1.4299,-1.4299,-1.4217,-1.4116,-1.4082,-1.3987,-1.3858,-1.3715,-1.3675,-1.3648,-1.3526,-1.3471,-1.3451,-1.3451,-1.3451,-1.3444,-1.341,-1.3403,-1.3403,-1.3403,-1.3403,-1.3403,-1.3403,-1.3403,-1.3403,-1.3403,-1.3403,-1.3403,-1.3403,-1.3403,-1.3403,-1.3403,-1.3403,-1.3281,-1.2983,-1.2963,-1.2834,-1.2522,-1.2501,-1.2501,-1.2501,-1.2501,-1.2501,-1.2501,-1.2501,-1.2501,-1.2501,-1.2501,-1.2501,-1.2501,-1.2501,-1.2501,-0.953,-1.0141,-1.0894,-1.164,-1.24,-1.3003,-1.3152,-1.3241,-1.3275,-1.3207,-1.3302,0.0,0.0,0.0,0.0,0.0,0.0,0.0,0.0,0.0,0.0,0.0,0.0,0.0,0.0,0.0,0.0,0.0,0.0,0.0,0.0,0.0,0.0,0.0,0.0,0.0,-1.419,-1.4265,-1.4299,-1.4299,-1.4299,-1.4299,-1.4299,-1.4299,-1.4299,-1.4299,-1.4299,-1.4299,-1.4299,-1.4299,-1.4299,-1.4299,-1.4299,-1.4299,-1.4299,-1.4299,-1.4251,-1.419,-1.419,-1.4143,-1.4082,-1.4082,-1.4027,-1.3946,-1.3878,-1.3804,-1.3709,-1.3559,-1.3519,-1.3498,-1.3424,-1.3403,-1.3403,-1.3403,-1.3403,-1.3403,-1.3403,-1.3403,-1.3403,-1.3403,-1.3403,-1.3403,-1.3403,-1.3403,-1.3403,-1.3403,-1.3403,-1.3403,-1.3403,-1.3403,-1.3403,-1.3403,-1.3336,-1.32,-1.2983,-1.2895,-1.2752,-1.2515,-1.2501,-1.2501,-1.2501,-1.2501,-1.2501,-1.2501,-1.2501,-1.2501,-1.2501,-1.2501,-1.2501,-1.2501,-1.2501,-1.2501,-0.9593,-1.0263,-1.0975,-1.2026,-1.2589,-1.2895,-1.3029,-1.3051,-1.3105,-1.2983,0.0,0.0,0.0,0.0,0.0,0.0,0.0,0.0,0.0,0.0,0.0,0.0,0.0,0.0,0.0,0.0,0.0,0.0,0.0,0.0,0.0,0.0,0.0,0.0,0.0,-1.4034,-1.4034,-1.4156,-1.4217,-1.4217,-1.4217,-1.4217,-1.4217,-1.4217,-1.4251,-1.4299,-1.4299,-1.4285,-1.4265,-1.4265,-1.4245,-1.4217,-1.4217,-1.4217,-1.4217,-1.4217,-1.4143,-1.4034,-1.4034,-1.3946,-1.3838,-1.3838,-1.3738,-1.3783,-1.3661,-1.3607,-1.3566,-1.3437,-1.3403,-1.3403,-1.3403,-1.3403,-1.3403,-1.3403,-1.3403,-1.3403,-1.3403,-1.3403,-1.3403,-1.3403,-1.3403,-1.3403,-1.3403,-1.3403,-1.3403,-1.3403,-1.3403,-1.3403,-1.3403,-1.3403,-1.3403,-1.3403,-1.3261,-1.3112,-1.2976,-1.282,-1.2664,-1.2515,-1.2501,-1.2501,-1.2501,-1.2501,-1.2501,-1.2501,-1.2501,-1.2501,-1.2501,-1.2501,-1.2501,-1.2501,-1.2501,-1.2501,-0.8859,-0.9788,-1.0975,-1.2026,-1.2427,-1.263,0.0,0.0,-1.2983,0.0,0.0,0.0,0.0,0.0,0.0,0.0,0.0,0.0,0.0,0.0,0.0,0.0,0.0,0.0,0.0,0.0,0.0,0.0,0.0,0.0,0.0,0.0,-1.3865,-1.3838,-1.3858,0.0,-1.3871,-1.3892,-1.3905,-1.3905,-1.3905,-1.3905,-1.3905,-1.3905,-1.4048,-1.4299,-1.4299,-1.4224,-1.4102,-1.4102,-1.4021,-1.3905,-1.3905,-1.3905,-1.3905,-1.3905,-1.3885,-1.3871,-1.3871,-1.3858,-1.3838,-1.3838,-1.3756,-1.3654,-1.3634,-1.3539,-1.3424,-1.3403,-1.3403,-1.3403,-1.3403,-1.3403,-1.3403,-1.3403,-1.3403,-1.3403,-1.3403,-1.3403,-1.3403,-1.3403,-1.3403,-1.3403,-1.3403,-1.3403,-1.3403,-1.3403,-1.3403,-1.3403,-1.3403,-1.3403,-1.3403,-1.3403,-1.3261,-1.3112,-1.2976,-1.282,-1.2664,-1.2515,-1.2501,-1.2501,-1.2501,-1.2501,-1.2501,-1.2501,-1.2501,-1.2501,-1.2501,-1.2501,-1.2501,-1.2501,-1.2501,-1.2501,-0.9028,-0.989,-1.0806,0.0,-1.2149,-1.242,-1.2556,0.0,0.0,0.0,0.0,0.0,0.0,0.0,0.0,0.0,0.0,0.0,0.0,0.0,0.0,0.0,0.0,0.0,0.0,0.0,0.0,0.0,0.0,0.0,0.0,-1.3722,-1.3682,-1.3593,-1.3675,0.0,-1.3722,-1.3797,-1.3838,-1.3838,-1.3838,-1.3838,-1.3838,-1.3838,-1.3912,-1.4041,-1.4041,-1.4007,-1.3939,-1.3939,-1.3905,-1.3838,-1.3838,-1.3838,-1.3838,-1.3838,-1.379,-1.3722,-1.3722,-1.3668,-1.3593,-1.3593,-1.3553,-1.3498,-1.3498,-1.3451,-1.3403,-1.3403,-1.3403,-1.3403,-1.3403,-1.3403,-1.3403,-1.3403,-1.3403,-1.3403,-1.3403,-1.3403,-1.3403,-1.3403,-1.3403,-1.3403,-1.3403,-1.3403,-1.3403,-1.3403,-1.3403,-1.3403,-1.3403,-1.3403,-1.3403,-1.3403,-1.3193,-1.303,-1.305,-1.2739,-1.2576,-1.2508,-1.2501,-1.2501,-1.2501,-1.2501,-1.2501,-1.2501,-1.2501,-1.2501,-1.2501,-1.2501,-1.2501,-1.2501,-1.2501,-1.2501,-0.9028,0.0,-1.0249,-1.1118,-1.1647,-1.1986,0.0,0.0,0.0,0.0,0.0,0.0,0.0,0.0,0.0,0.0,0.0,0.0,0.0,0.0,0.0,0.0,0.0,0.0,0.0,0.0,0.0,0.0,0.0,0.0,-1.3573,-1.3573,-1.3519,-1.3403,-1.3512,-1.3573,-1.3573,-1.3675,-1.3729,-1.3729,-1.3729,-1.3729,-1.3729,-1.3729,-1.3729,-1.3736,-1.381,-1.3817,-1.379,-1.379,-1.3763,-1.3729,-1.3729,-1.3729,-1.3729,-1.3729,-1.3661,-1.3573,-1.3573,-1.3498,-1.3403,-1.3403,-1.3403,-1.3403,-1.3403,-1.3403,-1.3403,-1.3403,-1.3403,-1.3403,-1.3403,-1.3403,-1.3403,-1.3403,-1.3403,-1.3403,-1.3403,-1.3403,-1.3403,-1.3403,-1.3403,-1.3403,-1.3403,-1.3403,-1.3403,-1.3403,-1.3403,-1.3403,-1.3403,-1.3403,-1.3403,-1.3403,-1.3139,-1.2963,-1.2963,-1.2678,-1.2501,-1.2501,-1.2501,-1.2501,-1.2501,-1.2501,-1.2501,-1.2501,-1.2501,-1.2501,-1.2501,-1.2501,-1.2501,-1.2501,-1.2501,-1.2501,-0.833,-0.8669,0.0,-1.0256,-1.0785,-1.1096,0.0,0.0,0.0,0.0,0.0,0.0,0.0,0.0,0.0,0.0,0.0,0.0,0.0,0.0,0.0,0.0,0.0,0.0,0.0,0.0,0.0,0.0,0.0,0.0,-1.341,-1.341,-1.341,-1.3403,-1.341,-1.341,-1.341,-1.3417,-1.3424,-1.3424,-1.3424,-1.3424,-1.3424,-1.3424,-1.3424,-1.3437,-1.3722,-1.3763,-1.3641,-1.3641,-1.3553,-1.3424,-1.3424,-1.3424,-1.3424,-1.3424,-1.3417,-1.341,-1.341,-1.341,-1.3403,-1.3403,-1.3403,-1.3403,-1.3403,-1.3403,-1.3403,-1.3403,-1.3403,-1.3403,-1.3403,-1.3403,-1.3403,-1.3403,-1.3403,-1.3403,-1.3403,-1.3403,-1.3403,-1.3403,-1.3403,-1.3403,-1.3403,-1.3403,-1.3403,-1.3403,-1.3403,-1.3403,-1.3403,-1.3403,-1.3403,-1.3403,-1.3139,-1.2963,-1.2963,-1.2678,-1.2501,-1.2501,-1.2501,-1.2501,-1.2501,-1.2501,-1.2501,-1.2501,-1.2501,-1.2501,-1.2501,-1.2501,-1.2501,-1.2501,-1.2501,-1.2501,-0.8072,-0.8452,0.0,-0.9598,-1.0222,-1.0738,0.0,0.0,0.0,0.0,0.0,0.0,0.0,0.0,0.0,0.0,0.0,0.0,0.0,0.0,0.0,0.0,0.0,0.0,0.0,0.0,0.0,0.0,0.0,0.0,-1.3247,-1.3254,-1.3302,-1.3397,-1.3403,-1.3403,-1.3403,-1.3403,-1.3403,-1.3403,-1.3403,-1.3403,-1.3403,-1.3403,-1.3403,-1.3403,-1.3512,-1.3532,-1.3485,-1.3485,-1.3451,-1.3403,-1.3403,-1.3403,-1.3403,-1.3403,-1.3403,-1.3403,-1.3403,-1.3403,-1.3403,-1.3403,-1.3403,-1.3403,-1.3403,-1.3403,-1.3403,-1.3403,-1.3403,-1.3403,-1.3403,-1.3403,-1.3403,-1.3403,-1.3403,-1.3403,-1.3403,-1.3403,-1.3403,-1.3403,-1.3403,-1.3403,-1.3403,-1.3403,-1.3403,-1.3403,-1.3403,-1.3403,-1.3403,-1.3403,-1.3403,-1.3403,-1.322,-1.3098,-1.3098,-1.282,-1.2651,-1.2651,-1.2556,-1.2501,-1.2501,-1.2501,-1.2501,-1.2501,-1.2501,-1.2501,-1.2501,-1.2501,-1.2501,-1.2501,-1.2501,-1.2501,-0.776,-0.8106,-0.8554,0.0,0.0,-1.0039,0.0,0.0,0.0,0.0,0.0,0.0,0.0,0.0,0.0,0.0,0.0,0.0,0.0,0.0,0.0,0.0,0.0,0.0,0.0,0.0,0.0,0.0,0.0,0.0,-1.3098,-1.3105,-1.3146,-1.3247,-1.3254,-1.3254,-1.3254,-1.3302,-1.3322,-1.3322,-1.3376,-1.3403,-1.3403,-1.3403,-1.3403,-1.3403,-1.3403,-1.3403,-1.3403,-1.3403,-1.3403,-1.3403,-1.3403,-1.3403,-1.3403,-1.3403,-1.3403,-1.3403,-1.3403,-1.3403,-1.3403,-1.3403,-1.3403,-1.3403,-1.3403,-1.3403,-1.3403,-1.3403,-1.3403,-1.3403,-1.3403,-1.3403,-1.3403,-1.3403,-1.3403,-1.3403,-1.3403,-1.3403,-1.3403,-1.3403,-1.3403,-1.3403,-1.3403,-1.3403,-1.3403,-1.3403,-1.3403,-1.3403,-1.3403,-1.3403,-1.3403,-1.3403,-1.3261,-1.3173,-1.3173,-1.2949,-1.2807,-1.2807,-1.2664,-1.2576,-1.2576,-1.2528,-1.2501,-1.2501,-1.2501,-1.2501,-1.2501,-1.2501,-1.2501,-1.2501,-1.2501,-1.2501,0.0,0.0,0.0,0.0,0.0,0.0,0.0,0.0,0.0,0.0,0.0,0.0,0.0,0.0,0.0,0.0,0.0,0.0,0.0,0.0,0.0,0.0,0.0,0.0,0.0,0.0,0.0,0.0,0.0,-1.3029,-1.2956,-1.3043,-1.2963,-1.2963,-1.2963,-1.2963,-1.2963,-1.3098,-1.3166,-1.3166,-1.3322,-1.3397,-1.3397,-1.3397,-1.3403,-1.3403,-1.3403,-1.3403,-1.3403,-1.3403,-1.3403,-1.3403,-1.3403,-1.3403,-1.3403,-1.3403,-1.3403,-1.3403,-1.3403,-1.3403,-1.3403,-1.3403,-1.3403,-1.3403,-1.3403,-1.3403,-1.3403,-1.3403,-1.3403,-1.3403,-1.3403,-1.3403,-1.3403,-1.3403,-1.3403,-1.3403,-1.3403,-1.3403,-1.3403,-1.3403,-1.3403,-1.3403,-1.3403,-1.3403,-1.3403,-1.3403,-1.3403,-1.3403,-1.3403,-1.3403,-1.3403,-1.3403,-1.3268,-1.318,-1.318,-1.3051,-1.305,-1.305,-1.282,-1.2739,-1.2739,-1.2589,-1.2508,-1.2508,-1.2501,-1.2501,-1.2501,-1.2501,-1.2501,-1.2501,-1.2501,-1.2501,-0.7563,0.0,0.0,0.0,0.0,0.0,0.0,0.0,0.0,0.0,0.0,0.0,0.0,0.0,0.0,0.0,0.0,0.0,0.0,0.0,0.0,0.0,0.0,0.0,0.0,0.0,0.0,0.0,0.0,-1.2678,-1.2786,-1.2901,-1.2963,-1.2963,-1.2963,-1.2963,-1.2963,-1.3003,-1.3097,-1.3024,-1.3166,-1.3234,-1.3241,-1.3349,-1.3403,-1.3403,-1.3403,-1.3403,-1.3403,-1.3403,-1.3403,-1.3403,-1.3403,-1.3403,-1.3403,-1.3403,-1.3403,-1.3403,-1.3403,-1.3403,-1.3403,-1.3403,-1.3403,-1.3403,-1.3403,-1.3403,-1.3403,-1.3403,-1.3403,-1.3403,-1.3403,-1.3403,-1.3403,-1.3403,-1.3403,-1.3403,-1.3403,-1.3403,-1.3403,-1.3403,-1.3403,-1.3403,-1.3403,-1.3403,-1.3403,-1.3403,-1.3403,-1.3403,-1.3403,-1.3403,-1.3403,-1.3403,-1.3363,-1.3336,-1.3336,-1.32,-1.3112,-1.3112,-1.2976,-1.2895,-1.2895,-1.2745,-1.2664,-1.2664,-1.2556,-1.2501,-1.2501,-1.2501,-1.2501,-1.2501,-1.2501,-1.2501,-0.778,-0.7909,-0.8126,-0.8079,0.0,0.0,0.0,0.0,0.0,0.0,0.0,0.0,0.0,0.0,0.0,0.0,0.0,0.0,0.0,0.0,0.0,0.0,0.0,0.0,0.0,0.0,0.0,0.0,-1.2501,-1.2542,-1.263,-1.2718,-1.2773,-1.2773,-1.2773,-1.2773,-1.2773,-1.2834,-1.2868,-1.2868,-1.3017,-1.3085,-1.3091,-1.3241,-1.3308,-1.3308,-1.337,-1.3403,-1.3403,-1.3403,-1.3403,-1.3403,-1.3403,-1.3403,-1.3403,-1.3403,-1.3403,-1.3403,-1.3403,-1.3403,-1.3403,-1.3403,-1.3403,-1.3403,-1.3403,-1.3403,-1.3403,-1.3403,-1.3403,-1.3403,-1.3403,-1.3403,-1.3403,-1.3403,-1.3403,-1.3403,-1.3403,-1.3403,-1.3403,-1.3403,-1.3403,-1.3403,-1.3403,-1.3403,-1.3403,-1.3403,-1.3403,-1.3403,-1.3403,-1.3403,-1.3403,-1.3403,-1.3403,-1.3403,-1.3403,-1.3315,-1.3268,-1.3268,-1.3132,-1.3051,-1.3051,-1.284,-1.2732,-1.2732,-1.2576,-1.2501,-1.2501,-1.2501,-1.2501,-1.2501,-1.2501,-1.2501,-0.8133,-0.8187,-0.8438,-0.8635,0.0,0.0,-0.9049,-0.9042,0.0,0.0,0.0,0.0,0.0,0.0,0.0,0.0,0.0,0.0,0.0,0.0,0.0,0.0,0.0,0.0,0.0,0.0,0.0,-1.2454,-1.2467,-1.2488,-1.2501,-1.2501,-1.2501,-1.2501,-1.2501,-1.2501,-1.2501,-1.2637,-1.2705,-1.2705,-1.2861,-1.2935,-1.2942,-1.3085,-1.3152,-1.3159,-1.3308,-1.3376,-1.3376,-1.3397,-1.3403,-1.3403,-1.3403,-1.3403,-1.3403,-1.3403,-1.3403,-1.3403,-1.3403,-1.3403,-1.3403,-1.3403,-1.3403,-1.3403,-1.3403,-1.3403,-1.3403,-1.3403,-1.3403,-1.3403,-1.3403,-1.3403,-1.3403,-1.3403,-1.3403,-1.3403,-1.3403,-1.3403,-1.3403,-1.3403,-1.3403,-1.3403,-1.3403,-1.3403,-1.3403,-1.3403,-1.3403,-1.3403,-1.3403,-1.3403,-1.3403,-1.3403,-1.3403,-1.3403,-1.3403,-1.3403,-1.3403,-1.3403,-1.3275,-1.32,-1.32,-1.2929,-1.2773,-1.2759,-1.2589,-1.2501,-1.2501,-1.2501,-1.2501,-1.2501,-1.2501,-1.2501,-0.9103,-0.9117,-0.9062,-0.8635,-0.873,0.0,-0.8241,-0.835,0.0,0.0,0.0,0.0,0.0,0.0,0.0,0.0,0.0,0.0,0.0,0.0,0.0,0.0,0.0,0.0,0.0,0.0,-1.2149,-1.2149,-1.2264,-1.2379,-1.2494,-1.2501,-1.2501,-1.2501,-1.2501,-1.2501,-1.2501,-1.2528,-1.2549,-1.2549,-1.2705,-1.2773,-1.2779,-1.2935,-1.3003,-1.301,-1.3152,-1.3214,-1.3227,-1.3349,-1.3403,-1.3403,-1.3403,-1.3403,-1.3403,-1.3403,-1.3403,-1.3403,-1.3403,-1.3403,-1.3403,-1.3403,-1.3403,-1.3403,-1.3403,-1.3403,-1.3403,-1.3403,-1.3403,-1.3403,-1.3403,-1.3403,-1.3403,-1.3403,-1.3403,-1.3403,-1.3403,-1.3403,-1.3403,-1.3403,-1.3403,-1.3403,-1.3403,-1.3403,-1.3403,-1.3403,-1.3403,-1.3403,-1.3403,-1.3403,-1.3403,-1.3403,-1.3403,-1.3403,-1.3403,-1.3403,-1.3403,-1.3403,-1.337,-1.3356,-1.3356,-1.318,-1.303,-1.2915,-1.2644,-1.2501,-1.2501,-1.2501,-1.2501,-1.2501,-1.2501,-1.2501,-0.9578,-0.9496,-0.9422,-0.9117,0.0,0.0,0.0,0.0,0.0,0.0,0.0,0.0,0.0,0.0,0.0,0.0,0.0,0.0,0.0,0.0,0.0,0.0,0.0,0.0,0.0,0.0,-1.1979,-1.2054,-1.2135,-1.221,-1.2277,-1.2284,-1.2318,-1.2393,-1.2393,-1.2427,-1.2501,-1.2501,-1.2501,-1.2501,-1.2576,-1.2617,-1.2623,-1.2773,-1.2847,-1.2854,-1.3003,-1.3064,-1.3078,-1.3227,-1.3288,-1.3295,-1.337,-1.3403,-1.3403,-1.3403,-1.3403,-1.3403,-1.3403,-1.3403,-1.3403,-1.3403,-1.3403,-1.3403,-1.3403,-1.3403,-1.3403,-1.3403,-1.3403,-1.3403,-1.3403,-1.3403,-1.3403,-1.3403,-1.3403,-1.3403,-1.3403,-1.3403,-1.3403,-1.3403,-1.3403,-1.3403,-1.3403,-1.3403,-1.3403,-1.3403,-1.3403,-1.3403,-1.3403,-1.3403,-1.3403,-1.3403,-1.3403,-1.3403,-1.3403,-1.3403,-1.3403,-1.3403,-1.3403,-1.3403,-1.3403,-1.3254,-1.3071,-1.2854,-1.2617,-1.2501,-1.2501,-1.2501,-1.2501,-1.2501,-1.2501,-1.2501,-0.9971,-0.9842,-0.9829,0.0,0.0,-0.9398,0.0,0.0,0.0,-0.9083,0.0,0.0,0.0,0.0,0.0,0.0,0.0,0.0,0.0,0.0,0.0,0.0,0.0,0.0,0.0,0.0,-1.1674,-1.1918,-1.1877,-1.1898,-1.2013,-1.2047,-1.2121,-1.2244,-1.2244,-1.2318,-1.2461,-1.2461,-1.2474,-1.2501,-1.2501,-1.2501,-1.2508,-1.263,-1.2684,-1.2698,-1.2847,-1.2915,-1.2929,-1.3071,-1.3132,-1.3152,-1.3329,-1.3403,-1.3403,-1.3403,-1.3403,-1.3403,-1.3403,-1.3403,-1.3403,-1.3403,-1.3403,-1.3403,-1.3403,-1.3403,-1.3403,-1.3403,-1.3403,-1.3403,-1.3403,-1.3403,-1.3403,-1.3403,-1.3403,-1.3403,-1.3403,-1.3403,-1.3403,-1.3403,-1.3403,-1.3403,-1.3403,-1.3403,-1.3403,-1.3403,-1.3403,-1.3403,-1.3403,-1.3403,-1.3403,-1.3403,-1.3403,-1.3403,-1.3403,-1.3403,-1.3403,-1.3403,-1.3403,-1.3403,-1.3403,-1.3254,-1.3057,-1.282,-1.2637,-1.2549,-1.2549,-1.2515,-1.2501,-1.2501,-1.2501,-1.2501,0.0,0.0,0.0,0.0,-0.9978,0.0,0.0,0.0,-0.8791,-0.8465,0.0,0.0,0.0,0.0,0.0,0.0,0.0,0.0,0.0,0.0,0.0,0.0,0.0,0.0,0.0,0.0,0.0,-1.143,-1.1226,-1.1301,-1.183,-1.1986,-1.2149,-1.2088,-1.2088,-1.2162,-1.2311,-1.2318,-1.2379,-1.2501,-1.2501,-1.2501,-1.2501,-1.2522,-1.2528,-1.2535,-1.2691,-1.2759,-1.2766,-1.2922,-1.2983,-1.301,-1.3295,-1.3403,-1.3403,-1.3403,-1.3403,-1.3403,-1.3403,-1.3403,-1.3403,-1.3403,-1.3403,-1.3403,-1.3403,-1.3403,-1.3403,-1.3403,-1.3403,-1.3403,-1.3403,-1.3403,-1.3403,-1.3403,-1.3403,-1.3403,-1.3403,-1.3403,-1.3403,-1.3403,-1.3403,-1.3403,-1.3403,-1.3403,-1.3403,-1.3403,-1.3403,-1.3403,-1.3403,-1.3403,-1.3403,-1.3403,-1.3403,-1.3403,-1.3403,-1.3403,-1.3403,-1.3403,-1.3403,-1.3403,-1.3403,-1.3254,-1.3159,-1.3125,-1.2847,-1.2705,-1.2705,-1.2569,-1.2501,-1.2501,-1.2501,-1.2501,0.0,0.0,0.0,0.0,0.0,0.0,-0.8871,0.0,-0.8648,0.0,0.0,0.0,0.0,0.0,0.0,0.0,0.0,0.0,0.0,0.0,0.0,0.0,0.0,0.0,0.0,0.0,0.0,0.0,0.0,-1.0907,-1.1416,-1.1586,-1.1748,-1.1925,-1.1932,-1.1999,-1.2155,-1.2155,-1.223,-1.2379,-1.2379,-1.242,-1.2501,-1.2501,-1.2501,-1.2508,-1.2569,-1.2596,-1.261,-1.2766,-1.2827,-1.2847,-1.3064,-1.3193,-1.3268,-1.3268,-1.3322,-1.339,-1.3302,-1.3268,-1.3268,-1.3268,-1.3329,-1.3403,-1.3403,-1.3403,-1.3403,-1.3403,-1.3403,-1.3403,-1.3403,-1.3403,-1.3403,-1.3403,-1.3403,-1.3403,-1.3403,-1.3403,-1.3403,-1.3403,-1.3403,-1.3403,-1.3403,-1.3403,-1.3403,-1.3403,-1.3403,-1.3403,-1.3403,-1.3403,-1.3403,-1.3403,-1.3403,-1.3403,-1.3403,-1.3403,-1.3403,-1.3403,-1.3403,-1.3403,-1.3403,-1.3254,-1.3173,-1.3173,-1.2969,-1.2861,-1.2861,-1.28,-1.2725,-1.263,-1.2542,-1.2501,-0.9844,0.0,0.0,0.0,0.0,0.0,0.0,0.0,0.0,0.0,0.0,0.0,0.0,0.0,-0.8425,-0.8343,0.0,0.0,0.0,0.0,0.0,0.0,0.0,0.0,0.0,0.0,0.0,0.0,0.0,0.0,-1.1009,-1.1226,-1.1443,-1.1701,-1.1748,-1.1843,-1.1999,-1.1999,-1.2074,-1.223,-1.2271,-1.2345,-1.2447,-1.2481,-1.2501,-1.2501,-1.2501,-1.2501,-1.2508,-1.2623,-1.2664,-1.2678,-1.2793,-1.2922,-1.3057,-1.3098,-1.3186,-1.3261,-1.3152,-1.3112,-1.3112,-1.3112,-1.3193,-1.3288,-1.3329,-1.3336,-1.3349,-1.339,-1.3403,-1.3403,-1.3403,-1.3403,-1.3403,-1.3403,-1.3403,-1.3403,-1.3403,-1.3403,-1.3403,-1.3403,-1.3403,-1.3403,-1.3403,-1.3403,-1.3403,-1.3403,-1.3403,-1.3403,-1.3403,-1.3403,-1.3403,-1.3403,-1.3403,-1.3403,-1.3403,-1.3403,-1.3403,-1.3403,-1.3403,-1.3403,-1.3403,-1.3295,-1.3234,-1.3234,-1.3091,-1.3017,-1.3017,-1.2983,-1.2901,-1.2793,-1.2637,-1.2542,0.0,0.0,0.0,-0.9587,0.0,0.0,0.0,0.0,-0.9105,0.0,0.0,0.0,0.0,-0.8865,-0.8818,-0.8526,-0.8608,0.0,0.0,0.0,0.0,0.0,0.0,0.0,0.0,0.0,0.0,0.0,0.0,0.0,-1.0683,-1.1009,-1.124,-1.1402,-1.1552,-1.1694,-1.1837,-1.1837,-1.1918,-1.2149,-1.2223,-1.2291,-1.2298,-1.244,-1.2501,-1.2501,-1.2501,-1.2501,-1.2501,-1.2508,-1.2508,-1.2508,-1.2515,-1.261,-1.2759,-1.2915,-1.2969,-1.2976,-1.2969,-1.305,-1.305,-1.305,-1.2969,-1.3003,-1.3139,-1.318,-1.3214,-1.3356,-1.3403,-1.3403,-1.3403,-1.3403,-1.3403,-1.3403,-1.3403,-1.3403,-1.3403,-1.3403,-1.3403,-1.3403,-1.3403,-1.3403,-1.3403,-1.3403,-1.3403,-1.3403,-1.3403,-1.3403,-1.3403,-1.3403,-1.3403,-1.3403,-1.3403,-1.3403,-1.3403,-1.3403,-1.3403,-1.3403,-1.3403,-1.3403,-1.3403,-1.3397,-1.3397,-1.3397,-1.3241,-1.3166,-1.3166,-1.303,-1.3043,-1.2949,-1.2793,-1.2644,0.0,0.0,-0.5225,-0.772,0.0,0.0,0.0,0.0,0.0,0.0,0.0,0.0,0.0,-0.7315,-0.7287,-0.7199,-0.6283,-0.5335,0.0,0.0,0.0,0.0,0.0,0.0,0.0,0.0,0.0,0.0,0.0,0.0,0.0,-1.0758,-1.1029,-1.1382,-1.1443,-1.1538,-1.1687,-1.1694,-1.1762,-1.1911,-1.2067,-1.2189,-1.2298,-1.2433,-1.2501,-1.2501,-1.2501,-1.2501,-1.2501,-1.2501,-1.2501,-1.2501,-1.2501,-1.2535,-1.2596,-1.2752,-1.2874,-1.2949,-1.284,-1.2807,-1.2807,-1.2807,-1.2874,-1.2969,-1.3017,-1.3098,-1.3186,-1.3234,-1.3322,-1.3403,-1.3403,-1.3403,-1.3403,-1.3403,-1.3403,-1.3403,-1.3403,-1.3403,-1.3403,-1.3403,-1.3403,-1.3403,-1.3403,-1.3403,-1.3403,-1.3403,-1.3403,-1.3403,-1.3403,-1.3403,-1.3403,-1.3403,-1.3403,-1.3403,-1.3403,-1.3403,-1.3403,-1.3403,-1.3403,-1.3403,-1.3403,-1.3403,-1.3403,-1.3403,-1.3349,-1.3322,-1.3322,-1.3275,-1.32,-1.3098,-1.3044,-1.2888,-0.4295,-0.3578,0.0,-0.5953,-0.552,0.0,-0.5676,0.0,0.0,0.0,0.0,0.0,0.0,-0.5933,-0.5924,-0.5795,-0.4905,-0.4088,0.0,0.0,0.0,0.0,0.0,0.0,0.0,0.0,-0.7592,-0.7675,0.0,0.0,0.0,0.0,-1.0184,-1.1145,-1.1307,-1.1436,-1.1538,-1.1592,-1.1667,-1.1755,-1.1904,-1.206,-1.2216,-1.2359,-1.2454,-1.2501,-1.2501,-1.2501,-1.2501,-1.2501,-1.2501,-1.2501,-1.2501,-1.2501,-1.2515,-1.261,-1.2712,-1.2786,-1.2684,-1.2651,-1.2651,-1.2651,-1.2718,-1.2807,-1.2861,-1.2983,-1.3105,-1.3159,-1.3281,-1.3403,-1.3403,-1.3403,-1.3403,-1.3403,-1.3403,-1.3403,-1.3403,-1.3403,-1.3403,-1.3403,-1.3403,-1.3403,-1.3403,-1.3403,-1.3403,-1.3403,-1.3403,-1.3403,-1.3403,-1.3403,-1.3403,-1.3403,-1.3403,-1.3403,-1.3403,-1.3403,-1.3403,-1.3403,-1.3403,-1.3403,-1.3403,-1.3403,-1.3403,-1.3403,-1.3403,-1.3403,-1.3403,-1.3403,-1.3349,-1.3254,-1.3254,-1.3125]}]]